[[{"header":{"parameterUnit":"m.s-1","parameterCategory":1,"la1":30.6,"la2":28.766,"lo1":-90.7593,"lo2":-88.6598,"dy":0.0162,"dx":0.0183,"nx":116,"ny":114,"refTime":"2023-04-28T18:00:00:Z","depth":0,"parameterNumber":2,"parameterNumberName":"U-component_of_WINDS"},"data":[0.0,0.0,0.0,0.0,0.0,0.0,0.0,0.0,0.0,0.0,0.0,0.0,0.0,0.0,0.0,0.0,0.0,0.0,0.0,0.0,0.0,0.0,0.0,0.0,0.0,0.0,0.0,0.0,0.0,0.0,0.0,0.0,0.0,0.0,0.0,0.0,0.0,0.0,0.0,0.0,0.0,0.0,0.0,0.0,0.0,0.0,0.0,0.0,0.0,0.0,0.0,0.0,0.0,0.0,0.0,0.0,0.0,0.0,0.0,0.0,0.0,0.0,0.0,0.0,0.0,0.0,0.0,0.0,0.0,0.0,0.0,0.0,0.0,0.0,0.0,0.0,0.0,0.0,0.0,0.0,0.0,0.0,0.0,0.0,0.0,0.0,0.0,0.0,0.0,0.0,0.0,0.0,0.0,0.0,0.0,0.0,0.0,0.0,0.0,0.0,0.0,0.0,0.0,0.0,0.0,0.0,0.0,0.0,0.0,0.0,0.0,0.0,0.0,0.0,0.0,0.0,0.0,0.0,0.0,0.0,0.0,0.0,0.0,0.0,0.0,0.0,0.0,0.0,0.0,0.0,0.0,0.0,0.0,0.0,0.0,0.0,0.0,0.0,0.0,0.0,0.0,0.0,0.0,0.0,0.0,0.0,0.0,0.0,0.0,0.0,0.0,0.0,0.0,0.0,0.0,0.0,0.0,0.0,0.0,0.0,0.0,0.0,0.0,0.0,0.0,0.0,0.0,0.0,0.0,0.0,0.0,0.0,0.0,0.0,0.0,0.0,0.0,0.0,0.0,0.0,0.0,0.0,0.0,0.0,0.0,0.0,0.0,0.0,0.0,0.0,0.0,0.0,0.0,0.0,0.0,0.0,0.0,0.0,0.0,0.0,0.0,0.0,0.0,0.0,0.0,0.0,0.0,0.0,0.0,0.0,0.0,0.0,0.0,0.0,0.0,0.0,0.0,0.0,0.0,0.0,0.0,0.0,0.0,0.0,0.0,0.0,0.0,0.0,0.0,0.0,0.0,0.0,0.0,0.0,0.0,0.0,0.0,0.0,0.0,0.0,0.0,0.0,0.0,0.0,0.0,0.0,0.0,0.0,0.0,0.0,0.0,0.0,0.0,0.0,0.0,0.0,0.0,0.0,0.0,0.0,0.0,0.0,0.0,0.0,0.0,0.0,0.0,0.0,0.0,0.0,0.0,0.0,0.0,0.0,0.0,0.0,0.0,0.0,0.0,0.0,0.0,0.0,0.0,0.0,0.0,0.0,0.0,0.0,0.0,0.0,0.0,0.0,0.0,0.0,0.0,0.0,0.0,0.0,0.0,0.0,0.0,0.0,0.0,0.0,0.0,0.0,0.0,0.0,0.0,0.0,0.0,0.0,0.0,0.0,0.0,0.0,0.0,0.0,0.0,0.0,0.0,0.0,0.0,0.0,0.0,0.0,0.0,0.0,0.0,0.0,0.0,0.0,0.0,0.0,0.0,0.0,0.0,0.0,0.0,0.0,0.0,0.0,0.0,0.0,0.0,0.0,0.0,0.0,0.0,0.0,0.0,0.0,0.0,0.0,0.0,0.0,0.0,0.0,0.0,0.0,0.0,0.0,0.0,0.0,0.0,0.0,0.0,0.0,0.0,0.0,0.0,0.0,0.0,0.0,0.0,0.0,0.0,0.0,0.0,0.0,0.0,0.0,0.0,0.0,0.0,0.0,0.0,0.0,0.0,0.0,0.0,0.0,0.0,0.0,0.0,0.0,0.0,0.0,0.0,0.0,0.0,0.0,0.0,0.0,0.0,0.0,0.0,0.0,0.0,0.0,0.0,0.0,0.0,0.0,0.0,0.0,0.0,0.0,0.0,0.0,0.0,0.0,0.0,0.0,0.0,0.0,0.0,0.0,0.0,0.0,0.0,0.0,0.0,0.0,0.0,0.0,0.0,0.0,0.0,0.0,0.0,0.0,0.0,0.0,0.0,0.0,0.0,0.0,0.0,0.0,0.0,0.0,0.0,0.0,0.0,0.0,0.0,0.0,0.0,0.0,0.0,0.0,0.0,0.0,0.0,0.0,0.0,0.0,0.0,0.0,0.0,0.0,0.0,0.0,0.0,0.0,0.0,0.0,0.0,0.0,0.0,0.0,0.0,0.0,0.0,0.0,0.0,0.0,0.0,0.0,0.0,0.0,0.0,0.0,0.0,0.0,0.0,0.0,0.0,0.0,0.0,0.0,0.0,0.0,0.0,0.0,0.0,0.0,0.0,0.0,0.0,0.0,0.0,0.0,0.0,0.0,0.0,0.0,0.0,0.0,0.0,0.0,0.0,0.0,0.0,0.0,0.0,0.0,0.0,0.0,0.0,0.0,0.0,0.0,0.0,0.0,0.0,0.0,0.0,0.0,0.0,0.0,0.0,0.0,0.0,0.0,0.0,0.0,0.0,0.0,0.0,0.0,0.0,0.0,0.0,0.0,0.0,0.0,0.0,0.0,0.0,0.0,0.0,0.0,0.0,0.0,0.0,0.0,0.0,0.0,0.0,0.0,0.0,0.0,0.0,0.0,0.0,0.0,0.0,0.0,0.0,0.0,0.0,0.0,0.0,0.0,0.0,0.0,0.0,0.0,0.0,0.0,0.0,0.0,0.0,0.0,0.0,0.0,0.0,0.0,0.0,0.0,0.0,0.0,0.0,0.0,0.0,0.0,0.0,0.0,0.0,0.0,0.0,0.0,0.0,0.0,0.0,0.0,0.0,0.0,0.0,0.0,0.0,0.0,0.0,0.0,0.0,0.0,0.0,0.0,0.0,0.0,0.0,0.0,0.0,0.0,0.0,0.0,0.0,0.0,0.0,0.0,0.0,0.0,0.0,0.0,0.0,0.0,0.0,0.0,0.0,0.0,0.0,0.0,0.0,0.0,0.0,0.0,0.0,0.0,0.0,0.0,0.0,0.0,0.0,0.0,0.0,0.0,0.0,0.0,0.0,0.0,0.0,0.0,0.0,0.0,0.0,0.0,0.0,0.0,0.0,0.0,0.0,0.0,0.0,0.0,0.0,0.0,0.0,0.0,0.0,0.0,0.0,0.0,0.0,0.0,0.0,0.0,0.0,0.0,0.0,0.0,0.0,0.0,0.0,0.0,0.0,0.0,0.0,0.0,0.0,0.0,0.0,0.0,0.0,0.0,0.0,0.0,0.0,0.0,0.0,0.0,0.0,0.0,0.0,0.0,0.0,0.0,0.0,0.0,0.0,0.0,0.0,0.0,0.0,0.0,0.0,0.0,0.0,0.0,0.0,0.0,0.0,0.0,0.0,0.0,0.0,0.0,0.0,0.0,0.0,0.0,0.0,0.0,0.0,0.0,0.0,0.0,0.0,0.0,0.0,0.0,0.0,0.0,0.0,0.0,0.0,0.0,0.0,0.0,0.0,0.0,0.0,0.0,0.0,0.0,0.0,0.0,0.0,0.0,0.0,0.0,0.0,0.0,0.0,0.0,0.0,0.0,0.0,0.0,0.0,0.0,0.0,0.0,0.0,0.0,0.0,0.0,0.0,0.0,0.0,0.0,0.0,0.0,0.0,0.0,0.0,0.0,0.0,0.0,0.0,0.0,0.0,0.0,0.0,0.0,0.0,0.0,0.0,0.0,0.0,0.0,0.0,0.0,0.0,0.0,0.0,0.0,0.0,0.0,0.0,0.0,0.0,0.0,0.0,0.0,0.0,0.0,0.0,0.0,0.0,0.0,0.0,0.0,0.0,0.0,0.0,0.0,0.0,0.0,0.0,0.0,0.0,0.0,0.0,0.0,0.0,0.0,0.0,0.0,0.0,0.0,0.0,0.0,0.0,0.0,0.0,0.0,0.0,0.0,0.0,0.0,0.0,0.0,0.0,0.0,0.0,0.0,0.0,0.0,0.0,0.0,0.0,0.0,0.0,0.0,0.0,0.0,0.0,0.0,0.0,0.0,0.0,0.0,0.0,0.0,0.0,0.0,0.0,0.0,0.0,0.0,0.0,0.0,0.0,0.0,0.0,0.0,0.0,0.0,0.0,0.0,0.0,0.0,0.0,0.0,0.0,0.0,0.0,0.0,0.0,0.0,0.0,0.0,0.0,0.0,0.0,0.0,0.0,0.0,0.0,0.0,0.0,0.0,0.0,0.0,0.0,0.0,0.0,0.0,0.0,0.0,0.0,0.0,0.0,0.0,0.0,0.0,0.0,0.0,0.0,0.0,0.0,0.0,0.0,0.0,0.0,0.0,0.0,0.0,0.0,0.0,0.0,0.0,0.0,0.0,0.0,0.0,0.0,0.0,0.0,0.0,0.0,0.0,0.0,0.0,0.0,0.0,0.0,0.0,0.0,0.0,0.0,0.0,0.0,0.0,0.0,0.0,0.0,0.0,0.0,0.0,0.0,0.0,0.0,0.0,0.0,0.0,0.0,0.0,0.0,0.0,0.0,0.0,0.0,0.0,0.0,0.0,0.0,0.0,0.0,0.0,0.0,0.0,0.0,0.0,0.0,0.0,0.0,0.0,0.0,0.0,0.0,0.0,0.0,0.0,0.0,0.0,0.0,0.0,0.0,0.0,0.0,0.0,0.0,0.0,0.0,0.0,0.0,0.0,0.0,0.0,0.0,0.0,0.0,0.0,0.0,0.0,0.0,0.0,0.0,0.0,0.0,0.0,0.0,0.0,0.0,0.0,0.0,0.0,0.0,0.0,0.0,0.0,0.0,0.0,0.0,0.0,0.0,0.0,0.0,0.0,0.0,0.0,0.0,0.0,0.0,0.0,0.0,0.0,0.0,0.0,0.0,0.0,0.0,0.0,0.0,0.0,0.0,0.0,0.0,0.0,0.0,0.0,0.0,0.0,0.0,0.0,0.0,0.0,0.0,0.0,0.0,0.0,0.0,0.0,0.0,0.0,0.0,0.0,0.0,0.0,0.0,0.0,0.0,0.0,0.0,0.0,0.0,0.0,0.0,0.0,0.0,0.0,0.0,0.0,0.0,0.0,0.0,0.0,0.0,0.0,0.0,0.0,0.0,0.0,0.0,0.0,0.0,0.0,0.0,0.0,0.0,0.0,0.0,0.0,0.0,0.0,0.0,0.0,0.0,0.0,0.0,0.0,0.0,0.0,0.0,0.0,0.0,0.0,0.0,0.0,0.0,0.0,0.0,0.0,0.0,0.0,0.0,0.0,0.0,0.0,0.0,0.0,0.0,0.0,0.0,0.0,0.0,0.0,0.0,0.0,0.0,0.0,0.0,0.0,0.0,0.0,0.0,0.0,0.0,0.0,0.0,0.0,0.0,0.0,0.0,0.0,0.0,0.0,0.0,0.0,0.0,0.0,0.0,0.0,0.0,0.0,0.0,0.0,0.0,0.0,0.0,0.0,0.0,0.0,0.0,0.0,0.0,0.0,0.0,0.0,0.0,0.0,0.0,0.0,0.0,0.0,0.0,0.0,0.0,0.0,0.0,0.0,0.0,0.0,0.0,0.0,0.0,0.0,0.0,0.0,0.0,0.0,0.0,0.0,0.0,0.0,0.0,0.0,0.0,0.0,0.0,0.0,0.0,0.0,0.0,0.0,0.0,0.0,0.0,0.0,0.0,0.0,0.0,0.0,0.0,0.0,0.0,0.0,0.0,0.0,0.0,0.0,0.0,0.0,0.0,0.0,0.0,0.0,0.0,0.0,0.0,0.0,0.0,0.0,0.0,0.0,0.0,0.0,0.0,0.0,0.0,0.0,0.0,0.0,0.0,0.0,0.0,0.0,0.0,0.0,0.0,0.0,0.0,0.0,0.0,0.0,0.0,0.0,0.0,0.0,0.0,0.0,0.0,0.0,0.0,0.0,0.0,0.0,0.0,0.0,0.0,0.0,0.0,0.0,0.0,0.0,0.0,0.0,0.0,0.0,0.0,0.0,0.0,0.0,0.0,0.0,0.0,0.0,0.0,0.0,0.0,0.0,0.0,0.0,0.0,0.0,0.0,0.0,0.0,0.0,0.0,0.0,0.0,0.0,0.0,0.0,0.0,0.0,0.0,0.0,0.0,0.0,0.0,0.0,0.0,0.0,0.0,0.0,0.0,0.0,0.0,0.0,0.0,0.0,0.0,0.0,0.0,0.0,-1.1769,-0.9673,0.0,0.0,0.0,0.0,0.0,0.0,0.0,0.0,0.0,0.0,0.0,0.0,0.0,0.0,0.0,0.0,0.0,0.0,0.0,0.0,0.0,0.0,0.0,0.0,0.0,0.0,0.0,0.0,0.0,0.0,0.0,0.0,0.0,0.0,0.0,0.0,0.0,0.0,0.4563,0.3387,0.1746,0.0466,-0.1578,-0.4115,0.0,0.0,0.0,0.0,0.0,0.0,0.0,0.0,0.0,0.0,0.0,0.0,0.0,0.0,0.0,0.0,0.0,0.0,0.0,0.0,0.0,0.0,0.0,0.0,0.0,0.0,0.0,0.0,0.0,0.0,0.0,0.0,0.0,0.0,0.0,0.0,0.0,0.0,0.0,0.0,0.0,0.0,0.0,0.0,0.0,0.0,0.0,0.0,0.0,0.0,0.0,0.0,0.0,0.0,0.0,0.0,0.0,0.0,0.0,0.0,0.0,0.0,0.0,0.0,0.0,0.0,0.0,0.0,0.0,0.0,-1.6289,-1.4743,0.0,0.0,0.0,0.0,0.0,0.0,0.0,0.0,0.0,0.0,0.0,0.0,0.0,0.0,0.0,0.0,0.0,0.0,0.0,0.0,0.0,0.0,0.0,0.0,0.7705,0.7205,0.7612,0.7657,0.0,0.0,0.0,0.0,0.0,0.0,0.0,0.0,0.0,0.5313,0.4518,0.2455,-0.0808,-0.1423,-0.3073,-0.5434,-0.5004,0.0,0.0,0.0,0.0,0.0,0.0,0.0,0.0,0.0,0.0,0.0,0.0,0.0,0.0,0.0,0.0,0.0,0.0,0.0,0.0,0.0,0.0,0.0,0.0,0.0,0.0,0.0,0.0,0.0,0.0,0.0,0.0,0.0,0.0,0.0,0.0,0.0,0.0,0.0,0.0,0.0,0.0,0.0,0.0,0.0,0.0,0.0,0.0,0.0,0.0,0.0,0.0,0.0,0.0,0.0,0.0,0.0,0.0,0.0,0.0,0.0,0.0,0.0,-2.0002,-2.1589,-2.0622,-2.1062,-2.2302,-2.4047,-2.0834,-2.0001,-2.06,-1.7217,0.0,0.0,0.0,0.0,0.0,0.0,0.0,0.0,0.0,0.0,0.0,0.0,0.0,0.0,0.0,0.0,0.0,0.0,0.0,0.0,0.0,0.7199,0.678,0.5922,0.6277,0.6277,0.0,0.0,0.0,0.0,0.0,0.0,0.0,0.5677,0.5412,0.5458,0.3589,0.0936,-0.2386,-0.2508,-0.3781,-0.6019,-0.5373,-0.5536,-0.6254,0.0,0.0,0.0,0.0,0.0,0.0,0.0,0.0,0.0,0.0,0.0,0.0,0.0,0.0,0.0,0.0,0.0,0.0,0.0,0.0,0.0,0.0,0.0,0.0,0.0,0.0,0.0,0.0,0.0,0.0,0.0,0.0,0.0,0.0,0.0,0.0,0.0,0.0,0.0,0.0,0.0,0.5808,0.2363,0.0,0.0,0.0,0.0,0.0,0.0,0.0,0.0,0.0,0.0,0.0,0.0,0.0,-1.2068,-1.3134,-1.6979,-1.965,-2.1094,-2.4322,-2.627,-2.692,-2.6932,-2.7152,-2.7482,-2.7446,0.0,-2.3432,-2.2377,0.0,0.0,0.0,0.0,0.0,0.0,0.0,0.0,0.0,0.0,0.0,0.0,0.0,0.0,0.0,0.0,0.0,0.0,0.0,0.0,0.0,0.7256,0.685,0.6654,0.6348,0.5812,0.5035,0.5313,0.0,0.0,0.0,0.5608,0.5747,0.547,0.4831,0.3801,-0.0061,-0.2247,-0.2737,-0.376,-0.4794,-0.5734,-0.5477,-0.5822,-0.6497,-0.6415,0.0,0.0,0.0,0.0,0.0,0.0,0.0,0.0,0.0,0.0,0.0,0.0,0.0,0.0,0.0,0.0,0.0,0.0,0.0,0.0,0.0,0.0,0.0,0.0,0.0,0.0,0.0,0.0,0.0,0.0,0.0,0.0,0.0,0.0,0.0,0.0,0.0,0.0,0.0,0.6854,0.3125,0.1078,0.0157,-0.0625,0.0,0.0,0.0,0.0,0.0,0.0,0.0,0.0,0.0,-1.6182,-1.8181,-1.9667,-2.0808,-2.3541,-2.5246,-2.5925,-2.723,-2.8325,-2.9051,-2.9051,-2.9051,-2.9063,-2.9302,-2.8572,-2.7085,-2.525,-2.3451,-2.1715,0.0,0.0,0.0,0.0,-2.0489,-2.1273,0.0,0.0,0.0,0.0,0.0,0.0,0.0,0.0,0.0,0.0,0.0,0.0,0.8029,0.7283,0.6858,0.7027,0.623,0.536,0.4569,0.4923,0.0,0.0,0.0,0.5403,0.5441,0.4976,0.3789,0.1847,-0.2557,-0.4295,-0.3504,-0.4773,-0.541,-0.5481,-0.5599,-0.5953,-0.6556,-0.6543,-0.6329,-0.5895,0.0,0.0,0.0,0.0,0.0,0.0,0.0,0.0,0.0,0.0,0.0,0.0,0.0,0.0,0.0,0.0,0.0,0.0,0.0,0.0,0.0,0.0,0.0,0.0,0.0,0.0,0.0,0.0,0.0,0.0,0.0,0.0,0.0,0.0,0.0,0.0,0.0,0.4148,0.0237,-0.1011,-0.4209,-0.6073,0.0,0.0,0.0,0.0,0.0,0.0,-1.7248,-1.8939,-2.0595,-2.2039,-2.408,-2.5604,-2.6699,-2.794,-2.875,-2.9151,-2.9151,-2.9377,-2.9792,-2.9792,-2.9792,-2.9792,-2.9792,-2.9704,-2.9376,-2.7113,-2.5849,-2.514,-2.2559,-2.1631,-2.1898,-2.2708,-2.3264,-2.3915,0.0,0.0,0.0,0.0,0.0,0.0,0.0,0.0,0.0,0.0,0.0,0.6794,0.7494,0.7025,0.6476,0.5922,0.5331,0.4669,0.4082,0.4321,0.4625,0.5019,0.4823,0.4925,0.5588,0.3915,0.2084,0.0127,-0.1834,-0.3785,-0.552,-0.5433,-0.5511,-0.5779,-0.5734,-0.5923,-0.6222,-0.5665,-0.5869,-0.6249,-0.3794,0.0,0.0,0.0,0.0,0.0,0.0,0.0,0.0,0.0,0.0,0.0,0.0,0.0,0.0,0.0,0.0,0.0,0.0,0.0,0.0,0.0,0.0,0.0,0.0,0.0,0.0,0.0,0.0,0.0,0.0,0.0,0.0,0.0,0.0,0.0,0.0,0.0,0.0,-0.6391,-1.0895,0.0,0.0,0.0,0.0,-1.6716,-1.9599,-2.2008,-2.346,-2.4164,-2.5027,-2.6257,-2.6954,-2.7803,-2.8762,-2.9415,-2.9729,-2.9741,-2.9741,-2.9767,-2.9792,-2.9792,-2.9792,-2.9792,-2.9792,-2.9478,-2.8925,-2.8237,-2.7212,-2.5865,-2.4598,-2.3395,-2.2594,-2.3753,-2.4366,-2.4691,0.0,0.0,0.0,0.0,0.0,0.0,0.0,0.0,0.636,0.7209,0.7246,0.767,0.8994,0.823,0.7756,0.8007,0.6661,0.551,0.4869,0.466,0.4452,0.4086,0.4592,0.504,0.5282,0.3653,0.1403,-0.1341,-0.3429,-0.4788,-0.5514,-0.5463,-0.5426,-0.5535,-0.5507,-0.4891,-0.4024,-0.5397,-0.5334,-0.4229,-0.3126,-0.2554,0.0,0.0,0.0,0.0,0.0,0.0,0.0,0.0,0.0,0.0,0.0,0.0,0.0,0.0,0.0,0.0,0.0,0.0,0.0,0.0,0.0,0.0,0.0,0.0,0.0,0.0,0.0,0.0,0.0,0.0,0.0,0.0,0.0,0.0,0.0,0.0,0.0,-1.0313,-1.5159,0.0,-1.6903,-1.8828,-2.0468,-2.111,-2.3139,-2.4625,-2.5094,-2.6286,-2.6799,-2.6577,-2.7399,-2.8059,-2.8385,-2.8591,-2.9106,-2.9792,-2.9792,-2.9792,-2.9792,-2.9792,-2.9792,-2.9779,-2.9402,-2.8721,-2.7904,-2.7004,-2.6504,-2.6256,-2.4873,-2.4418,-2.4648,-2.5111,-2.5499,-2.5952,0.0,0.0,0.0,0.0,0.0,0.0,0.0,0.0,0.6532,0.754,0.7947,0.8694,1.0258,0.9604,0.9235,0.9837,0.7958,0.6599,0.6294,0.5624,0.5009,0.4457,0.4914,0.5178,0.5009,0.327,0.1167,-0.1362,-0.4058,-0.5386,-0.5372,-0.5379,-0.5043,-0.45,-0.5133,-0.4748,-0.3745,-0.5547,-0.5451,-0.4045,-0.2466,-0.1595,-0.1176,0.0,0.0,0.0,0.0,0.0,0.0,0.0,0.0,0.0,0.0,0.0,0.0,0.0,0.0,0.0,0.0,0.0,0.0,0.0,0.0,0.0,0.0,0.0,0.0,0.0,0.0,0.0,0.0,0.0,0.0,0.0,0.0,0.0,0.0,-0.8806,-1.368,-1.3888,-1.939,-2.247,-2.0891,-2.2833,-2.4215,-2.4227,-2.5327,-2.606,-2.606,-2.7025,-2.7197,-2.6554,-2.7197,-2.7763,-2.8096,-2.8096,-2.8688,-2.9792,-2.9792,-2.9624,-2.9197,-2.9197,-2.904,-2.8688,-2.813,-2.7394,-2.6527,-2.535,-2.4935,-2.4974,-2.4269,-2.4676,-2.5492,-2.5492,-2.5944,-2.6477,0.0,0.0,0.0,0.0,0.0,0.0,0.0,0.5686,0.6558,0.7616,0.8653,0.9857,1.1217,1.0936,1.0838,1.1159,0.9225,0.8016,0.8143,0.7072,0.6379,0.6207,0.5736,0.5279,0.4926,0.2902,0.1267,0.0067,-0.3489,-0.5256,-0.5256,-0.5256,-0.43,-0.2681,-0.4365,-0.5136,-0.5157,-0.5751,-0.6033,-0.568,-0.1492,0.0157,0.0078,0.0,0.0,0.0,0.0,0.0,0.0,0.0,0.0,0.0,0.0,0.0,0.0,0.0,0.0,0.0,0.0,0.0,0.0,0.0,0.0,0.0,0.0,0.0,0.0,0.0,0.0,0.0,0.0,0.0,0.0,0.0,0.0,0.0,-0.8506,-1.3784,-1.7635,-1.7484,-2.3788,-2.6711,-2.303,-2.5994,-2.7484,-2.5949,-2.6203,-2.6483,-2.6483,-2.6483,-2.6472,-2.6472,-2.6472,-2.6964,-2.8004,-2.8004,-2.8597,-2.9714,-2.9714,-2.9118,-2.8016,-2.8072,-2.7418,-2.6427,-2.5981,-2.5419,-2.4859,-2.3444,-2.2524,-2.2027,-2.2999,-2.4036,-2.4933,-2.4933,-2.5511,-2.6214,0.0,0.0,0.0,0.0,0.0,0.0,0.0,0.5817,0.6795,0.8665,0.9429,1.0553,1.2455,1.2672,1.2752,1.2804,1.1212,0.9984,0.9376,0.7877,0.6643,0.5796,0.6162,0.6018,0.5256,0.3867,0.2536,0.1334,-0.0601,-0.1467,-0.1463,-0.1467,-0.1201,-0.0733,0.0135,0.0479,0.0489,0.0506,0.0521,0.0764,0.3893,0.4104,0.2667,0.0,0.0,0.0,0.0,0.0,0.0,0.0,0.0,0.0,0.0,0.0,0.0,0.0,0.0,0.0,0.0,0.0,0.0,0.0,0.0,0.0,0.0,0.0,0.0,0.0,0.0,0.0,0.0,0.0,0.0,0.0,-0.9542,-1.3553,-1.4996,-1.912,-2.2936,-2.5491,-2.7925,-2.8743,-2.729,-2.7693,-2.7624,-2.6363,-2.6405,-2.6483,-2.6483,-2.6483,-2.6141,-2.5294,-2.5294,-2.5368,-2.5692,-2.5703,-2.6284,-2.7395,-2.7395,-2.7221,-2.6953,-2.6588,-2.6256,-2.597,-2.5116,-2.4282,-2.3434,-2.2569,-2.1783,-2.1011,-2.1308,-2.1962,-2.285,-2.285,-2.3441,-2.4054,0.0,0.0,0.0,0.0,0.0,0.0,0.0,0.6072,0.7144,0.9566,1.05,1.1796,1.4174,1.4712,1.4839,1.4631,1.2922,1.1525,1.0589,0.8779,0.7582,0.7313,0.7257,0.6917,0.6141,0.4938,0.4,0.3332,0.2604,0.187,0.1131,0.1936,0.2272,0.2336,0.3349,0.3859,0.3861,0.4084,0.4257,0.4484,0.6215,0.6128,0.5067,0.477,0.4636,0.4489,0.3217,0.2716,0.2781,0.3014,0.0,0.0,0.0,0.0,0.0,0.0,0.0,0.0,0.0,0.0,0.0,0.0,0.0,0.0,0.0,0.0,0.0,0.0,0.0,0.0,0.0,0.0,0.0,0.0,-1.3789,-1.7842,-2.119,-2.3844,-2.6625,-2.9682,-2.9886,-2.9569,-2.9261,-2.7796,-2.668,-2.6114,-2.5423,-2.5062,-2.5062,-2.5062,-2.4808,-2.4135,-2.4125,-2.4296,-2.4787,-2.4787,-2.5378,-2.6483,-2.6483,-2.6124,-2.5502,-2.5218,-2.4746,-2.4115,-2.337,-2.2673,-2.2183,-2.1645,-2.0968,-2.0312,0.0,0.0,0.0,0.0,-2.2364,-2.2165,0.0,0.0,0.0,0.0,0.0,0.0,0.0,0.6283,0.7443,1.0266,1.1517,1.3191,1.5938,1.6712,1.6777,1.6133,1.4297,1.2682,1.1603,0.9721,0.9004,0.9694,0.88,0.8001,0.7339,0.624,0.5661,0.5672,0.5638,0.4831,0.334,0.497,0.5726,0.5722,0.5722,0.5729,0.5765,0.6005,0.6205,0.639,0.6794,0.7011,0.6906,0.5606,0.5301,0.5561,0.5175,0.432,0.3537,0.4477,0.0,0.0,0.0,0.0,0.0,0.0,0.0,0.0,0.0,0.0,0.0,0.0,0.0,0.0,0.0,0.0,0.0,0.0,0.0,0.0,0.0,0.0,0.0,0.0,-1.7269,-2.1088,-2.6083,-2.7515,-2.882,-3.0888,-3.0086,-2.9338,-2.9312,-2.691,-2.5326,-2.5249,-2.3887,-2.3047,-2.2862,-2.2862,0.0,0.0,0.0,-2.3367,-2.4436,-2.4532,-2.5136,-2.6141,-2.6097,-2.5348,-2.4033,-2.3928,-2.3114,-2.1787,-2.1348,-2.1152,-2.1123,-2.0732,-2.0226,-1.979,-2.0283,-2.0958,-2.1826,-2.2313,-2.1663,-2.055,0.0,0.0,0.0,0.0,0.0,0.0,0.0,0.6061,0.7266,1.0825,1.1676,1.3235,1.6625,1.7502,1.7329,1.6043,1.4832,1.3245,1.1069,1.0947,1.0786,1.0421,1.0167,0.9662,0.8798,0.7931,0.7497,0.7502,0.7042,0.6841,0.6967,0.7807,0.7882,0.7517,0.7517,0.7607,0.7851,0.7966,0.8241,0.8505,0.8976,0.8176,0.6805,0.6652,0.6786,0.7034,0.7265,0.6815,0.6101,0.6283,0.6398,0.6244,0.5391,0.5201,0.0,0.0,0.0,0.0,0.0,0.0,0.0,0.0,0.0,0.0,0.0,0.0,0.0,0.0,0.0,0.0,0.0,0.0,0.0,-1.4175,-1.8386,-2.2438,-2.5673,-2.7585,-2.8869,-2.9659,-2.8752,-2.7899,-2.7424,-2.6172,-2.5073,-2.4128,-2.3467,-2.2677,-2.1658,-2.1667,-2.1212,-2.0223,-2.1123,-2.1738,-2.1994,-2.2911,-2.356,-2.3714,-2.3458,0.0,-2.2809,-2.2106,-2.1587,-2.1338,-2.0889,-2.0693,-2.0684,-2.0596,-1.9908,-1.8803,-1.9331,-1.9885,-2.0272,-2.0066,-1.9855,-1.9499,0.0,0.0,0.0,0.0,0.0,0.0,0.0,0.6079,0.6987,0.9874,1.0578,1.1912,1.4874,1.5774,1.5802,1.4983,1.4111,1.3204,1.2308,1.2503,1.2954,1.3485,1.2754,1.2104,1.1645,1.0497,0.9648,0.9227,0.8495,0.812,0.8027,0.8247,0.8309,0.819,0.819,0.8379,0.8605,0.8765,0.8929,0.9144,0.9525,0.9115,0.8345,0.8627,0.8856,0.9018,0.8762,0.8421,0.8051,0.7587,0.7376,0.7124,0.6276,0.6089,0.6143,0.0,0.0,0.0,0.0,0.0,0.0,0.0,0.0,0.0,0.0,0.0,0.0,0.0,0.0,-0.4367,-0.729,0.0,-1.2894,-1.6793,-1.9754,-2.2144,-2.3971,-2.5262,-2.7025,-2.973,-2.8839,-2.7854,-2.7547,-2.6198,-2.4673,-2.3268,-2.2781,-2.1896,-2.0494,-2.0395,-2.0124,-1.9497,-2.0124,-2.0395,-2.0395,-2.1578,-2.2217,-2.2208,-2.1891,-2.1589,-2.1278,-2.0163,-1.9453,-1.9245,-1.9038,-1.8948,-1.8921,-1.8583,-1.7988,-1.7453,-1.7324,-1.7788,-1.8497,-1.83,-1.839,-1.8623,0.0,0.0,0.0,0.0,0.0,0.0,0.0,0.6181,0.677,0.8919,0.9454,1.057,1.3014,1.3745,1.3888,1.3395,1.2921,1.2866,1.3401,1.4039,1.5099,1.6622,1.5414,1.4762,1.4762,1.3057,1.1874,1.121,1.0322,0.9666,0.9104,0.9104,0.9242,0.9545,0.9545,0.9684,0.9933,1.0147,1.0292,1.0425,1.0806,1.1055,1.1301,1.1634,1.1348,1.0706,0.992,0.9742,0.9748,0.8985,0.884,0.8802,0.8001,0.7566,0.7504,0.789,0.7749,0.0,0.0,0.0,0.0,0.0,0.0,0.0,0.0,0.0,-0.1915,-0.3705,-0.4867,-0.6782,-1.0625,-1.1981,-1.4028,-1.861,-2.0194,-2.1121,-2.2233,-2.2885,-2.4854,-2.8842,-2.7986,-2.7049,-2.7049,-2.5411,-2.3709,-2.2339,-2.1862,-2.0911,-1.9247,-1.9131,-1.9039,-1.8764,-1.9039,-1.9131,-1.9131,-2.0305,-2.0935,-2.0935,-2.0633,-2.0241,-1.9849,-1.8549,-1.7689,-1.7342,-1.7342,-1.7342,-1.7203,-1.6525,-1.6144,-1.6002,-1.5227,-1.556,-1.6552,-1.6776,-1.7031,-1.7387,0.0,0.0,0.0,0.0,0.0,0.0,0.0,0.0,0.6941,0.9549,0.9666,1.0512,1.3161,1.3634,1.3081,1.1466,1.1902,1.2277,1.2348,1.5129,1.702,1.7639,1.725,1.7049,1.7049,1.4907,1.3809,1.3681,1.2959,1.2717,1.2949,1.2949,1.3204,1.3671,1.3671,1.3798,1.4058,1.4029,1.4473,1.5072,1.538,1.5745,1.6173,1.6379,1.4128,1.0801,1.1019,1.114,1.1257,1.139,1.1477,1.1555,1.1875,1.15,1.1082,1.205,0.0,0.9598,1.0836,0.9343,0.652,0.284,0.2055,0.2338,0.0,0.0,-0.4621,-0.7926,-0.9486,-1.0389,-1.1207,-1.2284,-1.4018,-1.6517,-1.8094,-1.9668,-2.1429,-2.2847,-2.3961,-2.4564,-2.3542,-2.2817,-2.2817,-2.1938,-2.1243,-2.0883,-2.0429,-1.9503,-1.7978,-1.787,-1.7404,-1.6285,-1.7311,-1.787,-1.787,-1.9131,-1.967,-1.967,-1.9206,-1.885,-1.8571,-1.8052,-1.7598,-1.7342,-1.7342,-1.7342,-1.7203,-1.6525,-1.5695,-1.4881,-1.4147,-1.3977,-1.4232,-1.5078,-1.527,-1.5087,0.0,0.0,0.0,0.0,0.0,0.0,0.0,0.0,0.0,0.7537,0.7635,0.8237,0.9781,1.0466,1.0437,0.9632,1.1094,1.2422,1.3325,1.6112,1.8267,1.9473,1.9371,1.9255,1.9255,1.7571,1.6496,1.6017,1.5311,1.4968,1.498,1.498,1.5088,1.5261,1.5261,1.5283,1.5317,1.5317,1.568,1.618,1.647,1.671,1.6988,1.7506,1.6366,1.449,1.3848,1.353,0.0,1.2537,1.2521,1.2696,1.2671,1.2478,1.2479,1.3054,1.2704,0.0,1.2659,1.1368,0.9232,0.0,0.5324,0.41,0.2522,0.0551,-0.2441,-0.7954,-0.9595,-1.0048,-1.0189,-1.0833,-1.1983,-1.4157,-1.5476,-1.6687,-1.7382,-1.7937,-1.8275,-1.8275,-1.7676,-1.8614,-2.2071,-2.1857,-2.0972,-1.9842,-1.94,-1.849,-1.695,-1.6672,-1.6001,-1.4752,-1.59,-1.6278,-1.5494,-1.7468,-1.8394,-1.8175,-1.783,-1.7494,-1.7141,-1.6154,-1.5602,-1.547,-1.547,-1.5367,-1.5072,-1.469,-1.4156,-1.3564,-1.3047,-1.2879,-1.3025,-1.3954,-1.464,-1.4969,0.0,0.0,0.0,0.0,0.0,0.0,0.0,0.0,0.0,0.0,0.6205,0.6556,0.7245,0.7938,0.8349,0.8357,1.0317,1.2225,1.3807,1.6798,1.9262,2.098,2.1401,2.1531,2.1417,2.0051,1.9123,1.8549,1.7655,1.7388,1.7627,1.7428,1.7435,1.7715,1.7715,1.7665,1.755,1.755,1.7779,1.8248,1.8586,1.8806,1.8962,1.9307,1.9172,1.8619,1.7074,1.6202,1.5551,1.4966,1.4952,1.5006,1.4788,1.4682,1.4767,1.5149,1.5348,1.5411,1.4977,1.415,0.0,1.0806,0.8729,0.6377,0.3267,0.2157,0.0345,-0.5251,-0.7159,-0.7864,-0.8079,-0.8374,-0.9271,-1.1691,-1.2786,-1.3512,-1.4113,-1.4305,-1.4533,-1.4893,-1.4307,-1.5453,-1.9477,-1.9552,-1.8869,-1.7489,-1.7155,-1.648,-1.5174,-1.4871,-1.4268,-1.3392,-1.4268,-1.4274,-1.3392,-1.5126,-1.591,-1.567,-1.5749,-1.5623,-1.5297,-1.4362,-1.3968,-1.3968,-1.3968,-1.3841,-1.3539,-1.3327,-1.287,-1.233,-1.2032,-1.17,-1.162,-1.2565,-1.3395,-1.4128,0.0,0.0,0.0,0.0,0.0,0.0,0.0,0.0,0.0,0.0,0.0,0.0,0.0,0.7405,0.7648,0.7912,0.9597,1.1368,1.311,1.701,1.9969,2.1624,2.3218,2.3865,2.3432,2.203,2.1355,2.148,2.0015,2.0118,2.1738,2.0986,2.1115,2.198,2.198,2.2002,2.2024,2.2024,2.2316,2.2749,2.3301,2.3709,2.4002,2.3121,2.2783,2.2423,2.0218,1.9006,1.8638,1.9705,1.9985,1.9813,1.9973,1.9586,0.0,1.9722,1.9554,1.8927,1.8,1.7751,1.6837,1.2936,1.09,0.8866,0.5487,0.4029,0.2559,0.0244,-0.1954,-0.3788,-0.4787,-0.5037,-0.6134,-0.9418,-0.9906,-1.0624,-1.2769,-1.3976,-1.4977,-1.607,-1.4948,-1.3769,-1.2779,-1.3267,-1.3397,-1.2843,-1.2797,-1.2607,-1.2078,-1.2047,-1.2042,-1.1945,-1.2042,-1.2042,-1.1945,-1.1919,-1.1895,-1.1884,-1.2871,-1.3159,-1.2961,-1.34,-1.3661,-1.3661,-1.3661,-1.3654,-1.3539,-1.3327,-1.2393,-1.1242,-1.097,-1.0265,-0.9523,-1.0484,-1.1128,-1.1518,0.0,0.0,0.0,0.0,0.0,0.0,0.0,0.0,0.0,0.0,0.0,0.0,0.0,0.0,0.0,0.0,0.9165,1.0787,1.2485,1.6427,1.953,2.1409,2.3909,2.5297,2.5362,2.4728,2.4225,2.3866,2.3611,2.3783,2.4306,2.4484,2.454,2.4457,2.4457,2.4174,2.3711,2.3711,2.4016,2.4438,2.4608,2.4562,2.4265,2.4292,2.3924,2.3475,0.0,2.2283,2.0671,2.0937,2.1036,2.1125,2.0895,2.0575,2.0391,2.0684,2.0462,1.9898,1.9092,1.8075,1.6736,1.5206,1.221,0.9433,0.8187,0.7793,0.7368,0.6684,0.3768,0.1269,0.1167,0.0459,-0.091,-0.3371,-0.3552,-0.4452,-0.7198,-0.723,-0.7367,-0.8608,-0.8094,-0.7552,-0.7169,-1.0839,-1.3535,-1.397,-1.2567,-1.1582,-1.1449,-1.1722,-1.1556,-1.0681,-1.1419,-1.134,-1.0482,-1.1214,-1.1415,-1.1112,-1.1866,-1.2141,-1.204,-1.2282,-1.196,-1.1381,-1.1381,-1.1381,-1.1358,-1.1033,-1.0639,-1.0151,-0.991,-0.9593,-0.9372,-0.9669,-0.9666,-0.9742,0.0,0.0,0.0,0.0,0.0,0.0,0.0,0.0,0.0,0.0,0.0,0.0,0.0,0.0,0.0,0.0,0.0,1.0136,1.2086,1.5606,1.8569,2.0702,2.3369,2.4952,2.5145,2.5195,2.5061,2.4771,2.5362,2.5979,2.6658,2.6918,2.7124,2.7163,2.7183,2.6892,2.6417,2.6031,2.6142,2.6552,2.6187,2.5991,2.5941,2.5683,2.5694,0.0,2.5658,2.4884,2.3734,2.3187,2.2922,2.284,2.2366,2.1927,2.1604,2.1838,2.165,2.104,2.0078,1.904,1.7873,1.6356,1.3934,1.1925,1.1105,1.0646,1.0274,0.9811,0.8052,0.6798,0.6842,0.5636,0.4251,0.3471,0.2801,0.1388,-0.1297,-0.0927,-0.1033,-0.3034,-0.225,-0.1858,-0.2829,-0.8252,-1.1648,-1.149,-1.0076,-0.9493,-1.005,-1.028,-1.0087,-0.9221,-0.9905,-0.9806,-0.9056,-0.9635,-0.9925,-0.9936,-1.0331,-1.0718,-1.0959,-1.0959,-1.0641,-0.9997,-0.9997,-0.9997,-0.9987,-0.9764,-0.9423,-0.9029,-0.8818,-0.8542,-0.8237,-0.8618,-0.8324,-0.795,0.0,0.0,0.0,0.0,0.0,0.0,0.0,0.0,0.0,0.0,0.0,0.0,0.0,0.0,0.0,0.0,0.0,0.0,1.1787,1.4714,1.7311,1.9556,2.1862,2.3157,2.3256,2.3765,2.4178,2.4467,2.5343,2.6699,2.85,2.813,2.8627,2.9748,2.9736,2.9794,2.9679,2.8627,2.8568,2.9026,2.8026,2.8092,2.8737,2.7472,2.8036,2.9186,2.6701,2.6612,2.7424,2.628,2.5548,2.4921,2.4319,2.3545,2.2919,2.3269,2.3176,2.2534,2.1164,2.0792,2.0054,1.6725,1.5987,1.5827,1.4235,1.2652,1.1278,1.0082,1.1073,1.2107,0.0,0.0,0.9378,1.0465,0.8667,0.6536,0.4862,0.4849,0.3678,0.0577,0.2535,0.3202,0.065,-0.4996,-0.7648,-0.5551,-0.566,-0.6438,-0.7949,-0.7896,-0.7811,-0.7811,-0.7665,-0.7587,-0.7587,-0.7275,-0.7479,-0.8384,-0.8376,-0.876,-0.961,-0.961,-0.961,-0.9531,-0.9531,-0.9531,-0.9531,-0.9531,-0.8791,-0.7706,-0.7693,-0.7161,-0.6402,-0.7379,-0.6961,-0.6205,0.0,0.0,0.0,0.0,0.0,0.0,0.0,0.0,0.0,0.0,0.0,0.0,0.0,0.0,0.0,0.0,0.0,0.0,1.1125,1.4655,1.7319,1.8676,2.1759,2.4032,2.5224,2.5648,2.5716,2.5517,2.6313,2.6419,2.5956,2.6228,2.6461,2.6615,2.6368,2.6465,2.6829,2.6992,2.7534,2.8357,2.8612,2.873,2.8677,2.8808,2.8473,2.8027,2.7952,2.766,0.0,0.0,0.0,0.0,2.4249,2.3913,2.3647,2.3444,2.2848,2.2105,2.1599,2.1174,2.0416,1.8805,1.7836,1.7047,1.6932,1.4751,1.3221,1.4495,1.4254,1.3784,1.3906,1.3483,1.2742,1.1616,1.1661,1.1961,1.2565,1.131,0.0,0.6863,0.0,0.6992,0.6105,0.0926,-0.2014,-0.1512,-0.5159,-0.7607,-0.7979,-0.7906,-0.7811,-0.7811,-0.7563,-0.7431,-0.7431,-0.7021,-0.7206,-0.8112,-0.7981,-0.8048,-0.8308,-0.8308,-0.785,-0.7161,-0.7161,-0.7161,-0.7161,-0.7161,-0.6983,-0.6707,-0.6507,-0.631,-0.6074,-0.625,-0.6039,-0.5765,0.0,0.0,0.0,0.0,0.0,0.0,0.0,0.0,0.0,0.0,0.0,0.0,0.0,0.0,0.0,0.0,0.0,0.0,0.0,1.4104,1.6323,1.7448,2.0096,2.2176,2.3562,2.4133,2.4488,2.4746,2.5468,2.5683,2.5428,2.5496,2.5589,2.5712,2.5589,2.5763,2.6134,2.6147,2.6876,0.0,0.0,2.7998,2.8545,2.8692,2.8651,2.8473,0.0,0.0,0.0,0.0,0.0,2.5116,2.4176,2.3636,2.3356,2.3309,0.0,2.2432,2.1887,2.1617,2.1218,2.0145,1.9291,1.8702,1.8628,1.7001,1.5871,1.6725,1.6487,1.6111,1.5845,1.5697,1.5211,0.0,0.0,0.0,1.4859,1.3959,1.2596,0.0,1.0477,0.0,0.8297,0.5997,0.3889,0.1903,-0.2107,-0.5541,-0.7879,-0.7858,-0.7723,-0.7719,-0.7366,-0.7112,-0.6976,-0.6725,-0.6844,-0.723,-0.7142,-0.7176,-0.7176,-0.7176,-0.6872,-0.6257,-0.619,-0.6159,-0.6156,-0.6088,-0.6139,-0.6136,-0.6046,-0.5945,-0.5868,-0.5854,-0.5732,-0.5676,0.0,0.0,0.0,0.0,0.0,0.0,0.0,0.0,0.0,0.0,0.0,0.0,0.0,0.0,0.0,0.0,0.0,0.0,0.0,0.0,0.0,1.6087,1.7824,1.9281,2.0419,2.1214,2.2086,2.3074,2.3594,2.4322,2.5208,2.4621,2.463,2.5137,2.5171,2.5447,2.5835,2.5272,2.5902,2.7215,2.6092,2.6703,2.8251,0.0,0.0,0.0,0.0,0.0,0.0,0.0,2.6685,2.5764,2.4512,2.3667,2.3176,2.3553,2.3569,2.3223,2.2388,2.2373,2.2178,2.0878,2.0599,2.0417,1.9812,1.9252,1.8611,1.829,1.8599,1.8689,1.7802,1.7576,1.7339,1.6831,0.0,1.5262,1.5099,1.5326,1.4932,1.363,1.3216,1.1943,0.9127,0.9855,0.9053,0.5214,0.2502,-0.1299,-0.662,-0.7478,-0.7684,-0.7522,-0.7119,-0.677,-0.6565,-0.6561,-0.6486,-0.6264,-0.6264,-0.6264,-0.6338,-0.6338,-0.6251,-0.6224,-0.6091,-0.602,-0.5993,-0.5861,-0.5888,-0.5971,-0.5728,-0.5512,-0.545,-0.5431,-0.5406,-0.5421,0.0,0.0,0.0,0.0,0.0,0.0,0.0,0.0,0.0,0.0,0.8425,0.8714,0.0,0.0,0.0,0.0,0.0,0.0,0.0,0.0,0.0,0.0,1.7063,1.8694,2.0236,2.0714,2.127,2.1874,2.1501,2.1243,2.1114,2.0181,2.0045,2.0509,2.0043,2.0471,2.1508,2.1993,2.3033,2.4348,2.5408,2.6295,2.7066,0.0,0.0,0.0,0.0,0.0,0.0,0.0,2.7174,2.7575,2.6862,2.6579,2.6517,2.651,2.5636,2.4478,2.4282,2.3602,2.2716,2.1758,2.156,2.1529,2.1311,2.0747,0.0,0.0,2.1761,2.1302,2.1214,2.0828,2.0397,1.9808,2.0081,2.002,1.938,2.0142,1.9445,0.0,1.5655,1.455,1.1754,1.095,1.0262,0.9537,0.7508,0.4004,-0.1077,-0.5588,-0.7759,-0.7193,-0.6892,-0.6698,-0.6683,-0.668,-0.6517,-0.6274,-0.6274,-0.6271,-0.6338,-0.6338,-0.6193,-0.6067,-0.6207,-0.6127,-0.6006,-0.5847,-0.5844,-0.5686,-0.4189,-0.3587,-0.3508,-0.3293,-0.3205,-0.3257,0.0,0.0,0.0,0.0,0.0,0.0,0.0,0.8158,0.8429,0.7983,0.8778,0.9372,0.9358,0.9792,1.0352,0.0,0.0,0.0,0.0,0.0,0.0,0.0,0.0,0.0,1.8914,1.9291,1.9937,2.0782,0.0,1.9627,1.9934,1.9002,1.8768,1.9187,1.9127,1.9498,2.017,2.0834,2.1897,2.311,2.4039,2.4951,0.0,0.0,0.0,0.0,0.0,0.0,0.0,0.0,2.8437,2.9356,2.7474,2.6914,2.6986,2.7497,2.6678,2.5786,2.6289,2.5241,2.3917,2.3496,2.2955,2.2391,2.2275,0.0,0.0,0.0,2.3156,2.2816,2.2376,2.1731,0.0,1.9946,2.0872,2.1432,2.0771,2.1499,2.1491,2.0099,1.9159,1.7591,1.4867,1.4593,1.3466,1.1058,1.0472,0.7658,0.1555,-0.2908,-0.5223,-0.5304,-0.5181,-0.4981,-0.4862,-0.4862,-0.4752,-0.4616,-0.5727,-0.6325,-0.6325,-0.6325,-0.6238,-0.6162,-0.6085,-0.5418,-0.4482,-0.4284,-0.4726,-0.5508,-0.4605,-0.3129,-0.144,-0.1355,-0.1272,-0.1445,0.0,0.0,0.0,0.0,0.0,0.0,0.0,0.8364,0.8632,0.8074,0.9078,0.9788,0.9676,1.0108,1.0705,0.0,0.0,0.0,0.0,0.0,0.0,0.0,0.0,0.0,0.0,0.0,0.0,1.9515,1.8611,0.0,0.0,0.0,0.0,0.0,1.9301,1.9581,1.9808,2.0301,2.1091,0.0,0.0,2.3323,0.0,0.0,0.0,0.0,0.0,0.0,0.0,0.0,2.9119,3.0212,2.798,2.7556,2.8099,2.8755,2.8299,2.7613,2.81,2.6909,2.5419,2.5199,2.4296,2.3373,2.3234,2.3662,0.0,2.3707,2.3733,2.3555,2.2719,2.1849,2.0928,0.0,2.0868,2.1821,2.162,2.2371,2.3133,2.3486,2.2436,0.0,1.7921,1.8181,1.6677,1.2434,1.2282,0.9731,0.3618,0.027,-0.1718,-0.2161,-0.2182,-0.2132,-0.1858,-0.2234,-0.2461,-0.2536,-0.4164,-0.5208,-0.5647,-0.5647,-0.5648,-0.5649,-0.5825,-0.5038,-0.3528,-0.2554,-0.2958,-0.4212,-0.4252,-0.2524,-0.0,-0.0,-0.0,-0.0183,0.0,0.0,0.0,0.0,0.0,0.0,0.0,0.8733,0.8994,0.9213,0.9244,0.9416,0.9768,1.0623,1.1384,0.0,0.0,0.0,0.0,0.0,0.0,0.0,0.0,0.0,0.0,0.0,0.0,1.7991,1.7617,0.0,0.0,0.0,0.0,0.0,0.0,1.9003,1.9387,1.9533,0.0,0.0,0.0,0.0,0.0,0.0,0.0,0.0,0.0,0.0,0.0,0.0,0.0,2.8917,2.9593,3.1175,3.2719,3.2535,0.0,0.0,2.958,2.8482,2.7393,2.6532,2.5462,2.467,2.4678,0.0,2.3838,2.4132,2.3706,2.3232,2.2975,2.2082,2.1178,0.0,2.161,2.2672,2.3242,2.5056,2.592,2.4661,0.0,2.3606,2.0431,1.9768,1.838,1.5369,1.2909,0.9979,0.6532,0.3886,0.2525,0.2514,0.2254,0.2121,0.2193,0.0517,-0.0438,-0.0657,-0.0585,-0.1534,-0.3429,-0.3429,-0.3379,-0.3506,-0.5427,-0.5844,-0.494,-0.1638,-0.0323,-0.0515,-0.0501,-0.031,-0.0,-0.0,-0.0,-0.0,0.0,0.0,0.0,0.0,0.0,0.0,0.9404,0.9559,0.9673,0.9701,1.02,1.0498,1.0286,1.0797,1.1175,1.1175,0.0,0.0,0.0,0.0,0.0,0.0,0.0,0.0,0.0,0.0,1.6255,1.6848,1.6609,0.0,0.0,0.0,0.0,0.0,0.0,1.9032,1.914,1.937,0.0,0.0,0.0,0.0,0.0,0.0,0.0,0.0,0.0,0.0,2.5709,0.0,0.0,0.0,2.9105,3.069,0.0,0.0,3.2846,3.1879,3.2667,3.1414,2.9682,2.9337,2.7454,2.5844,2.655,0.0,2.413,2.4752,2.4006,2.3055,2.2697,2.1696,2.0488,1.9073,2.0104,2.1049,2.1029,2.3633,2.5721,2.6202,2.6615,2.5827,2.3199,2.1553,1.9167,1.5764,1.3712,1.175,0.9792,0.672,0.4972,0.4744,0.4623,0.4515,0.4291,0.3584,0.2616,0.1449,0.1596,0.1222,0.0354,-0.0708,-0.1258,-0.1292,-0.215,-0.1325,0.0522,0.0127,-0.0,-0.0,-0.0,-0.0,-0.0,-0.0,-0.0,-0.0,0.0,0.0,0.0,0.0,0.0,0.9951,1.0149,1.0327,1.0393,1.0423,1.1107,1.1438,1.0988,1.1163,1.1167,1.0873,1.1039,0.0,0.0,0.0,0.0,0.0,0.0,0.0,0.0,0.0,1.5417,1.5938,1.5875,1.6114,0.0,0.0,1.7342,1.7952,0.0,0.0,0.0,0.0,0.0,0.0,0.0,0.0,0.0,0.0,0.0,0.0,0.0,0.0,0.0,0.0,0.0,0.0,0.0,0.0,0.0,0.0,3.3585,3.3235,3.4821,3.3955,3.2471,3.1959,2.9691,2.7703,0.0,0.0,2.4538,2.5209,2.4079,2.2766,2.2139,2.1249,1.989,1.7658,1.8379,1.916,1.9064,2.1475,2.3929,2.591,2.6077,2.5328,2.3398,2.1203,1.8734,1.6217,1.4497,1.3204,1.2381,0.9104,0.708,0.6614,0.627,0.5976,0.5761,0.5474,0.4663,0.3397,0.3399,0.3366,0.3303,0.2021,0.1132,0.0652,0.0192,0.1464,0.3692,0.2037,0.078,-0.0,-0.0,-0.0,-0.0,-0.0,0.0561,0.1345,0.0,0.0,0.0,0.0,0.0,0.0,1.0731,1.0798,1.1075,1.1621,1.1799,1.1855,1.1674,1.1669,1.1575,1.1223,1.0878,0.0,0.0,0.0,0.0,0.0,0.0,0.0,0.0,0.0,1.446,1.542,1.542,1.57,1.6301,1.6652,1.6877,1.7067,0.0,0.0,0.0,0.0,0.0,0.0,0.0,0.0,0.0,0.0,0.0,0.0,0.0,0.0,0.0,0.0,0.0,0.0,0.0,0.0,0.0,0.0,3.3859,3.4894,3.5153,3.578,3.5937,3.4199,3.2234,3.0483,0.0,2.7173,2.4933,2.5331,2.3784,2.2173,2.136,2.0756,1.9535,1.677,1.6775,1.7433,1.8363,1.9104,2.0494,2.3056,2.2323,2.1232,2.0119,1.7997,1.6843,1.7356,1.5309,1.4098,1.409,1.1249,0.9293,0.8403,0.7252,0.6658,0.6658,0.5645,0.5074,0.5071,0.4958,0.49,0.4897,0.4836,0.3891,0.209,0.0615,0.0861,0.2332,0.3841,0.2716,-0.0,-0.0,-0.0,-0.0,-0.0,0.1906,0.4455,0.0,0.0,0.0,0.0,0.0,0.0,0.0,1.159,1.1874,1.2339,1.2426,1.2425,1.2412,1.2103,1.1844,1.178,1.1422,0.0,0.0,0.0,0.0,0.0,0.0,0.0,0.0,0.0,1.5034,1.5377,1.5282,1.5293,1.542,1.5439,1.5671,1.5921,1.5985,1.6089,0.0,0.0,0.0,0.0,0.0,0.0,0.0,0.0,0.0,0.0,0.0,0.0,0.0,0.0,0.0,0.0,0.0,0.0,0.0,0.0,0.0,0.0,3.4592,3.4773,3.441,3.3853,3.2077,3.0397,3.0108,2.7539,2.5198,2.4861,2.3329,2.1849,2.1134,2.012,1.8792,1.7143,1.6797,1.6741,1.6596,1.7664,1.9223,2.1162,2.1351,2.066,1.8859,1.7187,1.6035,1.5687,1.4481,1.3412,1.2593,1.1658,1.0594,0.9344,0.7962,0.6971,0.6472,0.5994,0.5468,0.4985,0.4928,0.4928,0.4867,0.4874,0.4504,0.3936,0.3313,0.3342,0.3806,0.4282,0.3529,0.1922,0.0561,-0.0,0.0224,0.23,0.3658,0.4511,0.0,0.0,0.0,0.0,0.0,0.0,0.0,1.2126,1.2421,1.2735,1.2774,1.2832,1.2897,1.2507,1.2246,1.2344,1.2104,0.0,0.0,0.0,0.0,0.0,0.0,0.0,0.0,1.4883,1.4943,1.5245,1.5147,1.5098,1.5088,1.501,1.5059,1.5059,1.4787,1.4709,0.0,0.0,0.0,0.0,0.0,0.0,1.7083,0.0,0.0,0.0,0.0,0.0,0.0,0.0,0.0,0.0,0.0,0.0,0.0,0.0,2.9054,3.1094,0.0,3.4716,3.4601,3.4266,3.2643,0.0,0.0,2.7755,2.5289,2.4106,2.2673,2.1342,2.024,1.8953,1.7666,1.6763,1.6063,1.5531,1.5297,1.4378,1.3678,1.3374,1.4505,1.4959,1.3907,1.3981,1.4038,1.3873,1.3547,1.3034,1.2316,1.1185,1.0177,0.925,0.8353,0.7527,0.6661,0.6108,0.5436,0.4748,0.4748,0.4748,0.4748,0.4693,0.4696,0.4689,0.4551,0.4508,0.0,0.4472,0.4147,0.3458,0.2176,0.1339,0.106,0.2912,0.399,0.4501,0.0,0.0,0.0,0.0,0.0,0.0,0.0,1.2431,1.2725,1.2881,1.292,1.3027,1.3253,1.2889,1.269,1.2894,0.0,0.0,0.0,0.0,0.0,0.0,0.0,0.0,1.4961,1.441,1.441,1.497,1.4942,1.4942,1.5098,1.5001,1.4756,1.435,1.3974,1.3502,0.0,0.0,0.0,0.0,0.0,0.0,0.0,0.0,0.0,0.0,0.0,0.0,0.0,0.0,0.0,0.0,0.0,0.0,0.0,0.0,0.0,0.0,0.0,3.4912,3.5701,3.4888,3.3315,3.1566,0.0,0.0,0.0,0.0,2.1885,2.0665,1.8988,1.7497,1.6364,1.5932,1.4948,1.4223,1.4081,0.9704,0.5288,0.2022,0.3843,0.5811,0.6841,0.903,1.0684,1.1466,1.2026,1.2336,1.248,0.981,0.8326,0.8397,0.8504,0.8062,0.7038,0.6023,0.5164,0.457,0.4515,0.4515,0.457,0.4515,0.4519,0.4519,0.4463,0.4463,0.4519,0.4473,0.4473,0.4463,0.4477,0.3622,0.2327,0.2332,0.3229,0.4467,0.0,0.0,0.0,0.0,0.0,0.0,0.0,0.0,0.0,0.0,1.2676,1.278,1.3183,1.2929,1.2829,0.0,0.0,0.0,0.0,0.0,0.0,0.0,0.0,0.0,1.4597,1.4749,1.4808,1.4775,1.4234,1.4068,1.4121,1.316,1.2761,1.2781,1.2035,1.1731,0.0,0.0,0.0,0.0,0.0,0.0,0.0,0.0,0.0,0.0,1.7375,1.8136,0.0,0.0,0.0,0.0,0.0,0.0,0.0,0.0,2.5351,2.6993,2.9117,0.0,3.1551,3.09,3.0138,2.921,0.0,0.0,0.0,0.0,0.0,0.0,0.0,1.7457,1.645,1.6567,1.592,1.4218,1.0564,0.6256,0.3346,0.3053,0.3066,0.4508,0.8254,0.5868,0.469,0.6032,0.5632,0.592,0.7225,0.6588,0.6666,0.7717,0.7758,0.7297,0.6297,0.575,0.5433,0.5273,0.4732,0.4787,0.5273,0.4732,0.4519,0.4512,0.4348,0.4365,0.4508,0.4348,0.4251,0.4251,0.4261,0.4033,0.3737,0.3735,0.3937,0.4277,0.0,0.0,0.0,0.0,0.0,0.0,0.0,0.0,0.0,0.0,0.0,1.2972,1.3534,1.3249,0.0,0.0,0.0,0.0,0.0,0.0,0.0,0.0,0.0,1.3992,1.4052,1.4181,1.415,1.3893,1.3389,1.3223,1.3431,1.2689,1.2254,1.2042,1.086,1.0388,0.0,0.0,0.0,0.0,1.0912,0.0,0.0,0.0,0.0,0.0,1.6436,1.7098,0.0,1.8632,1.9049,1.9308,0.0,0.0,0.0,0.0,2.4392,2.5921,2.6635,2.8349,2.9928,2.9801,2.9025,2.8071,2.706,0.0,0.0,0.0,0.0,0.0,0.0,0.0,1.5639,1.5363,1.1531,0.7395,0.3773,0.2458,0.1227,-0.0533,-0.0261,0.0632,0.2026,0.0798,0.0241,0.1089,-0.0469,-0.0708,0.0806,0.1398,0.2383,0.3987,0.4498,0.5133,0.5944,0.578,0.5445,0.5058,0.468,0.4677,0.5003,0.468,0.4519,0.4512,0.4696,0.4617,0.4358,0.459,0.4462,0.4093,0.4097,0.4104,0.4093,0.4121,0.41,0.411,0.0,0.0,0.0,0.0,0.0,0.0,0.0,0.0,0.0,0.0,0.0,0.0,0.0,0.0,0.0,0.0,0.0,0.0,0.0,0.0,0.0,0.0,0.0,1.3268,1.339,1.3321,1.3169,1.2964,1.2614,1.2555,1.2781,1.2555,1.209,1.1353,1.0151,0.941,0.0,0.0,0.0,0.0,0.9591,0.0,0.0,0.0,0.0,0.0,0.0,0.0,0.0,1.7424,1.7952,1.8261,1.9422,0.0,0.0,0.0,0.0,0.0,2.4687,2.6509,2.8571,2.92,2.8216,2.6971,2.6356,0.0,0.0,0.0,0.0,0.0,0.0,1.5598,0.0,1.3044,0.5214,-0.1739,-0.4637,-0.3206,-0.306,-0.6149,-0.5116,-0.4616,-0.5859,-0.4502,-0.3522,-0.3246,-0.5208,-0.5951,-0.4802,-0.3696,-0.2391,-0.0724,0.0723,0.272,0.5293,0.5576,0.5352,0.4625,0.4574,0.457,0.4625,0.4574,0.4519,0.4515,0.5054,0.4862,0.4243,0.4809,0.465,0.3985,0.3985,0.3972,0.3955,0.3978,0.3985,0.3988,0.0,0.0,0.0,0.0,0.0,0.0,0.0,0.0,0.0,0.0,0.0,0.0,0.0,0.0,0.0,0.0,0.0,0.0,0.0,0.0,0.0,1.2251,1.2683,1.2911,1.2895,1.3009,1.2984,1.2805,1.2519,1.2095,1.1744,1.1112,1.0443,0.9741,0.9611,0.9259,0.8797,0.8571,0.8644,0.8941,0.8904,0.0,0.0,0.0,0.0,0.0,0.0,0.0,0.0,1.6343,1.6521,1.6736,1.8165,0.0,0.0,0.0,0.0,0.0,2.2355,2.267,2.3487,2.5177,2.4551,2.3541,2.358,0.0,0.0,0.0,0.0,0.0,0.0,1.4546,1.1739,1.0314,0.1903,-0.6587,-1.2598,-1.4913,-1.4541,-1.0729,-1.1193,-1.0099,-0.5658,-0.7009,-0.7599,-0.6122,-0.5804,-0.5686,-0.5682,-0.479,-0.4116,-0.3825,-0.0335,0.19,0.2785,0.4076,0.4908,0.5324,0.4787,0.4787,0.5324,0.4732,0.4519,0.4505,0.4299,0.4196,0.4174,0.4063,0.3941,0.3826,0.3826,0.3751,0.3663,0.3782,0.3826,0.3846,0.0,0.0,0.0,0.0,0.0,0.0,0.0,0.0,0.0,0.0,0.0,0.0,0.0,0.0,0.0,0.0,0.0,0.0,0.0,0.0,1.1809,1.1809,1.1934,1.2112,1.2421,1.229,1.2135,1.2009,1.1742,1.1594,1.1545,1.0985,1.0302,0.9542,0.9421,0.9061,0.8558,0.8468,0.8581,0.8859,0.0,0.0,0.0,0.0,0.0,0.0,0.0,0.0,0.0,0.0,1.5438,1.5477,1.7388,0.0,0.0,0.0,0.0,0.0,2.0484,2.044,2.0564,2.142,2.1501,2.1266,2.0976,0.0,0.0,0.0,0.0,0.0,0.0,0.0,0.4656,-0.4717,-0.7708,-1.0785,-1.6243,-1.4584,-1.2445,-1.1644,-1.1014,-1.0316,-0.955,-0.9843,-0.9552,-0.8384,-0.7304,-0.6436,-0.5936,-0.5487,-0.5049,-0.4511,-0.1117,0.1172,0.2174,0.4239,0.5128,0.4948,0.5003,0.5003,0.4948,0.5003,0.4842,0.4505,0.5004,0.4938,0.4611,0.5112,0.502,0.461,0.461,0.4381,0.4016,0.3785,0.3676,0.3697,0.0,0.0,0.0,0.0,0.0,0.0,0.0,0.0,0.0,0.0,0.0,0.0,0.0,0.0,0.0,0.0,0.0,0.0,0.0,0.0,1.156,1.1498,1.1373,1.149,1.1872,1.1622,1.1399,1.113,1.1143,1.1258,1.1387,1.0886,1.0317,0.9718,0.9456,0.8995,0.8556,0.8415,0.8503,0.8769,0.0,0.0,0.0,0.0,0.0,0.0,0.0,0.0,0.0,0.0,0.0,0.0,0.0,0.0,0.0,1.7891,1.8587,1.8906,1.8522,1.8291,1.8002,1.7798,1.8631,1.9485,1.9412,0.0,0.0,0.0,0.0,0.0,0.0,0.7067,-0.2181,-1.6086,-1.5575,-1.5173,-2.0122,-1.5503,-1.2161,-1.3714,-1.1742,-1.1011,-1.2867,-1.1538,-1.0171,-0.9186,-0.796,-0.6588,-0.4944,-0.4666,-0.4177,-0.3477,-0.0891,0.1335,0.3063,0.4956,0.5496,0.4624,0.5416,0.5471,0.4892,0.5425,0.5371,0.4934,0.5696,0.5656,0.5114,0.5932,0.5903,0.5303,0.5303,0.5,0.4565,0.414,0.3924,0.381,0.0,0.0,0.0,0.0,0.0,0.0,0.0,0.0,0.0,0.0,0.0,0.0,0.0,0.0,0.0,0.0,0.0,0.0,0.0,0.0,1.1435,1.1122,1.1247,1.1303,1.1365,1.1185,1.0967,1.0657,1.1069,1.1156,1.0821,1.0263,0.9862,0.9659,0.94,0.914,0.8903,0.8322,0.8119,0.8141,0.7512,0.0,0.0,0.0,0.0,0.0,0.0,0.0,0.0,0.0,0.0,0.0,0.0,0.0,1.462,1.6061,1.6665,1.6666,1.603,1.5482,1.4963,1.4392,1.5875,0.0,1.98,1.8785,0.0,1.5085,0.0,0.0,0.0,0.2471,-0.5841,-1.3388,-1.6537,-2.0294,-2.679,-2.557,-2.2975,-2.0218,-1.78,-1.5393,-1.2905,-1.0906,-0.9134,-0.7568,-0.6554,-0.4776,-0.1941,-0.0944,-0.0389,-0.0333,0.1224,0.3174,0.5626,0.58,0.5591,0.5084,0.6056,0.6367,0.6056,0.6108,0.6108,0.6037,0.5682,0.5497,0.5467,0.5424,0.5361,0.5303,0.5303,0.5265,0.5221,0.5178,0.4826,0.4347,0.0,0.0,0.0,0.0,0.0,0.0,0.0,0.0,0.0,0.0,0.0,0.0,0.0,0.0,0.0,0.0,0.0,0.0,0.0,1.1365,1.1122,1.1247,1.1052,1.1122,1.1303,1.124,1.1084,1.083,1.1269,1.1213,1.0835,1.0773,1.0384,0.9735,0.9994,0.9841,0.9539,0.8932,0.8779,0.898,0.8273,0.8591,0.0,0.0,0.0,0.0,0.0,0.0,0.0,0.0,1.2019,1.1848,1.2858,1.2926,1.2813,1.3933,1.451,1.463,1.416,1.3605,1.3177,1.3438,1.3032,0.0,0.0,1.5215,1.3327,1.2862,0.7581,0.0,0.0,-0.7887,-1.6188,-1.4478,-2.0,-2.5246,-2.7255,-2.5579,-2.3202,-2.0724,-1.729,-1.4733,-1.3621,-1.082,-0.8053,-0.5636,-0.4008,-0.2088,0.0165,0.1268,0.2538,0.403,0.4988,0.5891,0.6846,0.6933,0.7056,0.7092,0.7214,0.6887,0.6242,0.6657,0.6657,0.6212,0.6113,0.6048,0.6072,0.6267,0.638,0.6337,0.6002,0.5873,0.5847,0.5637,0.5287,0.4975,0.0,0.0,0.0,0.0,0.0,0.0,0.0,0.0,0.0,0.0,0.0,0.0,0.0,0.0,0.0,0.0,0.0,0.0,1.1677,1.1178,1.0996,1.1115,1.0996,1.0996,1.124,1.1365,1.133,1.1063,1.1446,1.1466,1.1122,1.1335,1.0914,0.9995,1.0469,1.025,0.9659,0.9275,0.9175,0.9228,0.8526,0.8926,0.0,0.0,0.0,0.0,0.0,0.0,0.0,0.0,1.1186,1.1031,1.1916,1.1793,1.1571,1.231,1.2479,1.2412,1.2265,1.1847,1.133,1.0574,0.0,0.0,0.9943,0.9948,0.8979,0.7304,0.0396,-0.5332,-0.5212,-1.4497,-2.0722,-1.6135,-2.2158,-2.7294,-2.6898,-2.4961,-2.274,-2.0464,-1.7477,-1.464,-1.2169,-0.8579,-0.5202,-0.2268,-0.0542,0.1359,0.3607,0.4649,0.5604,0.6549,0.7149,0.758,0.78,0.7931,0.8249,0.8747,0.871,0.8139,0.7078,0.7548,0.7401,0.689,0.7057,0.7038,0.69,0.7186,0.7189,0.6979,0.6605,0.6435,0.641,0.6184,0.5875,0.5593,0.0,0.0,0.0,0.0,0.0,0.0,0.0,0.0,0.0,0.0,0.0,0.0,0.0,0.0,0.0,0.0,0.0,0.0,1.1365,1.1185,1.0996,1.0807,1.0996,1.1129,1.1122,1.1553,1.1645,1.1309,1.176,1.1864,1.1582,1.1717,1.1266,1.0419,1.0752,1.028,0.9212,0.9332,0.9168,0.8627,0.8089,0.8709,0.9918,0.0,0.0,0.0,0.0,0.0,0.0,0.0,1.0588,1.1037,1.0588,1.0677,1.1006,1.1423,1.0805,1.003,1.0213,1.0232,0.9238,0.0,0.0,0.0,0.0307,0.3164,0.4174,-0.2012,-0.6588,-1.0446,-1.3458,-1.5847,-1.7498,-1.7935,-2.2389,-2.5968,-2.6424,-2.4981,-2.2841,-2.0065,-1.9286,-1.5874,-0.7998,-0.3681,-0.016,0.2649,0.377,0.5628,0.8572,0.9604,0.9036,0.675,0.7304,0.7976,0.8731,0.8731,0.9041,0.9748,1.053,1.0195,0.8874,0.8788,0.8571,0.8341,0.8583,0.8398,0.7919,0.7919,0.7572,0.7021,0.7021,0.7021,0.7021,0.7027,0.6689,0.6227,0.0,0.0,0.0,0.0,0.0,0.0,0.0,0.0,0.0,0.0,0.0,0.0,0.0,0.0,0.0,0.0,0.0,0.0,1.2058,1.149,1.1178,1.1178,1.1006,1.1019,1.1129,1.1498,1.1633,1.1652,1.1626,1.1428,1.101,1.1108,1.1009,1.0731,1.056,1.0473,1.0353,0.9707,0.9406,0.9316,0.8703,0.8859,0.9543,0.0,0.0,0.0,0.0,0.0,0.0,0.0,0.0,0.0,0.9791,1.0027,1.0372,1.0119,1.0242,1.0353,0.9861,0.9375,0.0,0.5235,0.0,0.0,0.0,-0.2973,0.0,0.0,-1.405,-1.3273,-1.3836,-1.8194,-2.0926,-1.8457,-2.2581,-2.6037,-2.5894,-2.4034,-2.2244,-2.0989,-1.5423,-0.9196,-0.2782,0.0362,0.3657,0.7658,0.8362,0.9041,1.0074,1.0351,1.0402,1.0175,0.9951,0.9974,1.0187,0.9903,1.0253,1.1242,1.0355,0.9608,0.9061,0.9336,0.9243,0.885,0.8749,0.8602,0.848,0.848,0.8349,0.8185,0.8185,0.7979,0.7643,0.7867,0.7416,0.68,0.0,0.0,0.0,0.0,0.0,0.0,0.0,0.0,0.0,0.0,0.0,0.0,0.0,0.0,0.0,0.0,0.0,0.0,0.0,1.174,1.1365,1.1303,1.1152,1.1152,1.1423,1.161,1.1682,1.1553,1.1611,1.143,1.1056,1.1089,1.1089,1.0989,1.0901,1.0729,1.0539,1.0125,0.985,0.9569,0.9049,0.9155,0.9632,0.0,0.0,0.0,0.0,0.0,0.0,0.0,0.0,0.0,0.9495,0.9614,0.9713,0.9254,0.9137,0.9143,0.8836,0.9362,0.0,0.5937,0.2599,-0.0457,-0.2527,0.0,0.0,0.0,-1.7832,-1.6784,-1.7761,-2.096,-2.2712,-2.0564,-2.3246,-2.5539,-2.5347,-2.3796,-2.1456,-1.8198,-1.1432,-0.4713,0.1197,0.4927,0.8042,1.0574,1.1318,1.1696,1.1865,1.2127,1.2242,1.2115,1.1997,1.1966,1.1966,1.1486,1.1666,1.2389,1.1416,1.0662,1.0162,0.9947,0.9612,0.9232,0.9093,0.8999,0.8999,0.8797,0.8716,0.8716,0.8716,0.8521,0.8224,0.818,0.795,0.767,0.0,0.0,0.0,0.0,0.0,0.0,0.0,0.0,0.0,0.0,0.0,0.0,0.0,0.0,0.0,0.0,0.0,0.0,0.0,0.0,1.1545,1.1365,1.1281,1.1389,1.1894,1.1833,1.1627,1.122,1.1617,1.1667,1.1407,1.1397,1.1324,1.1204,1.14,1.1021,1.0195,1.0454,1.0214,0.9706,0.9141,0.9392,1.0054,0.9694,0.0,0.0,0.0,0.0,0.0,0.0,0.0,0.0,0.9474,0.9357,0.9098,0.8675,0.7977,0.7451,0.8014,0.0,0.0,0.7569,0.7691,0.0,-0.2626,-0.674,-1.0331,-1.6236,-1.8203,-1.9809,-2.3027,-2.3425,-2.3316,-2.3491,-2.3881,-2.4064,-2.3778,-2.2552,-1.9175,-1.2346,-0.6797,-0.1115,0.4899,0.9777,1.2423,1.2014,1.2979,1.3674,1.3879,1.4416,1.4189,1.306,1.3543,1.3832,1.3814,1.3273,1.3119,1.3293,1.3078,1.2577,1.1822,1.0635,0.9894,0.9558,0.9558,0.9558,0.9518,0.9039,0.8837,0.8837,0.8837,0.8797,0.8716,0.8242,0.8316,0.8635,0.0,0.0,0.0,0.0,0.0,0.0,0.0,0.0,0.0,0.0,0.0,0.0,0.0,0.0,0.0,0.0,0.0,0.0,0.0,0.0,1.2421,1.1856,1.1403,1.1389,1.1894,1.1491,1.1184,1.1125,1.1772,1.1525,1.0533,1.0715,1.0956,1.1277,1.052,1.0451,1.0844,1.0388,1.0079,0.984,0.9555,0.9471,0.9482,0.9221,0.9382,0.0,0.0,0.0,0.0,0.0,0.0,0.0,0.9159,0.9064,0.8903,0.8597,0.8701,0.9254,1.1016,1.3642,0.0,0.0,0.9881,0.843,0.4079,0.231,-0.107,-1.064,-1.4084,-1.6311,-1.937,-2.1973,-2.3847,-2.4404,-2.2038,-1.8892,-1.5283,-1.1237,-0.7558,-0.4598,0.1667,0.7819,1.3087,1.344,1.3349,1.3294,1.3956,1.4625,1.5156,1.5116,1.5201,1.5442,1.5149,1.4836,1.4565,1.4049,1.3843,1.4071,1.2731,1.2169,1.233,1.1678,1.0922,1.0127,1.0127,1.0127,1.0118,1.0,0.9961,0.9961,0.9961,0.9677,0.9319,0.9199,0.8958,0.8675,0.0,0.0,0.0,0.0,0.0,0.0,0.0,0.0,0.0,0.0,0.0,0.0,0.0,0.0,0.0,0.0,0.0,0.0,0.0,0.0,1.2923,1.2153,1.1675,1.1584,1.1825,1.156,1.1281,1.1077,1.1494,1.1205,1.0188,1.0274,1.0456,1.0742,1.036,1.0386,1.071,1.0458,1.0214,1.008,0.9819,0.9749,0.9843,0.9849,0.9939,1.0089,1.0308,0.0,0.0,0.0,0.0,0.0,0.0,0.0,0.8909,0.8408,0.8656,0.9693,1.2436,0.0,0.0,1.8037,0.0,1.3439,1.1523,0.9729,0.6701,0.0161,-0.5323,-1.0122,-1.4018,-1.5499,-1.6706,-1.8435,-1.583,-1.254,-0.955,-0.314,0.1594,0.2528,0.8483,1.3331,1.5537,1.5029,1.4585,1.4702,1.5071,1.5446,1.5839,1.5726,1.5798,1.6128,1.5864,1.5604,1.5422,1.4883,1.466,1.4767,1.3612,1.3007,1.2765,1.2115,1.1516,1.1029,1.1029,1.1029,1.0992,1.0725,1.0649,1.0611,1.04,1.0127,0.9843,0.9597,0.9478,0.9439,0.0,0.0,0.0,0.0,0.0,0.0,0.0,0.0,0.0,0.0,0.0,0.0,0.0,0.0,0.0,0.0,0.0,0.0,0.0,0.0,0.0,1.2337,1.1949,1.1822,1.1848,1.1813,1.1553,1.1006,1.1113,1.0827,1.0049,1.0085,1.0127,1.0358,1.0533,1.0555,1.0491,1.0561,1.0498,1.0308,0.9989,1.0128,1.0522,1.0653,1.0756,1.0859,1.12,1.0891,1.042,1.0645,0.0,0.0,0.0,0.0,0.9086,0.8429,0.8546,0.9618,1.3014,0.0,1.9818,2.4359,2.2314,0.0,1.7713,1.5347,1.285,1.0947,0.4086,-0.2959,-0.7382,-0.7417,-0.76,-1.0179,-0.7864,-0.5122,-0.3403,0.3866,0.928,0.9955,1.4347,1.6972,1.5985,1.597,1.5999,1.5879,1.6029,1.6175,1.6285,1.6249,1.6283,1.6382,1.6396,1.6374,1.6315,1.58,1.5496,1.5436,1.48,1.4076,1.331,1.2519,1.2018,1.1811,1.1811,1.1811,1.1774,1.1319,1.1132,1.1094,1.0611,1.0467,1.0467,0.9873,0.9952,1.0351,0.0,0.0,0.0,0.0,0.0,0.0,0.0,0.0,0.0,0.0,0.0,0.0,0.0,0.0,0.0,0.0,0.0,0.0,0.0,0.0,0.0,1.2932,1.2432,1.2084,1.197,1.1762,1.1462,1.1006,1.0597,0.0,0.0,0.0,1.0457,1.0848,1.0624,1.0737,1.1178,1.087,1.0618,1.0301,1.0244,1.0454,1.0735,1.0798,1.1053,1.1372,1.124,1.1202,1.1149,1.0842,1.0542,0.0,0.0,0.0,0.963,0.9215,0.9384,1.0214,0.0,0.0,2.1847,0.0,2.3474,2.1352,0.0,0.0,1.6145,1.4835,0.9086,0.349,0.0694,-0.1303,-0.2971,-0.4342,-0.0482,0.3968,0.7688,1.1955,1.5898,1.9102,1.9739,1.9367,1.7957,1.7845,1.7375,1.6237,1.6499,1.6768,1.6953,1.6797,1.6976,1.7559,1.7574,1.7429,1.7152,1.6664,1.6308,1.6067,1.5029,1.4424,1.4296,1.3842,1.2963,1.1811,1.1811,1.1811,1.1774,1.1737,1.17,1.1627,1.1094,1.1207,1.1479,1.0544,1.0495,1.0829,0.0,0.0,0.0,0.0,0.0,0.0,0.0,0.0,0.0,0.0,0.0,0.0,0.0,0.0,0.0,0.0,0.0,0.0,0.0,0.0,0.0,1.2732,1.2258,1.1883,1.1696,1.1607,1.1249,1.0783,0.0,0.0,0.0,1.0442,1.0274,0.0,0.9907,1.0084,1.0066,1.0488,1.0618,1.0498,1.0555,1.0358,1.0161,1.0926,1.0899,1.0418,1.0871,1.1017,1.0964,1.0745,1.0457,1.0192,1.0151,0.0,0.0,0.0,0.96,1.0737,1.4585,1.9088,2.2823,0.0,2.3408,2.2711,1.9972,1.9012,1.8388,1.7463,1.474,1.1531,0.817,0.7477,0.6849,0.5118,0.8268,1.1748,1.4205,1.6787,1.9104,2.0918,2.0314,1.9413,1.8603,1.83,1.808,1.7943,1.7741,1.7701,1.7813,1.7583,1.7359,1.7253,1.7253,1.7171,1.7027,1.6822,1.6561,1.6239,1.5271,1.4845,1.4814,1.4406,1.3776,1.2963,1.2708,1.2579,1.2555,1.1978,1.1919,1.2115,1.127,1.13,1.1737,1.1292,1.1255,1.1431,0.0,0.0,0.0,0.0,0.0,0.0,0.0,0.0,0.0,0.0,0.0,0.0,0.0,0.0,0.0,0.0,0.0,0.0,0.0,0.0,0.0,1.279,1.2235,1.1761,1.1348,1.1354,1.1116,1.0504,0.0,0.0,1.0293,1.0483,0.9875,0.0,0.9649,0.988,0.9579,0.0,0.0,1.0504,1.0662,1.0332,0.9722,1.0174,1.0247,1.0052,1.0287,1.0418,1.0414,1.0334,1.0121,0.9983,1.0068,0.9876,0.0,0.0,0.0,1.0627,0.0,0.0,2.1407,2.1878,2.2959,2.3321,0.0,2.057,2.0158,1.942,1.863,1.725,1.4502,1.5106,1.5466,1.3754,1.5901,1.8053,1.8826,2.0009,2.0876,2.1081,2.0088,1.9265,1.8937,1.8752,1.8876,1.9391,1.9161,1.892,1.8758,1.8526,1.8038,1.728,1.7183,1.7175,1.7175,1.7002,1.6763,1.6421,1.5739,1.5389,1.5389,1.4876,1.4438,1.4019,1.3581,1.3391,1.3319,1.2286,1.2097,1.2375,1.1296,1.1247,1.175,1.1509,1.1479,1.159,0.0,0.0,0.0,0.0,0.0,0.0,0.0,0.0,0.0,0.0,0.0,0.0,0.0,1.5921,1.5652,1.5088,0.0,0.0,0.0,0.0,0.0,1.3423,1.2643,0.0,1.123,1.1361,1.1018,0.0,0.0,0.0,1.0441,0.9862,0.948,0.9376,1.0383,1.0943,1.1055,0.0,0.0,1.0255,1.0513,1.0454,0.9957,0.7852,0.889,1.1298,0.9577,0.9193,0.9505,0.9618,0.9749,0.9862,0.9464,0.9536,0.9652,0.0,0.0,0.0,0.0,1.4371,0.0,2.0639,2.2342,2.3143,2.3816,2.2724,2.1428,2.0738,1.9267,1.8338,1.9082,1.9597,1.9807,1.9409,2.1038,2.2298,2.2087,2.1816,2.1562,2.1405,2.0536,1.9756,1.9243,1.9845,2.0153,1.9797,2.0451,2.0519,1.9772,1.9717,1.9323,1.8526,1.8252,1.8125,1.8125,1.7562,1.7101,1.6763,1.6394,1.6231,1.6203,1.5419,1.4845,1.4438,1.4019,1.3868,1.3795,1.278,1.2397,1.2312,1.1296,1.124,1.1582,1.0723,1.0649,1.1046,0.0,0.0,0.0,0.0,0.0,0.0,0.0,0.0,0.0,0.0,0.0,0.0,0.0,1.5254,1.5137,1.4715,1.4405,0.0,0.0,0.0,0.0,1.3197,1.2557,1.193,1.1288,1.1385,1.0944,0.0,0.0,1.0386,1.0174,1.0351,1.039,1.0247,1.0053,1.0106,1.0348,1.0387,0.0,1.065,1.1038,1.0431,0.916,0.7549,0.6267,0.5506,0.6837,0.706,0.6783,0.6736,0.7421,0.8363,0.8421,0.8441,0.848,0.8581,0.8436,0.8773,0.0,0.0,0.0,1.6276,1.895,2.1022,2.1213,2.2449,2.1971,1.6402,1.857,1.9975,1.494,1.7412,2.056,2.1627,2.2757,2.3435,2.3345,2.3319,2.3071,2.2439,2.1953,2.1536,2.1231,2.1332,2.1625,2.2082,2.2134,2.2117,2.2061,2.1188,2.0352,1.9597,1.8836,1.845,1.845,1.8035,1.767,1.7365,1.6811,1.647,1.6301,1.5769,1.5477,1.5329,1.4845,1.4214,1.3382,1.2605,1.2327,1.2277,1.0974,1.0958,1.1647,1.1014,1.1097,1.1505,0.0,0.0,0.0,0.0,0.0,0.0,0.0,0.0,0.0,0.0,0.0,0.0,0.0,0.0,1.4662,1.4057,1.3743,1.3549,1.3402,1.3245,1.311,1.287,1.2221,1.1617,1.1012,1.1086,1.0734,0.0,0.0,0.0,0.0,1.0627,1.0828,1.0777,1.012,0.9998,0.0,0.0,1.0827,1.069,0.9931,0.8966,0.7918,0.6073,0.4623,0.3701,0.4689,0.4439,0.3645,0.3266,0.4039,0.5236,0.6094,0.6734,0.7278,0.7757,0.7728,0.7889,0.9467,0.0,0.0,0.0,1.6238,1.817,1.9126,2.1039,2.0865,1.4708,1.4875,1.5214,1.2287,1.5855,2.0104,2.2701,2.3658,2.4142,2.4368,2.4232,2.3912,2.3405,2.289,2.2502,2.2312,2.2417,2.2741,2.3362,2.345,2.3326,2.3015,2.208,2.1051,1.9902,1.918,1.8646,1.8271,1.8276,1.8,1.7446,1.7176,1.6887,1.6617,1.6163,1.5883,1.5725,1.5433,1.4783,1.3769,1.2843,1.2533,1.2463,1.1198,1.101,1.1376,1.1,1.1064,1.1308,0.0,0.0,0.0,0.0,0.0,0.0,0.0,0.0,0.0,1.6228,0.0,0.0,0.0,0.0,0.0,1.3092,1.2811,1.2778,1.295,1.265,1.2435,1.2586,0.0,0.0,0.0,1.0558,1.0477,0.9996,1.0391,1.0615,0.0,0.0,1.0737,1.1001,1.082,1.0892,1.1126,0.0,1.1449,1.0415,0.7099,0.6099,0.6213,0.3285,0.403,0.6177,0.3235,0.1461,0.04,-0.0466,-0.0176,0.0827,0.2613,0.4581,0.6254,0.6561,0.6664,0.6809,0.0,0.0,0.0,1.3875,1.4407,1.4714,1.7863,1.8628,1.8084,1.6034,0.8407,0.4391,1.1918,1.5632,1.8906,2.2963,2.4057,2.4633,2.5294,2.4555,2.4004,2.4213,2.325,2.2517,2.2388,2.3078,2.3499,2.3453,2.4289,2.4133,2.2571,2.2388,2.1424,1.9511,1.9298,1.8721,1.7684,1.8307,1.8102,1.708,1.7488,1.7563,1.7263,1.657,1.6013,1.5589,1.5694,1.5492,1.4988,1.3598,1.3006,1.29,1.1993,1.133,1.083,1.0481,1.0327,1.0282,0.0,0.0,0.0,0.0,0.0,0.0,1.64,1.6627,1.6503,0.0,0.0,0.0,1.5029,1.4428,1.3683,1.2749,1.297,1.3004,1.2643,1.2593,1.2437,1.215,1.1483,1.073,0.9824,1.0532,1.0347,0.923,1.0281,1.0541,1.0008,1.0477,1.08,0.0,1.1544,1.1443,1.0848,1.1061,1.1214,1.1182,1.0552,0.6884,0.1832,0.2559,0.0432,-0.2726,-0.0986,-0.084,-0.1498,-0.1968,-0.0,0.2958,0.4311,0.5151,0.5746,0.6282,0.622,0.608,0.6448,0.0,0.0,0.0,0.0,0.0,1.3136,1.5767,1.6082,1.001,1.0283,1.142,1.0786,1.6686,2.2278,2.4102,2.4355,2.4534,2.5102,2.4902,2.4783,2.5047,2.4612,2.4271,2.4119,2.4299,2.4459,2.4482,2.4814,2.4943,2.4722,2.3361,2.2008,2.0736,2.0007,1.9482,1.9201,1.9391,1.9158,1.8582,1.7896,1.7282,1.6747,1.5694,1.5074,1.4881,1.4714,1.4836,1.5101,1.3968,1.3063,1.2295,1.1087,1.0309,0.9879,0.985,0.9823,0.9844,0.0,0.0,0.0,0.0,0.0,1.6955,1.5931,1.6218,1.6093,0.0,0.0,0.0,1.4231,1.345,1.2784,1.2311,1.2555,1.2577,1.2296,1.2188,1.1929,1.1632,1.0887,1.0176,0.9499,0.9991,0.9942,0.9218,1.0185,1.0443,1.0067,1.0507,1.0866,1.1078,0.0,0.0,0.0,1.0875,1.0782,1.0747,0.9794,0.735,0.4005,0.0862,-0.171,-0.3577,-0.2448,-0.2398,-0.306,-0.4145,-0.1779,0.1829,0.2983,0.4152,0.5244,0.5904,0.5965,0.0,0.0,0.0,0.0,0.6644,0.0,0.0,0.9377,1.2271,1.347,0.922,1.1778,1.4681,1.4398,1.8172,2.1969,2.3916,2.4389,2.4675,2.5163,2.4969,2.4897,2.5208,2.4976,2.4766,2.4685,2.4746,2.4823,2.4879,2.5069,2.5123,2.498,2.3234,2.1959,2.1336,2.0412,1.9753,1.9389,1.9303,1.8914,1.8236,1.7505,1.6913,1.6441,1.5489,1.5009,1.4908,1.4521,1.4536,1.4704,1.3943,1.3319,1.2694,1.1436,1.0481,0.985,0.9835,0.9737,0.9639,0.0,0.0,1.6842,1.6694,1.674,1.6436,1.5342,1.568,1.5671,0.0,1.4492,1.3999,1.3009,1.229,1.1859,1.1891,1.1871,1.1833,1.1757,1.1458,1.1187,1.0995,1.0104,0.942,0.9223,0.9223,0.9325,0.9567,0.9962,1.0224,1.0341,1.0539,1.0804,1.1104,0.0,0.0,0.0,1.0869,0.9846,0.8738,0.6705,0.7195,0.8149,-0.1315,-0.32,-0.1086,-0.2728,-0.3661,-0.4327,-0.5884,-0.4166,-0.1104,0.0285,0.2433,0.4626,0.5573,0.5843,0.0,0.0,0.0,0.0,0.6837,0.5955,0.0,0.6683,0.8878,1.073,1.136,1.2689,1.5195,1.9703,1.9527,1.9735,2.2998,2.425,2.4917,2.5197,2.4799,2.4569,2.4774,2.456,2.4407,2.4442,2.4636,2.4794,2.4879,2.5159,2.5026,2.429,2.2674,2.1715,2.1666,2.0663,1.9753,1.8969,1.8687,1.8076,1.7112,1.6792,1.6488,1.6189,1.5556,1.524,1.5163,1.4664,1.4347,1.4155,1.3584,1.3443,1.3428,1.235,1.1226,1.0239,1.0267,0.9959,0.956,0.0,0.0,1.6255,1.5758,1.5584,1.5225,1.4163,1.4392,1.4382,1.3683,1.3433,1.3,1.2104,1.2112,1.1956,1.1262,1.1553,1.1427,1.0827,1.0754,1.0651,1.0283,0.9637,0.9107,0.8841,0.9309,0.9206,0.8659,0.9666,0.9912,0.9395,0.9902,1.0288,1.0608,1.0306,0.0,0.0,1.0557,0.708,0.1982,0.5894,0.4624,0.0104,-0.255,-0.6309,-0.9703,-0.6564,-0.564,-0.5558,-0.299,-0.2422,-0.2216,0.1449,0.2607,0.307,0.5404,0.6037,0.5844,0.5607,0.4998,0.4553,0.5178,0.4915,0.0,0.635,0.7918,0.9334,1.0486,1.1949,1.4023,1.725,1.861,2.0065,2.263,2.4075,2.4736,2.4333,2.4315,2.414,2.3607,2.3636,2.3815,2.4063,2.4276,2.4545,2.4865,2.5308,2.5444,2.5244,2.3647,2.2694,2.2635,2.1099,2.0188,2.0019,1.9265,1.8731,1.8412,1.6931,1.6046,1.5713,1.4823,1.4267,1.3937,1.3682,1.3741,1.3949,1.2879,1.2492,1.2502,1.1683,1.0749,0.9976,1.0505,0.9973,0.9243,0.0,1.5436,1.5748,1.5352,1.5294,1.4932,1.3932,1.3863,1.3734,1.3139,1.2451,1.1705,1.0951,1.1016,1.0989,1.052,1.1042,1.1179,1.0533,1.0591,1.0387,0.9805,0.9285,0.8841,0.8548,0.883,0.891,0.8705,0.928,0.9432,0.9087,0.94,0.8953,0.7837,0.8973,0.8562,0.0,0.8981,0.7014,0.2726,0.266,-0.0,-0.4461,-0.965,-1.3043,-1.4492,-1.0104,-0.7467,-0.5651,-0.3463,-0.2179,-0.1236,0.0553,0.2235,0.3815,0.4826,0.578,0.6316,0.5577,0.5204,0.4951,0.4525,0.4505,0.0,0.0,0.7431,0.9269,1.0161,1.2045,1.4191,1.631,1.784,1.9415,2.1519,2.2454,2.2985,2.3041,2.3607,2.3672,2.2764,2.3058,2.3484,2.3943,2.4321,2.4674,2.4975,2.5211,2.5321,2.5248,2.4099,2.3287,2.2905,2.1661,2.0799,2.035,1.9054,1.8378,1.8283,1.6421,1.5451,1.5235,1.4579,1.4152,1.3867,1.3586,1.3532,1.3584,1.2735,1.2354,1.2186,1.1517,1.0658,0.9855,1.0416,1.0003,0.9397,0.0,0.0,1.5128,1.5042,1.5052,1.4789,1.3872,1.364,1.3321,1.2451,1.0786,0.9333,0.8483,0.7883,0.7492,0.7413,0.8342,0.8982,0.9255,0.9348,0.9236,0.8891,0.8791,0.8437,0.7952,0.8234,0.8595,0.887,0.8932,0.8908,0.8784,0.9047,0.7936,0.5767,0.67,0.5955,0.0,0.5968,0.49,0.166,-0.1904,-0.3984,-0.5875,-1.4498,-1.8164,-1.8057,-1.2614,-0.8378,-0.5156,-0.4181,-0.2304,-0.033,-0.0109,0.168,0.3798,0.446,0.576,0.6702,0.5764,0.5691,0.5631,0.4613,0.4665,0.4991,0.0,0.0,0.0,1.0071,1.2029,1.4106,1.5593,1.6812,1.8131,1.9832,2.0518,2.0939,2.1288,2.2388,2.2897,2.2094,2.2558,2.3215,2.3851,2.4487,2.4889,2.5012,2.5069,2.5041,2.4924,2.4268,2.3581,2.2913,2.2112,2.1274,2.041,1.8673,1.7812,1.7774,1.5885,1.492,1.4822,1.4508,1.4265,1.4083,1.3736,1.3491,1.3278,1.2799,1.2475,1.221,1.1564,1.0766,1.0071,1.0415,1.0098,0.9641,1.3574,1.3955,0.0,1.4402,1.4166,1.3816,1.3399,1.3329,1.2704,1.1017,0.7341,0.4376,0.3058,0.0389,-0.1354,0.0,-0.0278,0.1792,0.4706,0.5054,0.5568,0.6685,0.7961,0.79,0.6324,0.7775,0.8519,0.8479,0.8627,0.8534,0.8134,0.8694,0.8748,0.8104,0.2865,0.2426,0.0,0.0642,-0.5603,-1.1874,-0.7361,-0.4203,-0.2773,-0.7468,-1.5298,-2.2427,-1.2567,-0.716,-0.4313,-0.2318,-0.207,-0.1898,0.1951,0.1076,-0.0277,0.5179,0.6754,0.6626,0.6225,0.5963,0.5767,0.5497,0.5897,0.6469,0.6929,0.0,0.9327,1.0033,0.0,1.1973,1.3992,0.0,0.0,1.7493,1.9136,1.9876,1.865,2.0167,2.1423,2.1541,2.2103,2.2788,2.3563,2.4505,2.4973,2.4768,2.4969,2.4965,2.4657,2.4175,2.3581,2.2913,2.2112,2.1286,2.0409,1.8725,1.7859,1.7774,1.5845,1.4797,1.4614,1.4356,1.4024,1.3678,1.3615,1.3508,1.3363,1.2818,1.2591,1.2459,1.1615,1.108,1.0808,1.103,1.0386,0.9678,1.3141,1.3585,0.0,0.0,1.3736,1.3455,1.2869,1.2157,1.1145,0.9519,0.7523,0.5715,0.4171,0.3215,0.1665,0.0,0.0565,0.194,0.299,0.322,0.4329,0.6603,0.7297,0.7318,0.6614,0.792,0.8513,0.8234,0.8454,0.8263,0.7734,0.799,0.6886,0.4517,0.055,-0.5108,-1.1403,-0.7515,-0.8419,-1.2529,-1.3555,-1.3308,-1.2926,-1.7854,-2.0333,-2.0268,-1.3346,-0.8899,-0.6093,-0.4828,-0.2812,-0.0479,0.1453,0.2728,0.3862,0.5307,0.6697,0.7515,0.6678,0.5481,0.4629,0.5193,0.4769,0.4676,0.6276,0.7392,0.8307,0.8786,0.0,0.0,0.0,0.0,0.0,0.0,1.7502,1.8434,1.9068,1.9626,2.0284,2.1282,2.2175,2.3276,2.4623,2.5275,2.5313,2.4592,2.4922,2.49,2.4275,2.4178,2.3926,2.3485,2.2775,2.2012,2.1217,1.8978,1.7855,1.7834,1.5882,1.4833,1.4594,1.4241,1.3876,1.3548,1.3458,1.3312,1.3089,1.2727,1.2514,1.2332,1.1796,1.14,1.1132,1.1242,1.0908,1.0566,1.2796,0.0,0.0,0.0,1.3424,1.307,1.2059,1.083,0.9492,0.8147,0.6754,0.5251,0.3746,0.2234,0.0223,-0.2632,-0.2441,-0.1836,-0.1068,0.0117,0.1571,0.3356,0.5505,0.6135,0.497,0.6913,0.7893,0.781,0.7724,0.7427,0.6988,0.6896,0.5376,0.2514,-0.1052,-1.0123,-2.2353,-1.6848,-1.4557,-1.5153,-2.0486,-2.2491,-2.2423,-2.3738,-2.2027,-1.833,-1.3998,-1.0342,-0.7388,-0.6293,-0.3387,-0.0159,0.0651,0.3128,0.5492,0.4249,0.4671,0.5612,0.5863,0.4685,0.3705,0.5019,0.4523,0.4163,0.5632,0.6701,0.7526,0.7934,0.8455,0.0,0.0,0.0,1.3519,1.5254,0.0,1.7432,1.9169,1.9206,1.964,2.1292,2.2663,2.404,2.5383,2.58,2.5515,2.4392,2.4726,2.4596,2.3737,2.3934,2.387,2.3381,2.3165,2.256,2.1559,1.9551,1.8327,1.7855,1.6156,1.5062,1.4505,1.4144,1.3761,1.3357,1.3261,1.3072,1.2806,1.2575,1.2392,1.2169,1.1897,1.1601,1.1296,1.1219,1.1107,1.1005,1.2279,1.2622,0.0,0.0,1.3063,1.2431,1.0967,0.9408,0.806,0.7078,0.3242,0.0164,-0.1064,-0.749,-1.1748,-1.1856,-1.4038,-1.3641,-0.9485,-0.5757,-0.4179,-0.5341,0.1903,0.3968,-0.0247,0.3941,0.6429,0.7036,0.6226,0.5721,0.5656,0.5427,0.5276,0.4908,-0.208,-1.0122,-1.8917,-2.702,-2.8051,-2.458,-2.8281,-2.907,-2.6995,-1.7553,-1.6143,-1.864,-1.4391,-1.0543,-0.7052,-0.4893,-0.3576,-0.2329,0.021,0.091,0.0937,0.1478,-0.0,-0.0874,0.3162,0.3698,0.3585,0.5467,0.6318,0.6478,0.5793,0.6444,0.7414,0.8027,0.8777,0.9716,1.1052,1.2504,1.3597,1.3992,1.5575,0.0,0.0,1.8519,1.956,2.1657,2.362,2.4968,2.5279,2.5738,2.5453,2.4111,2.4257,2.3988,2.2975,2.3311,2.3084,2.2092,2.2928,2.2593,2.0939,2.0592,1.953,1.7781,1.674,1.5565,1.4297,1.4038,1.3569,1.3015,1.2997,1.2852,1.2591,1.2332,1.2226,1.2169,1.1897,1.1601,1.1287,1.1001,1.0705,1.0452,0.0,0.0,0.0,0.0,0.0,1.1716,0.9624,0.8103,0.5571,0.1061,-0.0887,-0.3328,-0.722,-0.9479,-1.1643,-1.395,-1.3563,-1.2705,-1.1407,-0.7425,-0.5216,-0.5446,0.1131,0.3283,-0.0,0.3696,0.5866,0.6286,0.564,0.5361,0.5294,0.4919,0.433,0.3409,-0.2556,-1.0763,-2.039,-2.3444,-2.6367,-2.8997,-2.9024,-2.6516,-2.266,-2.1972,-2.0977,-1.9555,-1.6124,-1.2584,-0.9314,-0.7692,-0.5271,-0.2915,-0.2688,-0.0908,0.1063,0.076,0.0271,0.0161,0.1455,-0.0053,-0.1173,0.228,0.2206,0.2047,0.5024,0.625,0.6961,0.784,0.8329,0.9056,1.0368,1.164,1.2801,1.3786,1.5381,1.6765,0.0,1.923,2.0895,2.2557,2.4228,2.5484,2.6161,2.6323,2.5983,2.5007,2.4809,2.4063,2.2521,2.2141,2.1512,2.0501,2.1001,2.1119,2.0782,2.0184,1.9411,1.8446,1.6945,1.5555,1.4286,1.3704,1.3194,1.2741,1.2549,1.2332,1.2086,1.2169,1.2102,1.1897,1.1579,1.14,1.133,1.1656,1.1401,1.1018,1.1756,0.0,0.0,1.2113,1.1356,0.9945,0.7783,0.6226,0.3252,-0.244,-0.341,-0.5375,-1.016,-1.1486,-1.2913,-1.5123,-1.5002,-1.4247,-1.296,-0.9645,-0.7592,-0.7234,-0.1977,-0.0381,-0.3115,0.0917,0.3426,0.4257,0.4282,0.4577,0.5004,0.411,0.3288,0.245,-0.1088,-0.863,-1.8651,-1.8118,-2.2187,-2.8959,-2.8395,-2.5944,-2.2863,-2.4879,-2.1969,-1.6713,-1.6153,-1.3552,-1.0234,-0.9061,-0.6922,-0.4636,-0.4562,-0.2925,-0.1114,-0.1363,-0.1633,-0.156,-0.0646,-0.2305,-0.3433,0.0162,0.0168,0.0347,0.4345,0.5656,0.6203,0.714,0.8291,0.9042,0.8871,1.0643,1.2602,1.3996,1.5264,1.6472,0.0,1.9716,2.1475,2.2563,2.4176,2.5276,2.5464,2.631,2.6243,2.4759,2.4849,2.4079,2.2034,2.0688,1.956,1.8706,1.9292,1.9636,1.9614,2.0233,1.9945,1.878,1.7409,1.6063,1.4811,1.392,1.3259,1.282,1.2494,1.219,1.1955,1.2039,1.1976,1.1783,1.1557,1.1355,1.1206,1.1458,1.1197,1.087,1.1104,1.0475,1.0135,1.0913,0.9277,0.7246,0.5575,0.3792,0.0968,-0.3541,-0.4745,-0.6693,-1.0781,-1.4268,-1.625,-1.6068,-1.8599,-1.855,-1.46,-1.2589,-1.1309,-1.0933,-0.7233,-0.647,-0.9202,-0.389,-0.0318,0.1285,0.2281,0.3499,0.4864,0.3083,0.228,0.2277,0.2019,-0.3858,-1.3432,-1.1921,-1.6535,-2.4982,-2.6757,-2.7331,-2.7006,-2.5653,-1.9024,-1.0958,-1.4756,-1.3407,-0.9747,-0.8951,-0.8193,-0.723,-0.5167,-0.4948,-0.5324,-0.4677,-0.5445,-0.5955,-0.3101,-0.3089,-0.3296,-0.0918,0.0109,0.1229,0.3773,0.4848,0.5441,0.6267,0.8364,0.9308,0.6878,0.9652,1.2789,1.4492,1.5245,1.6255,1.805,1.9867,2.1172,2.1683,2.334,2.4207,2.3513,2.5725,2.6164,2.3663,2.4498,2.4035,2.1551,1.9214,1.7574,1.6744,1.789,1.8244,1.7658,2.0588,2.0999,1.8807,1.8058,1.7032,1.5775,1.4605,1.3796,1.3278,1.2783,1.2451,1.2185,1.1897,1.1805,1.1805,1.1783,1.137,1.0801,1.0483,1.0199,1.0144,0.9764,0.9213,0.8251,0.6613,0.6612,0.6578,0.5976,0.1502,-0.3115,-0.6626,-1.1489,-1.6291,-2.0647,-2.1601,-2.1744,-2.1312,-2.0493,-1.9435,-1.8106,-1.3971,-1.2323,-1.4041,-0.8147,-0.6048,-0.8751,-0.2987,0.0447,0.1161,0.2715,0.3941,0.4632,0.3872,0.3527,0.36,0.3439,-0.0,-0.58,-0.7458,-1.3715,-2.272,-2.4784,-2.3713,-2.1152,-2.3394,-1.9298,-1.2738,-1.5511,-1.3883,-1.0269,-0.912,-0.7505,-0.5977,-0.5433,-0.5003,-0.4732,-0.457,-0.5113,-0.5588,-0.4848,-0.5225,-0.5292,-0.3014,-0.1972,-0.079,0.2136,0.5659,0.8416,0.8592,0.6136,0.5126,0.8969,0.9271,1.0127,1.3716,1.559,1.6927,1.7986,1.9233,2.0151,2.0471,2.0237,2.1449,2.5045,2.569,2.5888,2.5908,2.5544,2.427,2.19,2.0826,1.891,1.5917,1.6904,1.7259,1.6742,1.9275,2.0018,1.8935,1.8093,1.7085,1.5904,1.4453,1.3616,1.3261,1.2575,1.2251,1.2185,1.1897,1.1805,1.1762,1.1302,1.0739,1.0148,1.0046,1.0514,1.1199,0.8891,0.7741,0.6041,0.3547,0.2145,0.1354,0.1388,-0.0734,-0.4589,-1.088,-1.4284,-1.8321,-2.4103,-2.4358,-2.3817,-2.2999,-2.1491,-1.9614,-1.7242,-1.5183,-1.3826,-1.3297,-1.0219,-0.9157,-1.0565,-0.5449,-0.2019,-0.0548,0.2726,0.4629,0.5178,0.4585,0.4383,0.4657,0.4736,0.2581,-0.1593,-0.7142,-1.3285,-1.9585,-2.2852,-2.318,0.0,-2.3209,-2.0244,-1.5473,-1.6308,-1.4071,-1.0464,-0.904,-0.7407,-0.586,-0.5131,-0.4946,-0.4897,-0.457,-0.4948,-0.5525,-0.5627,-0.599,-0.6054,-0.4943,-0.3948,-0.2657,-0.0274,0.2417,0.5063,0.7548,0.574,0.4213,0.5822,0.7833,1.0376,1.3796,1.6055,1.7556,1.8059,1.9217,2.027,2.0872,2.0925,2.2338,2.5875,2.378,2.3376,2.6126,2.5335,2.4413,2.3656,2.1289,1.895,1.6701,1.6863,1.6746,1.6241,1.9258,2.0135,1.8827,1.8124,1.7215,1.6124,1.4637,1.3854,1.3594,1.275,1.2356,1.2336,1.1961,1.1805,1.1725,1.1155,1.0681,1.0298,0.9995,1.0307,1.0885,0.801,0.6021,0.3641,0.1389,-0.2637,-0.5604,-0.5749,-0.4284,-0.6579,-1.6085,-1.596,-1.747,-2.3947,-2.4424,-2.3859,-2.2807,-2.195,-1.9544,-1.5109,-1.6258,-1.5299,-1.1264,-1.2422,-1.3011,-1.2597,-0.8618,-0.5167,-0.2388,0.2676,0.5483,0.6088,0.5335,0.5208,0.5566,0.589,0.3816,-0.0535,-0.8661,-1.3905,-1.7146,-2.1534,-2.4165,-2.5302,-2.3907,-2.1313,-1.8275,-1.7118,-1.3928,-1.0069,-0.8863,-0.7457,-0.6047,-0.4681,-0.4782,-0.5263,-0.4682,-0.4892,-0.5342,-0.5366,-0.5271,-0.5242,-0.5706,-0.4835,-0.3574,-0.2204,-0.1763,-0.0228,0.4723,0.576,0.4636,0.0957,0.6128,1.1646,1.387,1.5988,1.7397,1.7492,1.9078,2.0641,2.1834,2.3128,0.0,2.5974,2.1946,2.113,2.5636,2.5023,2.4807,2.5685,2.1674,1.8992,1.8187,1.7576,1.6824,1.5963,1.963,2.0516,1.8597,1.8073,1.7378,1.6516,1.502,1.4245,1.4049,1.3092,1.2687,1.261,1.2071,1.1826,1.1681,1.1164,1.0897,1.0777,1.0173,0.9944,0.9981,0.6067,0.3593,0.1225,-0.0056,-0.4543,-0.8725,-1.0942,-1.3442,-1.7064,-2.264,-2.2782,-2.3001,-2.4749,-2.4497,-2.3984,-2.3386,-2.2002,-2.0416,-1.8585,-1.7263,-1.554,-1.3286,-1.2403,-1.1328,-0.99,-0.621,-0.3069,-0.0644,0.3868,0.628,0.667,0.6276,0.6379,0.6865,0.0,0.2425,-0.4521,-0.7668,-1.3151,-1.9979,-2.2755,-2.4011,-2.4105,-2.3073,-2.1207,-1.8947,-1.7588,-1.3173,-0.803,-0.8484,-0.6845,-0.4618,-0.4509,-0.4575,-0.4649,-0.4547,-0.4598,-0.4372,-0.2893,-0.1926,-0.132,-0.1461,-0.1139,-0.0693,-0.0428,0.0548,0.1737,0.2701,0.2934,0.2719,0.1947,0.6015,0.9987,1.15,1.2872,1.3761,1.3657,1.6522,1.9408,2.1475,2.2282,2.328,2.4887,2.4958,2.5598,2.7308,2.7344,2.6702,2.5387,2.4432,2.2275,1.8634,1.8806,1.7927,1.5784,1.839,1.936,1.8577,1.7795,1.7401,1.7326,1.5419,1.438,1.408,1.3456,1.3071,1.2887,1.2352,1.1839,1.1378,1.1287,1.0926,1.047,1.036,1.0135,0.9981,0.314,0.1787,-0.0108,-0.2846,-0.737,-1.1645,-1.4601,-1.844,-2.1898,-2.4427,-2.2976,-2.2533,-2.4709,-2.4703,-2.421,-2.3467,-2.2237,-2.076,-1.8948,-1.725,-1.5377,-1.3318,-1.155,-1.0084,-0.8938,-0.6478,-0.35,-0.0,0.4815,0.706,0.6847,0.6802,0.6862,0.6818,0.0,0.0668,-0.3589,-0.9116,-1.3989,-1.8282,-2.2023,-2.3513,-2.3341,-2.2139,-2.0604,-1.8794,-1.6639,-1.1547,-0.609,-0.7852,-0.6103,-0.3166,-0.3107,-0.2726,-0.2311,-0.2311,-0.2359,-0.2196,-0.1269,-0.0344,0.0547,0.1464,0.2201,0.2778,0.2985,0.3229,0.3508,0.3977,0.3044,0.2865,0.4958,0.737,0.9508,1.112,1.2183,1.2806,1.256,1.4951,1.6943,1.7578,2.1207,2.3419,2.2892,2.5654,2.741,2.7174,2.6912,2.6614,2.6317,2.5262,2.3077,1.9577,1.9045,1.7612,1.5099,1.772,1.8623,1.7818,1.7441,1.7181,1.7021,1.5395,1.4532,1.4327,1.3609,1.3244,1.3105,1.2455,1.1727,1.1059,1.1233,1.1113,1.0831,1.0519,1.031,1.0173,-0.0109,-0.0534,-0.2142,-0.6598,-1.0584,-1.4023,-1.6745,-2.0695,-2.3638,-2.4366,-2.2135,-2.1613,-2.457,-2.478,-2.436,-2.3415,-2.2348,-2.0758,-1.8491,-1.6756,-1.4786,-1.2483,-1.0439,-0.8982,-0.8106,-0.7128,-0.4535,-0.0325,0.5285,0.7709,0.7132,0.7135,0.6556,0.5263,0.1155,-0.1959,-0.4553,-1.1682,-1.5658,-1.7453,-2.1155,-2.2586,-2.2348,-2.1105,-1.9756,-1.8018,-1.4227,-0.9239,-0.4612,-0.5702,-0.4138,-0.1659,-0.1182,-0.0477,0.0244,0.0731,0.0682,0.0483,0.0702,0.1095,0.1844,0.3407,0.4459,0.5291,0.5648,0.522,0.4927,0.5592,0.4369,0.421,0.7616,0.8318,0.8912,1.0486,1.1246,1.1409,1.0788,1.2022,1.3303,1.4138,1.8272,2.1327,2.2136,2.4357,2.6124,2.6981,2.6481,2.6497,2.7334,2.572,2.3584,2.1026,1.9468,1.758,1.5304,1.7171,1.7822,1.7251,1.713,1.6997,1.6794,1.5394,1.4707,1.4558,1.3768,1.3328,1.3107,1.2533,1.178,1.1031,1.13,1.1363,1.1227,1.0784,1.0567,1.0458,-0.3431,-0.4477,-0.6675,-1.1722,-1.385,-1.5367,-1.6793,-1.9988,-2.2686,-2.3896,-2.4045,-2.4219,-2.4745,-2.4647,-2.4246,-2.3539,-2.2073,-2.04,-1.8593,-1.6095,-1.3527,-1.103,-0.9511,-0.7947,-0.6228,-0.6439,-0.5073,-0.1986,0.4959,0.8152,0.7818,0.7224,0.493,0.1248,-0.0943,-0.6213,-1.3506,-1.485,-1.8011,-2.2079,-2.1458,-2.092,-2.0424,-1.9909,-1.8746,-1.6445,-0.9674,-0.6089,-0.4017,-0.0359,0.0403,-0.0,0.1122,0.1528,0.2029,0.4166,0.4036,0.335,0.4039,0.378,0.3519,0.416,0.4521,0.4892,0.5409,0.5605,0.5599,0.5385,0.588,0.6726,0.7898,0.7419,0.7047,0.7741,0.7894,0.7265,0.5489,0.5388,0.7988,1.4658,1.1217,1.303,2.5091,2.0322,1.9809,2.7911,2.8163,2.7866,2.7671,2.6782,2.5282,2.3075,2.0948,1.9183,1.7871,1.6563,1.6509,1.7714,1.7004,1.699,1.7536,1.5781,1.4851,1.4565,1.4064,1.3409,1.2668,1.2591,1.2209,1.1715,1.1753,1.1557,1.1296,1.1227,1.1057,1.0801,-0.6299,-0.6957,-0.856,-1.2745,-1.417,-1.55,-1.7749,-2.0175,-2.1978,-2.259,-2.3583,-2.4351,-2.476,-2.4192,-2.34,-2.2437,-2.1153,-1.92,-1.6415,-1.4347,-1.2111,-0.9607,-0.7888,-0.6647,-0.5909,-0.3779,-0.2494,-0.2208,0.4042,0.7345,0.7865,0.5711,0.2441,-0.1689,-0.5705,-0.9713,-1.3654,-1.6671,-1.9104,-2.0825,-2.0268,-1.9452,-1.8527,-1.7995,-1.4533,-0.9537,-0.6452,-0.2902,0.067,0.2804,0.2943,0.2368,0.3534,0.3751,0.3832,0.5237,0.5179,0.467,0.4971,0.484,0.4661,0.487,0.5533,0.6127,0.6345,0.6547,0.6688,0.6848,0.6807,0.6955,0.7502,0.7686,0.7859,0.8243,0.78,0.7072,0.5896,0.5027,0.5595,0.8588,0.5991,0.7203,1.5566,1.7772,1.931,2.0852,2.3141,2.5242,2.6956,2.445,2.0518,1.5191,1.2316,1.0314,0.9088,1.0054,1.2991,1.772,1.7253,1.7305,1.7751,1.5829,1.4653,1.4167,1.3993,1.3261,1.2268,1.2509,1.2144,1.1464,1.1704,1.1725,1.1579,1.1378,1.1227,1.1057,-0.8446,-0.8686,-0.9787,-1.3493,-1.4483,-1.5663,-1.8342,-2.0008,-2.1189,-2.1804,-2.2605,-2.3411,-2.4185,-2.3409,-2.2355,-2.1152,-1.9609,-1.7427,-1.4441,-1.2623,-1.0401,-0.7541,-0.5887,-0.4769,-0.4158,-0.1441,-0.0055,-0.0221,0.4103,0.6604,0.7334,0.3234,-0.0562,-0.4163,-0.8612,-1.1556,-1.3348,-1.6672,-1.8071,-1.8057,-1.7819,-1.6948,-1.5761,-1.5531,-1.091,-0.4208,-0.161,0.1582,0.4648,0.5061,0.4748,0.4341,0.5082,0.5053,0.4895,0.5636,0.5439,0.5069,0.5241,0.5152,0.5111,0.5396,0.6296,0.7167,0.7459,0.7706,0.7881,0.8116,0.7799,0.748,0.7559,0.811,0.8453,0.8069,0.7638,0.713,0.6318,0.5716,0.5597,0.6151,0.5664,0.5599,0.6538,1.3607,1.6997,1.4139,1.6058,1.9526,2.4561,2.0665,1.5802,1.0412,0.5157,0.3236,0.4922,0.5738,1.0199,1.8221,1.7573,1.7398,1.7577,1.5624,1.4439,1.3899,1.3821,1.324,1.239,1.2551,1.2154,1.1513,1.182,1.1869,1.1768,1.1534,1.1445,1.1378,-0.9647,-0.9771,-1.0656,-1.4744,-1.5421,-1.6141,-1.8266,-1.9177,-2.0221,-2.1893,-2.1492,-2.1548,-2.2867,-2.2242,-2.1179,-1.9826,-1.7352,-1.5056,-1.3242,-1.1126,-0.8247,-0.4499,-0.3447,-0.2038,-0.0111,-0.0,0.1444,0.4438,0.5622,0.6193,0.6073,-0.0164,-0.4181,-0.6145,-0.8436,-1.1273,-1.4366,-1.4462,-1.4451,-1.443,-1.3941,-1.2922,-1.1752,-1.2456,-0.8784,-0.2189,0.5717,0.7854,0.6901,0.6428,0.6003,0.563,0.5397,0.5114,0.5025,0.5556,0.5102,0.4542,0.5158,0.485,0.4651,0.5652,0.6614,0.7578,0.8569,0.9068,0.9235,0.8788,0.888,0.8917,0.8364,0.8496,0.8092,0.632,0.6616,0.67,0.5461,0.6514,0.8118,1.011,1.1527,0.9139,0.0933,0.6997,1.0895,0.955,0.7581,1.0552,2.0164,1.5668,1.2536,1.1978,0.2171,0.0957,0.9435,0.5605,0.8981,1.9462,1.7929,1.7126,1.695,1.5204,1.4222,1.3899,1.3621,1.3421,1.3244,1.2783,1.2435,1.219,1.219,1.2024,1.1805,1.1805,1.179,1.1747,-1.0797,-1.1509,-1.2252,-1.3989,-1.526,-1.6188,-1.6515,-1.7633,-1.8708,-1.9435,-1.9276,-1.9235,-1.9608,-1.9621,-1.9096,-1.7909,-1.6824,-1.4026,-0.8892,-0.6288,-0.3657,-0.0749,0.0429,0.1351,0.1966,0.4014,0.532,0.5909,0.6014,0.4812,0.2305,-0.0594,-0.377,-0.707,-0.8622,-1.0104,-1.1382,-1.1523,-1.1559,-1.1593,-1.1941,-1.1425,-1.0218,-0.8005,-0.4791,-0.0713,0.4773,0.686,0.7043,0.7263,0.7216,0.7088,0.713,0.6415,0.5623,0.5946,0.625,0.6425,0.6359,0.6389,0.6687,0.7629,0.839,0.9097,1.0024,1.0354,1.0291,0.975,0.96,0.9512,0.9342,0.9262,0.8912,0.7984,0.7598,0.7194,0.6449,0.7474,0.7963,0.6927,0.6914,0.5527,0.1869,0.3365,0.5257,0.6908,0.9955,1.4076,1.9308,1.2772,0.7357,0.3996,-0.3202,-0.4264,0.1501,0.4496,1.023,1.8601,1.7285,1.5989,1.4739,1.4375,1.4007,1.3691,1.3613,1.3393,1.307,1.2743,1.2435,1.2169,1.2003,1.1891,1.1805,1.1805,1.1805,1.1747,-1.0242,-1.0747,-1.1256,-1.2396,-1.3598,-1.4516,-1.4803,-1.593,-1.7022,-1.7762,-1.7425,-1.7133,-1.7257,-1.6984,-1.6637,-1.625,-1.4175,-1.0349,-0.437,-0.1213,0.1334,0.3318,0.4801,0.5628,0.5749,0.7131,0.7859,0.7712,0.6523,0.4433,0.1422,0.027,-0.2008,-0.5089,-0.6173,-0.7088,-0.7917,-0.7991,-0.7783,-0.7475,-0.7949,-0.7535,-0.6413,-0.4702,-0.185,0.1727,0.5356,0.7437,0.8439,0.8472,0.8555,0.8583,0.8053,0.7295,0.6522,0.6293,0.6635,0.6979,0.6571,0.6768,0.7265,0.816,0.8989,0.9872,1.1061,1.1659,1.1748,1.0897,1.0771,1.0666,1.0286,0.9951,0.952,0.8769,0.8105,0.7607,0.7346,0.8038,0.8393,0.7909,0.7729,0.6493,0.3681,0.4678,0.5024,0.377,0.8534,1.2086,1.3466,0.7956,0.2851,-0.1374,-0.7027,-0.7018,-0.0794,0.4117,1.0682,1.8743,1.7071,1.5416,1.3847,1.3891,1.376,1.3491,1.3491,1.3295,1.2946,1.2815,1.2591,1.2352,1.2291,1.2128,1.194,1.194,1.1891,1.1768,-0.8265,-0.8072,-0.8336,-1.0265,-1.0848,-1.1583,-1.3184,-1.4132,-1.519,-1.6545,-1.5778,-1.517,-1.5247,-1.4059,-1.3451,-1.3821,-0.9217,-0.4336,0.0242,0.4271,0.6868,0.7754,0.9446,1.0495,1.0702,0.9617,0.9264,0.9748,0.7367,0.5218,0.3291,0.2228,0.0921,-0.0653,-0.152,-0.2661,-0.3929,-0.3929,-0.3377,-0.2549,-0.2519,-0.1825,-0.0919,-0.1965,0.0544,0.4966,0.7392,0.9336,1.0631,0.9982,1.0025,1.0068,0.8415,0.7869,0.7656,0.6625,0.6458,0.6548,0.6121,0.6336,0.685,0.7686,0.8789,1.0125,1.1807,1.3007,1.3426,1.2247,1.2271,1.2188,1.1233,1.0654,0.9983,0.8822,0.8246,0.8059,0.8235,0.828,0.9233,1.1724,1.231,1.0539,0.5596,0.8717,0.7995,0.0552,0.3883,0.5668,0.4405,0.2153,-0.0682,-0.408,-0.8926,-0.7233,0.163,0.48,1.0715,1.9342,1.7028,1.5253,1.3988,1.3667,1.3443,1.3278,1.3261,1.309,1.2862,1.2926,1.2778,1.2572,1.2815,1.2607,1.2169,1.2169,1.2003,1.1805,-0.6838,-0.7368,-0.7868,-0.874,-0.9721,-1.0679,-1.1401,-1.211,-1.2614,-1.2875,-1.3233,-1.2258,-0.9002,-0.8306,-0.6237,-0.1677,-0.0,0.228,0.5804,1.142,1.403,1.2645,1.302,1.3082,1.2637,1.2382,1.1824,1.1031,1.0042,0.881,0.7278,0.5394,0.4314,0.4,0.2054,0.0975,0.0649,0.0649,0.0757,0.0972,0.105,0.1557,0.2526,0.4027,0.6046,0.8187,0.92,0.981,1.0255,1.1133,1.1186,1.0703,0.9984,0.9568,0.8939,0.701,0.7122,0.7772,0.7384,0.7753,0.8464,0.9391,1.0512,1.1728,1.2907,1.3385,1.3645,1.3834,1.3657,1.3297,1.2692,1.2212,1.1417,1.0012,0.972,0.9521,0.9171,0.9099,0.8931,0.8431,0.7643,0.5849,0.2517,0.0543,-0.0388,-0.0,0.1709,0.3312,0.459,0.2109,-0.0847,-0.4079,-0.5467,-0.3494,0.1957,0.9066,1.3758,1.5967,1.5571,1.4523,1.2948,1.2867,1.2928,1.3069,1.2855,1.2614,1.2376,1.2392,1.2231,1.2003,1.2066,1.2003,1.1876,1.1876,1.1854,1.1805,-0.5311,-0.5877,-0.6348,-0.7273,-0.8078,-0.8731,-0.9181,-0.9828,-1.0439,-1.0824,-1.133,-0.9863,-0.5172,-0.2701,0.0722,0.5941,0.5818,0.7415,1.209,1.4962,1.6087,1.5201,1.5005,1.4968,1.5082,1.4858,1.4334,1.3502,1.2792,1.1734,1.0375,0.8626,0.7707,0.7408,0.6153,0.5417,0.5177,0.5584,0.5756,0.5883,0.6307,0.6347,0.6343,0.7586,0.9004,1.0359,1.0745,1.1341,1.1983,1.2168,1.2161,1.1844,1.0702,1.0199,0.9767,0.8409,0.8252,0.8484,0.8206,0.8568,0.9259,1.0233,1.1309,1.2348,1.3193,1.3757,1.4154,1.4439,1.4442,1.4256,1.3822,1.3175,1.246,1.1662,1.1682,1.155,1.087,1.0708,0.9935,0.7967,0.6717,0.4771,0.1524,-0.0983,-0.2119,-0.1439,-0.0,0.1161,0.1879,0.0491,-0.176,-0.4864,-0.505,-0.2569,0.2659,1.0464,1.4465,1.4581,1.4519,1.3787,1.2416,1.2533,1.261,1.2626,1.2741,1.2475,1.206,1.2412,1.2332,1.1997,1.2113,1.2086,1.1982,1.1982,1.1912,1.1805,-0.3509,-0.3738,-0.4055,-0.5365,-0.5844,-0.6141,-0.6642,-0.7454,-0.8166,-0.8631,-0.8518,-0.65,-0.1584,0.2817,0.7038,1.1137,1.0479,1.2133,1.7548,1.6757,1.6279,1.6822,1.6366,1.6527,1.739,1.6895,1.644,1.6044,1.5114,1.3983,1.2665,1.1581,1.0751,1.0164,1.0075,0.9711,0.9264,0.9995,1.0339,1.0583,1.1205,1.0892,0.998,0.9798,1.0633,1.194,1.2271,1.3263,1.4272,1.3358,1.3266,1.3235,1.1468,1.0917,1.0829,1.0505,0.9903,0.9298,0.9023,0.9236,0.9754,1.0658,1.1599,1.2466,1.313,1.405,1.4796,1.4718,1.4968,1.5074,1.4658,1.392,1.339,1.331,1.3473,1.3276,1.2401,1.183,1.0715,0.8492,0.7347,0.5358,0.1883,0.06,-0.0726,-0.2395,-0.1392,-0.0835,-0.1276,-0.1326,-0.2383,-0.4614,-0.448,-0.1399,0.4838,1.0961,1.4098,1.4304,1.3897,1.3156,1.2226,1.2451,1.2431,1.221,1.2626,1.2416,1.1854,1.2549,1.2549,1.2149,1.2396,1.2336,1.2128,1.2128,1.1997,1.1805,-0.0636,-0.0926,-0.1189,-0.1811,-0.2633,-0.3416,-0.3993,-0.5076,-0.5045,-0.2944,-0.1153,0.1548,0.5744,0.8153,1.1415,1.6159,1.7328,1.8091,1.8767,1.899,1.9152,1.9261,1.8484,1.8135,1.8293,1.7626,1.7091,1.6723,1.5906,1.5006,1.3974,1.3245,1.2842,1.2696,1.2152,1.1847,1.1772,1.1868,1.1943,1.1943,1.1804,1.1908,1.2162,1.1864,1.2373,1.335,1.4408,1.4612,1.4531,1.5368,1.514,1.4449,1.386,1.3682,1.3619,1.3272,1.2539,1.1584,1.0388,1.0345,1.075,1.1136,1.177,1.2541,1.3494,1.4266,1.4949,1.5476,1.5639,1.5551,1.5104,1.4907,1.4657,1.4263,1.3645,1.2816,1.1714,1.0107,0.8544,0.7238,0.6406,0.5227,0.3419,0.1296,-0.0112,-0.0448,-0.2523,-0.2742,-0.0334,-0.0434,-0.0105,0.0998,0.2367,0.5892,1.1619,1.3621,1.449,1.4304,1.3897,1.3156,1.219,1.2231,1.2231,1.219,1.2045,1.1918,1.1826,1.194,1.194,1.1869,1.1897,1.1897,1.1854,1.1854,1.1848,1.1805,0.2472,0.2248,0.1891,0.0556,0.0226,0.0044,-0.0215,-0.0761,-0.0457,0.1385,0.3525,0.6931,1.2317,1.4385,1.6188,1.8286,1.9289,1.9777,1.9721,1.992,1.983,1.9266,1.9025,1.9004,1.9245,1.8717,1.8518,1.8679,1.7624,1.6892,1.6431,1.5403,1.492,1.4883,1.4598,1.4262,1.3949,1.4648,1.4541,1.397,1.4176,1.4457,1.4729,1.4582,1.5006,1.5805,1.6548,1.6507,1.6095,1.5942,1.5733,1.5386,1.4307,1.4257,1.4549,1.439,1.3385,1.212,1.1113,1.1084,1.1416,1.1695,1.2137,1.2663,1.3482,1.3946,1.434,1.5026,1.5036,1.497,1.5126,1.4569,1.4079,1.406,1.3711,1.2865,1.1255,1.0705,0.9605,0.7258,0.6647,0.5521,0.3091,0.11,0.0336,0.1118,-0.022,-0.0487,0.0962,0.1693,0.3243,0.5826,0.6717,0.8622,1.1664,1.2381,1.3086,1.3705,1.3022,1.252,1.2205,1.2045,1.1982,1.1997,1.2018,1.1918,1.1826,1.1976,1.1918,1.1805,1.1805,1.1805,1.1805,1.1805,1.1805,1.1805,0.5541,0.549,0.514,0.3517,0.3648,0.4074,0.4346,0.4838,0.5593,0.673,0.8664,1.1801,1.6741,1.8608,1.9435,1.9291,1.9774,2.0162,2.0304,2.0294,1.9919,1.9109,1.9236,1.95,1.9858,1.9525,1.9487,1.9851,1.8851,1.8275,1.8122,1.7148,1.6682,1.6635,1.6682,1.6393,1.5955,1.6924,1.6788,1.598,1.6481,1.6705,1.6751,1.6792,1.7209,1.7782,1.7907,1.7798,1.7446,1.6421,1.6265,1.6269,1.5081,1.5159,1.5648,1.5407,1.4171,1.266,1.1837,1.1736,1.1968,1.2235,1.2586,1.3018,1.3483,1.3785,1.4063,1.4517,1.4452,1.4475,1.4972,1.4291,1.3768,1.4083,1.3773,1.2794,1.0729,1.0773,0.9743,0.6476,0.6245,0.5238,0.2387,0.11,0.0882,0.2017,0.2711,0.3014,0.2863,0.443,0.6558,0.9316,0.9523,1.001,1.0952,1.1277,1.1993,1.3099,1.2279,1.1976,1.2086,1.1961,1.1869,1.1826,1.2018,1.1982,1.1826,1.2024,1.1997,1.1805,1.1805,1.1805,1.1805,1.1703,1.1681,1.1696,0.8392,0.848,0.8613,0.8472,0.8387,0.872,0.9812,1.1846,1.3706,1.5035,1.6357,1.7149,1.7195,1.8429,1.9375,1.9726,2.0139,2.0381,2.0389,2.0271,2.0125,1.9915,1.9805,1.9774,1.9806,1.9529,1.9206,1.8805,1.8592,1.8204,1.7642,1.7803,1.7812,1.7684,1.7815,1.7775,1.7625,1.7702,1.7645,1.7451,1.749,1.7519,1.7518,1.7675,1.7925,1.8178,1.7697,1.7567,1.7588,1.7567,1.7452,1.7361,1.7671,1.8031,1.8161,1.7288,1.5827,1.4231,1.2864,1.2517,1.2537,1.2572,1.3197,1.3762,1.3636,1.4316,1.492,1.4642,1.4677,1.4728,1.4669,1.4872,1.5061,1.5081,1.3883,1.2213,1.0077,0.8333,0.6227,0.3382,0.384,0.3739,0.1977,0.1725,0.1735,0.183,0.5047,0.6613,0.5844,0.7602,0.9223,1.0528,1.065,1.1315,1.26,1.2454,1.2546,1.2809,1.2366,1.2045,1.1848,1.2081,1.2024,1.1805,1.1826,1.1826,1.1805,1.1826,1.1826,1.1805,1.1805,1.1805,1.1747,1.1445,1.1341,1.1359,1.1176,1.1204,1.1201,1.0875,1.133,1.1947,1.2399,1.3706,1.5066,1.6202,1.7158,1.7922,1.8432,1.929,1.9917,2.0156,2.0308,2.0394,2.0394,2.0355,2.0255,2.0139,2.0042,2.0,1.9983,1.9846,1.963,1.9383,1.9165,1.8932,1.8708,1.8652,1.8583,1.8552,1.86,1.8583,1.8535,1.8535,1.8501,1.8467,1.8467,1.8573,1.8708,1.8772,1.8639,1.8412,1.8183,1.8135,1.7979,1.6877,1.7406,1.8348,1.7362,1.7436,1.7699,1.6893,1.6553,1.6224,1.5227,1.4254,1.368,1.4305,1.4474,1.4483,1.4521,1.4452,1.4314,1.4195,1.4017,1.3965,1.4275,1.413,1.396,1.3954,1.2935,1.1408,0.9248,0.763,0.6013,0.4282,0.4048,0.4056,0.3977,0.3974,0.4336,0.514,0.6404,0.7478,0.8246,1.0347,1.1698,1.2055,1.2474,1.2672,1.2555,1.2061,1.2017,1.2427,1.2103,1.1997,1.206,1.1982,1.1912,1.1805,1.1805,1.1805,1.1805,1.1805,1.1805,1.1805,1.1805,1.1805,1.1747,1.1423,1.1296,1.135,1.386,1.3921,1.391,1.3527,1.4242,1.4911,1.506,1.5647,1.641,1.7376,1.7962,1.8634,1.955,2.0003,2.0297,2.0396,2.0399,2.0399,2.0399,2.0399,2.0356,2.0277,2.0227,2.0184,2.0188,2.0142,1.9926,1.9485,1.9635,1.9519,1.9156,1.9363,1.9412,1.9345,1.9393,1.9375,1.9322,1.9345,1.9309,1.9276,1.93,1.9415,1.9594,1.9632,1.9213,1.8587,1.8343,1.807,1.7653,1.6327,1.6932,1.8042,1.7018,1.708,1.7536,1.7381,1.7441,1.752,1.7269,1.6289,1.5366,1.5765,1.561,1.5393,1.5485,1.4967,1.4441,1.4296,1.4024,1.387,1.3989,1.3994,1.3872,1.347,1.2781,1.1603,0.9696,0.8226,0.6981,0.5976,0.5194,0.4957,0.5575,0.5594,0.597,0.687,0.7428,0.8569,1.0577,1.2578,1.3536,1.3303,1.3855,1.3726,1.2854,1.213,1.188,1.2066,1.1891,1.1912,1.2081,1.1876,1.1805,1.1805,1.1805,1.1805,1.1805,1.1805,1.1805,1.1805,1.1681,1.1637,1.1579,1.1182,1.102,1.1085,1.6402,1.6637,1.6917,1.6917,1.7294,1.7778,1.8247,1.8353,1.8733,1.9591,1.976,1.9964,2.0368,2.0391,2.0404,2.0398,2.0406,2.0406,2.0406,2.0406,2.0396,2.0402,2.0391,2.0395,2.0396,2.0389,1.9869,1.8819,1.9869,1.9774,1.8652,1.983,2.0295,2.0115,2.0246,2.0197,1.9993,2.0068,2.0017,1.9913,1.9967,2.0002,2.0021,2.0146,1.9658,1.8798,1.798,1.7157,1.6374,1.6162,1.61,1.6262,1.705,1.7578,1.8141,1.9267,1.8691,1.7912,1.8766,1.8471,1.766,1.6673,1.6509,1.6568,1.6449,1.6049,1.5598,1.5181,1.5061,1.4724,1.3804,1.4771,1.532,1.412,1.3756,1.3101,1.1628,1.0166,0.8918,0.8024,0.6995,0.6321,0.6327,0.6327,0.6263,0.6137,0.8118,1.0446,1.2979,1.4263,1.4659,1.4127,1.4517,1.4421,1.381,1.3004,1.2335,1.1805,1.1805,1.1805,1.1805,1.1805,1.1805,1.1805,1.1805,1.1805,1.1805,1.1805,1.1805,1.1783,1.1423,1.1296,1.1227,1.064,1.0409,1.0531,1.7869,1.7942,1.8015,1.8015,1.8483,1.8929,1.9113,1.9402,1.9693,2.0017,2.0143,2.0277,2.0382,2.0409,2.039,2.0398,2.0398,2.0398,2.0398,2.0398,2.0404,2.0409,2.0352,2.0332,2.0331,1.9779,1.9616,1.9858,1.9606,1.9612,1.9864,2.0233,2.036,2.0313,2.0357,2.0011,1.941,1.9988,1.9866,1.9321,1.997,2.0211,2.0211,2.025,1.9727,1.8851,1.8059,1.7608,1.7182,1.5963,1.627,1.7171,1.7274,1.778,1.8391,1.8786,1.9032,1.9238,1.9492,1.9395,1.9089,1.8511,1.8041,1.7601,1.7139,1.6878,1.6546,1.5815,1.5905,1.6043,1.5765,1.6052,1.6127,1.5431,1.5069,1.4417,1.3057,1.2159,1.122,1.0084,0.8984,0.8381,0.8477,0.7786,0.7685,0.8431,1.0356,1.2083,1.3532,1.4498,1.4892,1.4545,1.5105,1.5106,1.4521,1.3056,1.2386,1.2516,1.2014,1.1805,1.1805,1.1805,1.1805,1.1805,1.1805,1.1805,1.1805,1.1805,1.1805,1.1783,1.1423,1.1296,1.1285,1.1063,1.0952,1.107,1.9092,1.9092,1.907,1.9058,1.9372,1.9645,1.9691,1.9955,2.016,2.0236,2.0328,2.0398,2.0366,2.0359,2.0369,2.0369,2.0369,2.0369,2.0369,2.0369,2.0369,2.0369,2.0313,2.0318,2.0337,1.9541,1.9353,1.9824,1.9019,1.9063,1.9879,1.9558,1.9579,1.9867,1.9526,1.9052,1.8583,1.909,1.9003,1.8591,1.95,1.9851,1.9854,1.9862,1.9523,1.8926,1.8135,1.7614,1.7161,1.6164,1.6193,1.6785,1.7339,1.7776,1.8239,1.8961,1.9492,1.9869,1.9813,1.9899,1.9836,1.9195,1.869,1.8214,1.7853,1.7501,1.7079,1.6492,1.6783,1.7046,1.6664,1.6922,1.6986,1.6429,1.6209,1.5768,1.4819,1.4151,1.3356,1.2307,1.1242,1.0561,1.0505,0.9779,0.9752,1.0849,1.2201,1.3406,1.4471,1.5316,1.5576,1.5139,1.5759,1.5814,1.5218,1.3854,1.3261,1.3389,1.2847,1.2448,1.2194,1.2194,1.2194,1.2164,1.191,1.1939,1.2164,1.191,1.1805,1.1762,1.131,1.1282,1.1416,1.111,1.1154,1.1433,2.0026,2.0034,2.0007,1.9955,1.9991,2.0031,2.003,2.0126,2.0228,2.0292,2.0347,2.0369,2.0312,2.0312,2.0312,2.0312,2.0312,2.0285,2.0277,2.0277,2.0269,2.026,2.026,2.0288,2.0353,1.9584,1.9192,1.9204,1.839,1.8381,1.9094,1.8437,1.8484,1.9071,1.828,1.7845,1.7715,1.7861,1.7866,1.7866,1.8821,1.9235,1.9281,1.9121,1.9076,1.8985,1.8091,1.7268,1.659,1.6518,1.6007,1.5686,1.7298,1.7742,1.7962,1.9564,2.0022,2.0003,1.9888,2.0012,1.9961,1.9047,1.8564,1.8319,1.8319,1.7924,1.7459,1.7184,1.7688,1.789,1.7027,1.7613,1.7984,1.7282,1.7271,1.7162,1.6668,1.604,1.5354,1.4602,1.3581,1.2834,1.2518,1.2083,1.2247,1.3226,1.3703,1.4471,1.5634,1.6385,1.6536,1.5959,1.6464,1.6487,1.599,1.5291,1.4756,1.4389,1.3985,1.3481,1.2891,1.2891,1.2891,1.2861,1.2239,1.2261,1.2709,1.2134,1.1836,1.1726,1.1179,1.1264,1.1642,1.1015,1.114,1.1677,2.0249,2.0281,2.0289,2.0219,2.023,2.0235,2.022,2.0254,2.0282,2.0299,2.0306,2.0331,2.0312,2.0312,2.0312,2.0312,2.0312,2.0233,2.0078,2.0069,2.0022,1.9909,1.9909,1.9962,2.0088,1.9449,1.943,2.0044,1.9233,1.8956,1.9192,1.9645,1.9606,1.9179,1.8973,1.8474,1.7825,1.8509,1.8401,1.781,1.8691,1.945,1.9919,1.8549,1.8434,1.8823,1.7332,1.6676,1.6424,1.5787,1.587,1.6438,1.7523,1.8326,1.9023,1.9953,2.0233,2.0233,2.0208,1.9761,1.9234,1.9001,1.7934,1.6934,1.6934,1.8217,1.9021,1.77,1.8478,1.9326,1.9008,1.9044,1.899,1.8626,1.8503,1.822,1.7535,1.7313,1.6963,1.6338,1.5397,1.479,1.4716,1.4008,1.3929,1.4833,1.5009,1.5485,1.648,1.6696,1.6862,1.6954,1.7113,1.7229,1.7361,1.6964,1.6185,1.5071,1.4212,1.3735,1.3585,1.3585,1.3585,1.3585,1.3436,1.2991,1.2424,1.252,1.2249,1.1727,1.1576,1.1696,1.1895,1.1591,1.1785,1.2252,2.0354,2.0375,2.0378,2.0304,2.0334,2.0345,2.0293,2.0301,2.0299,2.0308,2.0312,2.0312,2.0312,2.0312,2.0249,2.0161,2.0107,2.0021,1.9912,1.9893,1.988,1.979,1.979,1.9824,1.9912,1.9592,1.9715,2.0296,1.9054,1.8876,1.9715,1.891,1.8742,1.9064,1.8262,1.7851,1.7786,1.8171,1.8045,1.7673,1.8448,1.8847,1.886,1.7882,1.8121,1.8831,1.7509,1.7336,1.7619,1.6771,1.6772,1.7285,1.8191,1.8788,1.9313,2.0106,2.0346,2.035,2.035,2.0004,1.9569,1.9146,1.8672,1.8101,1.726,1.8018,1.8748,1.8229,1.9068,1.9858,1.9713,1.9651,1.9531,1.9397,1.9167,1.8728,1.795,1.7685,1.7223,1.6321,1.6047,1.5889,1.5805,1.5384,1.5283,1.5753,1.578,1.6153,1.6986,1.7027,1.7231,1.7698,1.7618,1.7687,1.7992,1.7532,1.6857,1.6019,1.5324,1.4743,1.4274,1.4274,1.4274,1.4259,1.3944,1.3546,1.3147,1.3038,1.2495,1.1718,1.1804,1.1906,1.2004,1.2019,1.2058,1.214,2.0395,2.0399,2.0378,2.0309,2.0346,2.0364,2.0303,2.0296,2.0312,2.0312,2.0277,2.0241,2.0241,2.0225,2.0162,1.9983,1.9869,1.9797,1.9774,1.9774,1.9762,1.9707,1.9707,1.9719,1.9774,1.9797,1.9941,2.0241,1.8808,1.877,1.9992,1.7886,1.7622,1.8846,1.732,1.709,1.783,1.7725,1.7585,1.75,1.8075,1.7964,1.7452,1.7188,1.7766,1.8613,1.7852,1.8121,1.8742,1.8042,1.791,1.815,1.8711,1.9102,1.9474,2.0032,2.0289,2.0398,2.041,2.0299,2.001,1.9303,1.9509,1.9559,1.8248,1.8049,1.829,1.8731,1.9486,2.0003,1.9858,1.9847,1.9809,1.9601,1.9337,1.8818,1.7937,1.7503,1.6888,1.5834,1.6262,1.6625,1.6546,1.6533,1.6533,1.6533,1.6496,1.6744,1.7422,1.7446,1.7676,1.8187,1.7992,1.7971,1.8187,1.767,1.7199,1.6789,1.6528,1.5899,1.4962,1.4962,1.4962,1.4932,1.4378,1.4109,1.3999,1.3553,1.2798,1.1939,1.2159,1.2282,1.235,1.2494,1.2208,1.1811,2.0323,2.0366,2.0377,2.0318,2.0315,2.0319,2.0304,2.0308,2.0312,2.0312,2.0152,2.0031,2.0031,1.9952,1.9866,1.9824,1.9802,1.975,1.9636,1.9623,1.9536,1.938,1.938,1.9452,1.9623,1.9738,1.988,2.0031,1.9802,1.9458,1.8991,1.8654,1.8507,1.8539,1.7595,1.7652,1.8396,1.8375,1.7971,1.733,1.7423,1.7443,1.7331,1.6555,1.6791,1.753,1.7518,1.7685,1.7869,1.7816,1.8332,1.8899,1.8262,1.913,2.0253,1.9569,1.9899,2.0476,2.0414,1.9895,1.9327,1.9211,1.8689,1.837,1.8885,1.9487,1.9765,1.9104,1.9662,2.0197,2.0003,2.0125,1.9887,1.8839,1.8787,1.8434,1.7232,1.6895,1.666,1.6255,1.6853,1.7458,1.7877,1.7924,1.7924,1.7924,1.7698,1.7732,1.8044,1.8082,1.8125,1.8187,1.8166,1.8166,1.8187,1.7905,1.7408,1.6789,1.6763,1.6363,1.5664,1.5664,1.5664,1.5664,1.5574,1.4862,1.3766,1.3927,1.3528,1.2854,1.3171,1.3431,1.3611,1.3217,1.2555,1.1811,2.0389,2.0696,2.0869,2.0389,2.0677,2.0831,2.0369,2.0312,2.0312,2.0312,2.0214,2.0124,2.0022,1.9802,1.9695,1.9695,1.9585,1.949,1.9442,1.9423,1.938,1.9305,1.9305,1.9335,1.9442,1.949,1.9593,1.9786,1.9933,1.9821,1.9469,1.8897,1.8844,1.9194,1.8346,1.844,1.922,1.9145,1.8902,1.8577,1.846,1.8205,1.7858,1.7386,1.76,1.8222,1.8835,1.9092,1.9158,1.9189,1.9465,1.9745,1.9412,1.9834,2.041,2.0077,2.0254,2.0546,2.0516,2.0258,1.9977,1.9935,1.9632,1.9439,1.9787,2.0122,2.0243,1.9815,2.0023,2.0277,2.0169,1.9838,1.9396,1.8875,1.8782,1.845,1.7433,1.7558,1.764,1.7289,1.7545,1.791,1.8382,1.8836,1.9102,1.9102,1.8979,1.8979,1.9082,1.8658,1.8489,1.8642,1.8351,1.827,1.843,1.8425,1.8167,1.7694,1.8095,1.7416,1.5799,1.5799,1.5799,1.5799,1.5799,1.5169,1.4162,1.4525,1.3986,1.3076,1.3779,1.4141,1.4214,1.4,1.3315,1.2543]},{"header":{"parameterUnit":"m.s-1","parameterCategory":1,"la1":30.6,"la2":28.766,"lo1":-90.7593,"lo2":-88.6598,"dy":0.0162,"dx":0.0183,"nx":116,"ny":114,"refTime":"2023-04-28T18:00:00:Z","depth":0,"parameterNumber":3,"parameterNumberName":"V-component_of_WINDS"},"data":[0.0,0.0,0.0,0.0,0.0,0.0,0.0,0.0,0.0,0.0,0.0,0.0,0.0,0.0,0.0,0.0,0.0,0.0,0.0,0.0,0.0,0.0,0.0,0.0,0.0,0.0,0.0,0.0,0.0,0.0,0.0,0.0,0.0,0.0,0.0,0.0,0.0,0.0,0.0,0.0,0.0,0.0,0.0,0.0,0.0,0.0,0.0,0.0,0.0,0.0,0.0,0.0,0.0,0.0,0.0,0.0,0.0,0.0,0.0,0.0,0.0,0.0,0.0,0.0,0.0,0.0,0.0,0.0,0.0,0.0,0.0,0.0,0.0,0.0,0.0,0.0,0.0,0.0,0.0,0.0,0.0,0.0,0.0,0.0,0.0,0.0,0.0,0.0,0.0,0.0,0.0,0.0,0.0,0.0,0.0,0.0,0.0,0.0,0.0,0.0,0.0,0.0,0.0,0.0,0.0,0.0,0.0,0.0,0.0,0.0,0.0,0.0,0.0,0.0,0.0,0.0,0.0,0.0,0.0,0.0,0.0,0.0,0.0,0.0,0.0,0.0,0.0,0.0,0.0,0.0,0.0,0.0,0.0,0.0,0.0,0.0,0.0,0.0,0.0,0.0,0.0,0.0,0.0,0.0,0.0,0.0,0.0,0.0,0.0,0.0,0.0,0.0,0.0,0.0,0.0,0.0,0.0,0.0,0.0,0.0,0.0,0.0,0.0,0.0,0.0,0.0,0.0,0.0,0.0,0.0,0.0,0.0,0.0,0.0,0.0,0.0,0.0,0.0,0.0,0.0,0.0,0.0,0.0,0.0,0.0,0.0,0.0,0.0,0.0,0.0,0.0,0.0,0.0,0.0,0.0,0.0,0.0,0.0,0.0,0.0,0.0,0.0,0.0,0.0,0.0,0.0,0.0,0.0,0.0,0.0,0.0,0.0,0.0,0.0,0.0,0.0,0.0,0.0,0.0,0.0,0.0,0.0,0.0,0.0,0.0,0.0,0.0,0.0,0.0,0.0,0.0,0.0,0.0,0.0,0.0,0.0,0.0,0.0,0.0,0.0,0.0,0.0,0.0,0.0,0.0,0.0,0.0,0.0,0.0,0.0,0.0,0.0,0.0,0.0,0.0,0.0,0.0,0.0,0.0,0.0,0.0,0.0,0.0,0.0,0.0,0.0,0.0,0.0,0.0,0.0,0.0,0.0,0.0,0.0,0.0,0.0,0.0,0.0,0.0,0.0,0.0,0.0,0.0,0.0,0.0,0.0,0.0,0.0,0.0,0.0,0.0,0.0,0.0,0.0,0.0,0.0,0.0,0.0,0.0,0.0,0.0,0.0,0.0,0.0,0.0,0.0,0.0,0.0,0.0,0.0,0.0,0.0,0.0,0.0,0.0,0.0,0.0,0.0,0.0,0.0,0.0,0.0,0.0,0.0,0.0,0.0,0.0,0.0,0.0,0.0,0.0,0.0,0.0,0.0,0.0,0.0,0.0,0.0,0.0,0.0,0.0,0.0,0.0,0.0,0.0,0.0,0.0,0.0,0.0,0.0,0.0,0.0,0.0,0.0,0.0,0.0,0.0,0.0,0.0,0.0,0.0,0.0,0.0,0.0,0.0,0.0,0.0,0.0,0.0,0.0,0.0,0.0,0.0,0.0,0.0,0.0,0.0,0.0,0.0,0.0,0.0,0.0,0.0,0.0,0.0,0.0,0.0,0.0,0.0,0.0,0.0,0.0,0.0,0.0,0.0,0.0,0.0,0.0,0.0,0.0,0.0,0.0,0.0,0.0,0.0,0.0,0.0,0.0,0.0,0.0,0.0,0.0,0.0,0.0,0.0,0.0,0.0,0.0,0.0,0.0,0.0,0.0,0.0,0.0,0.0,0.0,0.0,0.0,0.0,0.0,0.0,0.0,0.0,0.0,0.0,0.0,0.0,0.0,0.0,0.0,0.0,0.0,0.0,0.0,0.0,0.0,0.0,0.0,0.0,0.0,0.0,0.0,0.0,0.0,0.0,0.0,0.0,0.0,0.0,0.0,0.0,0.0,0.0,0.0,0.0,0.0,0.0,0.0,0.0,0.0,0.0,0.0,0.0,0.0,0.0,0.0,0.0,0.0,0.0,0.0,0.0,0.0,0.0,0.0,0.0,0.0,0.0,0.0,0.0,0.0,0.0,0.0,0.0,0.0,0.0,0.0,0.0,0.0,0.0,0.0,0.0,0.0,0.0,0.0,0.0,0.0,0.0,0.0,0.0,0.0,0.0,0.0,0.0,0.0,0.0,0.0,0.0,0.0,0.0,0.0,0.0,0.0,0.0,0.0,0.0,0.0,0.0,0.0,0.0,0.0,0.0,0.0,0.0,0.0,0.0,0.0,0.0,0.0,0.0,0.0,0.0,0.0,0.0,0.0,0.0,0.0,0.0,0.0,0.0,0.0,0.0,0.0,0.0,0.0,0.0,0.0,0.0,0.0,0.0,0.0,0.0,0.0,0.0,0.0,0.0,0.0,0.0,0.0,0.0,0.0,0.0,0.0,0.0,0.0,0.0,0.0,0.0,0.0,0.0,0.0,0.0,0.0,0.0,0.0,0.0,0.0,0.0,0.0,0.0,0.0,0.0,0.0,0.0,0.0,0.0,0.0,0.0,0.0,0.0,0.0,0.0,0.0,0.0,0.0,0.0,0.0,0.0,0.0,0.0,0.0,0.0,0.0,0.0,0.0,0.0,0.0,0.0,0.0,0.0,0.0,0.0,0.0,0.0,0.0,0.0,0.0,0.0,0.0,0.0,0.0,0.0,0.0,0.0,0.0,0.0,0.0,0.0,0.0,0.0,0.0,0.0,0.0,0.0,0.0,0.0,0.0,0.0,0.0,0.0,0.0,0.0,0.0,0.0,0.0,0.0,0.0,0.0,0.0,0.0,0.0,0.0,0.0,0.0,0.0,0.0,0.0,0.0,0.0,0.0,0.0,0.0,0.0,0.0,0.0,0.0,0.0,0.0,0.0,0.0,0.0,0.0,0.0,0.0,0.0,0.0,0.0,0.0,0.0,0.0,0.0,0.0,0.0,0.0,0.0,0.0,0.0,0.0,0.0,0.0,0.0,0.0,0.0,0.0,0.0,0.0,0.0,0.0,0.0,0.0,0.0,0.0,0.0,0.0,0.0,0.0,0.0,0.0,0.0,0.0,0.0,0.0,0.0,0.0,0.0,0.0,0.0,0.0,0.0,0.0,0.0,0.0,0.0,0.0,0.0,0.0,0.0,0.0,0.0,0.0,0.0,0.0,0.0,0.0,0.0,0.0,0.0,0.0,0.0,0.0,0.0,0.0,0.0,0.0,0.0,0.0,0.0,0.0,0.0,0.0,0.0,0.0,0.0,0.0,0.0,0.0,0.0,0.0,0.0,0.0,0.0,0.0,0.0,0.0,0.0,0.0,0.0,0.0,0.0,0.0,0.0,0.0,0.0,0.0,0.0,0.0,0.0,0.0,0.0,0.0,0.0,0.0,0.0,0.0,0.0,0.0,0.0,0.0,0.0,0.0,0.0,0.0,0.0,0.0,0.0,0.0,0.0,0.0,0.0,0.0,0.0,0.0,0.0,0.0,0.0,0.0,0.0,0.0,0.0,0.0,0.0,0.0,0.0,0.0,0.0,0.0,0.0,0.0,0.0,0.0,0.0,0.0,0.0,0.0,0.0,0.0,0.0,0.0,0.0,0.0,0.0,0.0,0.0,0.0,0.0,0.0,0.0,0.0,0.0,0.0,0.0,0.0,0.0,0.0,0.0,0.0,0.0,0.0,0.0,0.0,0.0,0.0,0.0,0.0,0.0,0.0,0.0,0.0,0.0,0.0,0.0,0.0,0.0,0.0,0.0,0.0,0.0,0.0,0.0,0.0,0.0,0.0,0.0,0.0,0.0,0.0,0.0,0.0,0.0,0.0,0.0,0.0,0.0,0.0,0.0,0.0,0.0,0.0,0.0,0.0,0.0,0.0,0.0,0.0,0.0,0.0,0.0,0.0,0.0,0.0,0.0,0.0,0.0,0.0,0.0,0.0,0.0,0.0,0.0,0.0,0.0,0.0,0.0,0.0,0.0,0.0,0.0,0.0,0.0,0.0,0.0,0.0,0.0,0.0,0.0,0.0,0.0,0.0,0.0,0.0,0.0,0.0,0.0,0.0,0.0,0.0,0.0,0.0,0.0,0.0,0.0,0.0,0.0,0.0,0.0,0.0,0.0,0.0,0.0,0.0,0.0,0.0,0.0,0.0,0.0,0.0,0.0,0.0,0.0,0.0,0.0,0.0,0.0,0.0,0.0,0.0,0.0,0.0,0.0,0.0,0.0,0.0,0.0,0.0,0.0,0.0,0.0,0.0,0.0,0.0,0.0,0.0,0.0,0.0,0.0,0.0,0.0,0.0,0.0,0.0,0.0,0.0,0.0,0.0,0.0,0.0,0.0,0.0,0.0,0.0,0.0,0.0,0.0,0.0,0.0,0.0,0.0,0.0,0.0,0.0,0.0,0.0,0.0,0.0,0.0,0.0,0.0,0.0,0.0,0.0,0.0,0.0,0.0,0.0,0.0,0.0,0.0,0.0,0.0,0.0,0.0,0.0,0.0,0.0,0.0,0.0,0.0,0.0,0.0,0.0,0.0,0.0,0.0,0.0,0.0,0.0,0.0,0.0,0.0,0.0,0.0,0.0,0.0,0.0,0.0,0.0,0.0,0.0,0.0,0.0,0.0,0.0,0.0,0.0,0.0,0.0,0.0,0.0,0.0,0.0,0.0,0.0,0.0,0.0,0.0,0.0,0.0,0.0,0.0,0.0,0.0,0.0,0.0,0.0,0.0,0.0,0.0,0.0,0.0,0.0,0.0,0.0,0.0,0.0,0.0,0.0,0.0,0.0,0.0,0.0,0.0,0.0,0.0,0.0,0.0,0.0,0.0,0.0,0.0,0.0,0.0,0.0,0.0,0.0,0.0,0.0,0.0,0.0,0.0,0.0,0.0,0.0,0.0,0.0,0.0,0.0,0.0,0.0,0.0,0.0,0.0,0.0,0.0,0.0,0.0,0.0,0.0,0.0,0.0,0.0,0.0,0.0,0.0,0.0,0.0,0.0,0.0,0.0,0.0,0.0,0.0,0.0,0.0,0.0,0.0,0.0,0.0,0.0,0.0,0.0,0.0,0.0,0.0,0.0,0.0,0.0,0.0,0.0,0.0,0.0,0.0,0.0,0.0,0.0,0.0,0.0,0.0,0.0,0.0,0.0,0.0,0.0,0.0,0.0,0.0,0.0,0.0,0.0,0.0,0.0,0.0,0.0,0.0,0.0,0.0,0.0,0.0,0.0,0.0,0.0,0.0,0.0,0.0,0.0,0.0,0.0,0.0,0.0,0.0,0.0,0.0,0.0,0.0,0.0,0.0,0.0,0.0,0.0,0.0,0.0,0.0,0.0,0.0,0.0,0.0,0.0,0.0,0.0,0.0,0.0,0.0,0.0,0.0,0.0,0.0,0.0,0.0,0.0,0.0,0.0,0.0,0.0,0.0,0.0,0.0,0.0,0.0,0.0,0.0,0.0,0.0,0.0,0.0,0.0,0.0,0.0,0.0,0.0,0.0,0.0,0.0,0.0,0.0,0.0,0.0,0.0,0.0,0.0,0.0,0.0,0.0,0.0,0.0,0.0,0.0,0.0,0.0,0.0,0.0,0.0,0.0,0.0,0.0,0.0,0.0,0.0,0.0,0.0,0.0,0.0,0.0,0.0,0.0,0.0,0.0,0.0,0.0,0.0,0.0,0.0,0.0,0.0,0.0,0.0,0.0,0.0,0.0,0.0,0.0,0.0,0.0,0.0,0.0,0.0,0.0,0.0,0.0,0.0,0.0,0.0,0.0,0.0,0.0,0.0,0.0,0.0,0.0,0.0,0.0,0.0,0.0,0.0,0.0,0.0,0.0,0.0,0.0,0.0,0.0,0.0,0.0,0.0,0.0,0.0,0.0,0.0,0.0,0.0,0.0,0.0,0.0,0.0,0.0,0.0,0.0,0.0,0.0,0.0,0.0,0.0,0.0,0.0,0.0,0.0,0.0,0.0,0.0,0.0,0.0,0.0,0.0,-3.1902,-3.1395,0.0,0.0,0.0,0.0,0.0,0.0,0.0,0.0,0.0,0.0,0.0,0.0,0.0,0.0,0.0,0.0,0.0,0.0,0.0,0.0,0.0,0.0,0.0,0.0,0.0,0.0,0.0,0.0,0.0,0.0,0.0,0.0,0.0,0.0,0.0,0.0,0.0,0.0,-2.5235,-2.6168,-2.6642,-2.6715,-2.675,-2.6736,0.0,0.0,0.0,0.0,0.0,0.0,0.0,0.0,0.0,0.0,0.0,0.0,0.0,0.0,0.0,0.0,0.0,0.0,0.0,0.0,0.0,0.0,0.0,0.0,0.0,0.0,0.0,0.0,0.0,0.0,0.0,0.0,0.0,0.0,0.0,0.0,0.0,0.0,0.0,0.0,0.0,0.0,0.0,0.0,0.0,0.0,0.0,0.0,0.0,0.0,0.0,0.0,0.0,0.0,0.0,0.0,0.0,0.0,0.0,0.0,0.0,0.0,0.0,0.0,0.0,0.0,0.0,0.0,0.0,0.0,-3.2493,-3.198,0.0,0.0,0.0,0.0,0.0,0.0,0.0,0.0,0.0,0.0,0.0,0.0,0.0,0.0,0.0,0.0,0.0,0.0,0.0,0.0,0.0,0.0,0.0,0.0,-2.0473,-2.0778,-2.0633,-2.0616,0.0,0.0,0.0,0.0,0.0,0.0,0.0,0.0,0.0,-2.5268,-2.6294,-2.7371,-2.8465,-2.8343,-2.8055,-2.7635,-2.7001,0.0,0.0,0.0,0.0,0.0,0.0,0.0,0.0,0.0,0.0,0.0,0.0,0.0,0.0,0.0,0.0,0.0,0.0,0.0,0.0,0.0,0.0,0.0,0.0,0.0,0.0,0.0,0.0,0.0,0.0,0.0,0.0,0.0,0.0,0.0,0.0,0.0,0.0,0.0,0.0,0.0,0.0,0.0,0.0,0.0,0.0,0.0,0.0,0.0,0.0,0.0,0.0,0.0,0.0,0.0,0.0,0.0,0.0,0.0,0.0,0.0,0.0,0.0,-3.28,-3.2929,-3.3818,-3.3707,-3.3535,-3.3251,-3.3342,-3.2961,-3.2335,-3.2211,0.0,0.0,0.0,0.0,0.0,0.0,0.0,0.0,0.0,0.0,0.0,0.0,0.0,0.0,0.0,0.0,0.0,0.0,0.0,0.0,0.0,-2.0615,-2.1023,-2.1909,-2.1891,-2.1891,0.0,0.0,0.0,0.0,0.0,0.0,0.0,-2.4347,-2.4927,-2.5137,-2.6812,-2.8578,-3.0316,-2.9405,-2.9721,-3.0963,-2.8641,-2.7515,-2.7361,0.0,0.0,0.0,0.0,0.0,0.0,0.0,0.0,0.0,0.0,0.0,0.0,0.0,0.0,0.0,0.0,0.0,0.0,0.0,0.0,0.0,0.0,0.0,0.0,0.0,0.0,0.0,0.0,0.0,0.0,0.0,0.0,0.0,0.0,0.0,0.0,0.0,0.0,0.0,0.0,0.0,-3.5663,-3.4881,0.0,0.0,0.0,0.0,0.0,0.0,0.0,0.0,0.0,0.0,0.0,0.0,0.0,-3.5299,-3.4666,-3.5006,-3.4908,-3.4422,-3.4255,-3.3929,-3.3541,-3.3556,-3.353,-3.3487,-3.4045,0.0,-3.2851,-3.2256,0.0,0.0,0.0,0.0,0.0,0.0,0.0,0.0,0.0,0.0,0.0,0.0,0.0,0.0,0.0,0.0,0.0,0.0,0.0,0.0,0.0,-2.284,-2.3311,-2.4199,-2.3898,-2.3531,-2.319,-2.2787,0.0,0.0,0.0,-2.336,-2.3708,-2.4174,-2.5146,-2.6625,-2.8047,-2.9367,-3.0522,-3.0078,-3.0267,-3.0938,-3.029,-2.9609,-2.9008,-2.9546,0.0,0.0,0.0,0.0,0.0,0.0,0.0,0.0,0.0,0.0,0.0,0.0,0.0,0.0,0.0,0.0,0.0,0.0,0.0,0.0,0.0,0.0,0.0,0.0,0.0,0.0,0.0,0.0,0.0,0.0,0.0,0.0,0.0,0.0,0.0,0.0,0.0,0.0,0.0,-3.5676,-3.5723,-3.5276,-3.5878,-3.5834,0.0,0.0,0.0,0.0,0.0,0.0,0.0,0.0,0.0,-3.5102,-3.4926,-3.4584,-3.3956,-3.4253,-3.4431,-3.456,-3.4542,-3.4514,-3.4622,-3.4622,-3.4622,-3.4637,-3.4921,-3.4816,-3.4358,-3.3357,-3.3029,-3.2963,0.0,0.0,0.0,0.0,-3.0376,-3.024,0.0,0.0,0.0,0.0,0.0,0.0,0.0,0.0,0.0,0.0,0.0,0.0,-2.417,-2.4588,-2.5156,-2.6223,-2.5701,-2.5218,-2.4956,-2.4471,0.0,0.0,0.0,-2.4369,-2.4801,-2.5018,-2.6133,-2.8182,-2.9224,-3.0085,-3.0758,-3.0567,-3.0679,-3.1083,-3.1756,-3.1354,-3.0195,-3.1116,-3.0762,-2.9634,0.0,0.0,0.0,0.0,0.0,0.0,0.0,0.0,0.0,0.0,0.0,0.0,0.0,0.0,0.0,0.0,0.0,0.0,0.0,0.0,0.0,0.0,0.0,0.0,0.0,0.0,0.0,0.0,0.0,0.0,0.0,0.0,0.0,0.0,0.0,0.0,0.0,-3.5717,-3.6191,-3.563,-3.6241,-3.6292,0.0,0.0,0.0,0.0,0.0,0.0,-3.596,-3.5808,-3.5493,-3.51,-3.4711,-3.4288,-3.3717,-3.3894,-3.4262,-3.4741,-3.4741,-3.5011,-3.5504,-3.5504,-3.5504,-3.5504,-3.5504,-3.54,-3.5164,-3.4086,-3.3686,-3.3513,-3.1626,-3.1181,-3.1566,-3.1255,-3.1013,-3.0886,0.0,0.0,0.0,0.0,0.0,0.0,0.0,0.0,0.0,0.0,0.0,-2.188,-2.4321,-2.4704,-2.5499,-2.7275,-2.6799,-2.6823,-2.7728,-2.6169,-2.5899,-2.7415,-2.6022,-2.5943,-2.7465,-2.8305,-2.889,-2.9218,-2.9983,-3.0823,-3.1711,-3.0814,-3.1256,-3.2776,-3.2942,-3.1956,-3.0245,-3.1328,-3.1668,-3.1416,-3.0901,0.0,0.0,0.0,0.0,0.0,0.0,0.0,0.0,0.0,0.0,0.0,0.0,0.0,0.0,0.0,0.0,0.0,0.0,0.0,0.0,0.0,0.0,0.0,0.0,0.0,0.0,0.0,0.0,0.0,0.0,0.0,0.0,0.0,0.0,0.0,0.0,0.0,0.0,-3.5345,-3.678,0.0,0.0,0.0,0.0,-3.4851,-3.4465,-3.4379,-3.4781,-3.451,-3.4446,-3.453,-3.5127,-3.511,-3.443,-3.5055,-3.5429,-3.5444,-3.5444,-3.5474,-3.5504,-3.5504,-3.5504,-3.5504,-3.5504,-3.513,-3.4472,-3.38,-3.3455,-3.3254,-3.1913,-3.133,-3.1241,-3.1379,-3.1327,-3.1321,0.0,0.0,0.0,0.0,0.0,0.0,0.0,0.0,-2.2741,-2.2691,-2.3518,-2.4512,-2.5574,-2.6505,-2.7501,-2.8628,-2.7747,-2.7082,-2.6927,-2.6428,-2.5909,-2.5436,-2.6381,-2.7193,-2.7823,-2.8714,-2.9205,-2.9247,-3.0098,-3.0664,-3.0879,-3.059,-3.0775,-3.1391,-3.205,-3.2248,-3.2191,-3.3138,-3.3207,-3.2677,-3.2467,-3.1576,0.0,0.0,0.0,0.0,0.0,0.0,0.0,0.0,0.0,0.0,0.0,0.0,0.0,0.0,0.0,0.0,0.0,0.0,0.0,0.0,0.0,0.0,0.0,0.0,0.0,0.0,0.0,0.0,0.0,0.0,0.0,0.0,0.0,0.0,0.0,0.0,0.0,-3.5383,-3.6149,0.0,-3.5043,-3.5225,-3.5273,-3.4961,-3.5462,-3.583,-3.6005,-3.5849,-3.6052,-3.6579,-3.636,-3.6076,-3.5845,-3.6105,-3.5943,-3.5504,-3.5504,-3.5504,-3.5504,-3.5504,-3.5504,-3.5489,-3.504,-3.4997,-3.508,-3.3949,-3.3771,-3.4063,-3.3614,-3.315,-3.271,-3.2726,-3.2201,-3.1483,0.0,0.0,0.0,0.0,0.0,0.0,0.0,0.0,-2.3159,-2.3036,-2.4279,-2.543,-2.6041,-2.6933,-2.7803,-2.8569,-2.7525,-2.6716,-2.6469,-2.618,-2.5768,-2.5274,-2.7176,-2.828,-2.8409,-2.9271,-2.9704,-2.9715,-3.0315,-3.0544,-3.0467,-3.0506,-3.0543,-3.0569,-3.1518,-3.225,-3.2873,-3.4063,-3.4415,-3.4175,-3.4188,-3.3204,-3.1697,0.0,0.0,0.0,0.0,0.0,0.0,0.0,0.0,0.0,0.0,0.0,0.0,0.0,0.0,0.0,0.0,0.0,0.0,0.0,0.0,0.0,0.0,0.0,0.0,0.0,0.0,0.0,0.0,0.0,0.0,0.0,0.0,0.0,0.0,-3.5989,-3.6109,-3.5484,-3.5899,-3.5959,-3.5115,-3.5498,-3.5732,-3.5582,-3.6509,-3.7045,-3.7045,-3.7026,-3.7263,-3.7748,-3.7263,-3.6843,-3.6615,-3.6615,-3.6228,-3.5504,-3.5504,-3.5619,-3.5894,-3.5894,-3.6022,-3.6228,-3.5523,-3.538,-3.5524,-3.4573,-3.432,-3.4533,-3.434,-3.3808,-3.3222,-3.3222,-3.2471,-3.1554,0.0,0.0,0.0,0.0,0.0,0.0,0.0,-2.3019,-2.2501,-2.2928,-2.3455,-2.4245,-2.5493,-2.5763,-2.6164,-2.694,-2.6051,-2.5815,-2.6635,-2.5502,-2.5584,-2.7431,-2.8511,-2.9194,-2.9434,-3.0134,-3.056,-3.0683,-3.0622,-3.0587,-3.0587,-3.0587,-3.0598,-3.0645,-3.1555,-3.1973,-3.2108,-3.391,-3.511,-3.5861,-3.5985,-3.5996,-3.5762,0.0,0.0,0.0,0.0,0.0,0.0,0.0,0.0,0.0,0.0,0.0,0.0,0.0,0.0,0.0,0.0,0.0,0.0,0.0,0.0,0.0,0.0,0.0,0.0,0.0,0.0,0.0,0.0,0.0,0.0,0.0,0.0,0.0,-3.6482,-3.7113,-3.7182,-3.565,-3.6111,-3.6263,-3.5463,-3.6109,-3.6638,-3.6717,-3.7422,-3.7822,-3.7822,-3.7822,-3.7806,-3.7806,-3.7806,-3.7456,-3.6661,-3.6661,-3.6275,-3.5569,-3.5569,-3.5958,-3.6676,-3.6584,-3.7053,-3.7742,-3.6933,-3.6302,-3.5668,-3.5589,-3.5186,-3.4576,-3.3937,-3.3235,-3.2641,-3.2641,-3.2216,-3.1519,0.0,0.0,0.0,0.0,0.0,0.0,0.0,-2.355,-2.3124,-2.2574,-2.3048,-2.3565,-2.3925,-2.4472,-2.4893,-2.5129,-2.4746,-2.4404,-2.4267,-2.4425,-2.5456,-2.7561,-2.8382,-2.9251,-3.019,-3.0399,-3.052,-3.0557,-3.058,-3.0551,-3.0453,-3.0551,-3.0562,-3.0538,-3.0859,-3.1344,-3.2008,-3.3121,-3.4098,-3.4992,-3.6276,-3.6017,-3.4859,0.0,0.0,0.0,0.0,0.0,0.0,0.0,0.0,0.0,0.0,0.0,0.0,0.0,0.0,0.0,0.0,0.0,0.0,0.0,0.0,0.0,0.0,0.0,0.0,0.0,0.0,0.0,0.0,0.0,0.0,0.0,-3.9368,-3.9642,-3.7588,-3.6925,-3.6704,-3.6917,-3.6229,-3.6134,-3.688,-3.675,-3.6826,-3.7476,-3.771,-3.7822,-3.7822,-3.7822,-3.8035,-3.858,-3.858,-3.8509,-3.827,-3.8286,-3.7889,-3.7191,-3.7191,-3.7294,-3.744,-3.6933,-3.681,-3.6917,-3.5703,-3.5331,-3.5573,-3.5087,-3.503,-3.5316,-3.5115,-3.464,-3.4037,-3.4037,-3.3633,-3.2956,0.0,0.0,0.0,0.0,0.0,0.0,0.0,-2.3909,-2.3366,-2.2674,-2.2645,-2.266,-2.2465,-2.2654,-2.285,-2.3077,-2.3073,-2.2865,-2.2452,-2.3637,-2.5192,-2.7056,-2.8061,-2.9091,-3.0182,-3.0323,-3.0382,-3.0423,-3.0534,-3.0568,-3.0487,-3.0564,-3.058,-3.0536,-3.0579,-3.0873,-3.1443,-3.2675,-3.3461,-3.4061,-3.6169,-3.662,-3.6052,-3.623,-3.6444,-3.6561,-3.5872,-3.5502,-3.534,-3.534,0.0,0.0,0.0,0.0,0.0,0.0,0.0,0.0,0.0,0.0,0.0,0.0,0.0,0.0,0.0,0.0,0.0,0.0,0.0,0.0,0.0,0.0,0.0,0.0,-4.1211,-4.1779,-3.9853,-3.8531,-3.7674,-3.7483,-3.7071,-3.7174,-3.7961,-3.8083,-3.828,-3.8715,-3.8776,-3.8778,-3.8778,-3.8778,-3.8941,-3.9385,-3.9368,-3.9262,-3.8908,-3.8908,-3.8525,-3.7822,-3.7822,-3.7833,-3.7809,-3.7388,-3.721,-3.7134,-3.5987,-3.5762,-3.6022,-3.5321,-3.5069,-3.5182,0.0,0.0,0.0,0.0,-3.347,-3.3016,0.0,0.0,0.0,0.0,0.0,0.0,0.0,-2.4077,-2.3252,-2.2923,-2.2123,-2.142,-2.1054,-2.0546,-2.0442,-2.093,-2.1195,-2.1317,-2.1259,-2.3181,-2.4907,-2.6277,-2.7698,-2.8852,-2.9712,-3.0002,-3.0177,-3.0234,-3.0419,-3.0499,-3.0501,-3.0516,-3.0522,-3.0503,-3.0503,-3.0541,-3.0733,-3.2397,-3.3075,-3.3259,-3.5786,-3.7375,-3.8189,-3.7513,-3.8326,-3.9572,-3.8028,-3.7919,-3.849,-3.8549,0.0,0.0,0.0,0.0,0.0,0.0,0.0,0.0,0.0,0.0,0.0,0.0,0.0,0.0,0.0,0.0,0.0,0.0,0.0,0.0,0.0,0.0,0.0,0.0,-4.3284,-4.4212,-4.2772,-4.1374,-3.985,-3.8144,-3.8508,-3.8933,-3.9075,-3.9709,-4.0139,-4.0211,-4.015,-4.0121,-4.0204,-4.0204,0.0,0.0,0.0,-3.9868,-3.9106,-3.9069,-3.8707,-3.8035,-3.7971,-3.7936,-3.7906,-3.7741,-3.7719,-3.7736,-3.6975,-3.6637,-3.6586,-3.591,-3.5209,-3.4626,-3.5131,-3.5052,-3.4426,-3.308,-3.2575,-3.2413,0.0,0.0,0.0,0.0,0.0,0.0,0.0,-2.365,-2.2529,-2.2318,-2.0637,-1.9438,-1.9294,-1.8851,-1.8664,-1.8867,-1.9417,-2.0299,-2.1607,-2.3342,-2.4807,-2.5955,-2.7746,-2.8876,-2.9232,-2.96,-2.9794,-2.9813,-2.9905,-2.9931,-2.9882,-2.9916,-2.9937,-2.9869,-2.9869,-3.0229,-3.0913,-3.1951,-3.2748,-3.3488,-3.5343,-3.6878,-3.8108,-3.871,-4.0015,-4.1478,-4.12,-4.0723,-4.0223,-4.0235,-3.9287,-3.8342,-3.9615,-3.9503,0.0,0.0,0.0,0.0,0.0,0.0,0.0,0.0,0.0,0.0,0.0,0.0,0.0,0.0,0.0,0.0,0.0,0.0,0.0,-4.4619,-4.5508,-4.5751,-4.4919,-4.4577,-4.3616,-4.1388,-4.0308,-4.0216,-4.1434,-4.0688,-4.032,-4.0961,-4.0442,-4.0286,-4.0733,-4.075,-4.0967,-4.1464,-4.1013,-4.0668,-4.0508,-4.0086,-3.9799,-3.9662,-3.9041,0.0,-3.8723,-3.7528,-3.7017,-3.6958,-3.618,-3.5842,-3.5825,-3.5673,-3.5368,-3.4995,-3.4168,-3.4098,-3.4415,-3.356,-3.3208,-3.3102,0.0,0.0,0.0,0.0,0.0,0.0,0.0,-2.3504,-2.2331,-2.2178,-2.0212,-1.8788,-1.8616,-1.8145,-1.7939,-1.8175,-1.8811,-2.0139,-2.2319,-2.3148,-2.4236,-2.5767,-2.7197,-2.8004,-2.8113,-2.8645,-2.9045,-2.9263,-2.9383,-2.9529,-2.9696,-2.9737,-2.9963,-3.0299,-3.0299,-3.0734,-3.1563,-3.243,-3.3033,-3.3541,-3.5239,-3.6557,-3.7641,-3.8518,-3.9948,-4.1532,-4.2126,-4.2335,-4.2406,-4.3028,-4.2925,-4.2572,-4.2626,-4.2653,-4.2369,0.0,0.0,0.0,0.0,0.0,0.0,0.0,0.0,0.0,0.0,0.0,0.0,0.0,0.0,-4.4336,-4.4762,0.0,-4.6892,-4.7095,-4.7987,-4.8311,-4.73,-4.751,-4.6574,-4.346,-4.2555,-4.2484,-4.324,-4.2335,-4.1887,-4.2193,-4.1525,-4.1181,-4.1331,-4.1358,-4.149,-4.181,-4.149,-4.1358,-4.1358,-4.0797,-4.0497,-4.048,-3.9696,-3.9149,-3.8785,-3.7922,-3.7369,-3.697,-3.6572,-3.6399,-3.6347,-3.5509,-3.5114,-3.4815,-3.3457,-3.3279,-3.3716,-3.3357,-3.2838,-3.2256,0.0,0.0,0.0,0.0,0.0,0.0,0.0,-2.3477,-2.2316,-2.2075,-2.0159,-1.8682,-1.833,-1.7912,-1.7776,-1.8102,-1.88,-2.0195,-2.2526,-2.2687,-2.3473,-2.5232,-2.6169,-2.6631,-2.6631,-2.7529,-2.8144,-2.8458,-2.875,-2.9101,-2.9547,-2.9547,-2.9995,-3.074,-3.074,-3.1187,-3.1989,-3.268,-3.3146,-3.3575,-3.5072,-3.616,-3.6963,-3.776,-3.9252,-4.1028,-4.2129,-4.3052,-4.3971,-4.517,-4.6014,-4.6359,-4.5374,-4.5211,-4.4845,-4.2059,-4.2324,0.0,0.0,0.0,0.0,0.0,0.0,0.0,0.0,0.0,-4.3864,-4.4592,-4.6307,-4.7506,-4.6957,-4.8503,-4.9739,-4.9446,-5.0297,-5.0677,-4.9643,-4.9927,-4.9042,-4.5934,-4.5225,-4.5018,-4.5018,-4.4236,-4.3666,-4.3374,-4.2675,-4.217,-4.199,-4.1979,-4.2021,-4.2144,-4.2021,-4.1979,-4.1979,-4.1402,-4.1087,-4.1087,-4.0277,-3.9512,-3.8747,-3.8456,-3.7934,-3.719,-3.719,-3.719,-3.7104,-3.5438,-3.4818,-3.4712,-3.3219,-3.2806,-3.3017,-3.2925,-3.2199,-3.1206,0.0,0.0,0.0,0.0,0.0,0.0,0.0,0.0,-2.2182,-2.1575,-1.9928,-1.858,-1.8032,-1.7849,-1.7922,-1.8261,-1.9048,-2.0034,-2.1174,-2.1809,-2.2586,-2.3514,-2.4521,-2.504,-2.504,-2.6483,-2.7248,-2.729,-2.7791,-2.8396,-2.9084,-2.9084,-2.9483,-3.0172,-3.0172,-3.0629,-3.139,-3.151,-3.2317,-3.3654,-3.4543,-3.5364,-3.6114,-3.7006,-3.8817,-4.1024,-4.1855,-4.2691,-4.3529,-4.4442,-4.4783,-4.5086,-4.6334,-4.5281,-4.3634,-4.3823,0.0,-3.9977,-3.8423,-3.9295,-4.1166,-4.3325,-4.4816,-4.6562,0.0,0.0,-4.9119,-5.004,-4.9967,-4.9947,-5.055,-5.0681,-5.0979,-5.199,-5.1814,-5.1572,-5.1734,-5.1315,-5.0805,-5.0364,-4.8537,-4.7304,-4.7304,-4.5993,-4.4788,-4.4029,-4.3315,-4.2797,-4.2613,-4.2616,-4.2808,-4.3267,-4.2846,-4.2616,-4.2616,-4.1979,-4.1707,-4.1707,-4.0954,-4.0194,-3.9376,-3.8713,-3.7955,-3.719,-3.719,-3.719,-3.7104,-3.5438,-3.5044,-3.5271,-3.3736,-3.3129,-3.3127,-3.2707,-3.2013,-3.1278,0.0,0.0,0.0,0.0,0.0,0.0,0.0,0.0,0.0,-2.1283,-2.0019,-1.9058,-1.8689,-1.8404,-1.8353,-1.8502,-1.9215,-1.9783,-2.0036,-2.1093,-2.1769,-2.1914,-2.2882,-2.3462,-2.3462,-2.4748,-2.5524,-2.5758,-2.6387,-2.7142,-2.8025,-2.8025,-2.883,-3.0277,-3.0277,-3.1161,-3.2661,-3.2661,-3.3246,-3.4306,-3.5119,-3.5632,-3.6019,-3.7329,-3.7864,-3.7995,-3.9105,-4.0145,0.0,-4.2323,-4.2958,-4.3558,-4.4927,-4.4616,-4.352,-4.2697,-4.2212,0.0,-4.2735,-4.3177,-4.3903,0.0,-4.7653,-4.9342,-5.021,-5.0485,-5.082,-5.1677,-5.241,-5.2922,-5.3034,-5.3245,-5.3499,-5.3773,-5.353,-5.3329,-5.3497,-5.2839,-5.233,-5.233,-5.0616,-4.9131,-4.843,-4.6873,-4.5754,-4.5362,-4.4617,-4.4093,-4.387,-4.3433,-4.3373,-4.3772,-4.3389,-4.3249,-4.3453,-4.2698,-4.2051,-4.155,-4.0763,-3.9994,-3.9188,-3.876,-3.8375,-3.805,-3.805,-3.7796,-3.7305,-3.6132,-3.5483,-3.5107,-3.3988,-3.355,-3.3494,-3.3075,-3.2499,-3.1918,0.0,0.0,0.0,0.0,0.0,0.0,0.0,0.0,0.0,0.0,-2.014,-1.9452,-1.9248,-1.893,-1.8753,-1.877,-1.9201,-1.9376,-1.918,-2.0019,-2.0387,-2.0084,-2.094,-2.1531,-2.1699,-2.2864,-2.372,-2.4393,-2.5214,-2.6271,-2.7536,-2.7755,-2.8875,-3.0683,-3.0683,-3.1543,-3.3007,-3.3007,-3.3438,-3.414,-3.4956,-3.537,-3.5663,-3.6696,-3.6634,-3.6151,-3.7465,-3.8169,-3.8733,-4.0028,-4.0804,-4.1511,-4.2645,-4.2641,-4.1991,-4.1064,-4.1324,-4.2341,-4.4439,-4.5221,0.0,-4.7757,-5.0144,-5.1934,-5.1576,-5.2006,-5.2675,-5.3316,-5.4374,-5.5086,-5.4877,-5.5208,-5.5401,-5.5002,-5.4838,-5.4703,-5.4572,-5.3855,-5.3308,-5.325,-5.1588,-5.0154,-4.9446,-4.8091,-4.6998,-4.6466,-4.5882,-4.5278,-4.4702,-4.4124,-4.3912,-4.4146,-4.3912,-4.3931,-4.4146,-4.3314,-4.2553,-4.1912,-4.1026,-4.0175,-3.9337,-3.8669,-3.8377,-3.8377,-3.8377,-3.8028,-3.7452,-3.6615,-3.5845,-3.5063,-3.4215,-3.3979,-3.3986,-3.3607,-3.2947,-3.2107,0.0,0.0,0.0,0.0,0.0,0.0,0.0,0.0,0.0,0.0,0.0,0.0,0.0,-1.9166,-1.9049,-1.8984,-1.8937,-1.8826,-1.855,-1.8401,-1.8218,-1.7984,-1.8469,-1.9068,-1.9749,-2.0906,-2.2114,-2.3339,-2.4606,-2.6218,-2.8076,-2.8884,-3.0016,-3.139,-3.139,-3.1422,-3.1454,-3.1454,-3.187,-3.264,-3.3278,-3.4018,-3.4599,-3.4279,-3.5251,-3.6951,-3.8225,-3.7707,-3.658,-3.7854,-3.8391,-3.8677,-3.9626,-3.8858,0.0,-3.9555,-3.9006,-3.838,-4.0667,-4.2856,-4.5334,-4.8702,-5.1835,-5.4439,-5.5707,-5.587,-5.582,-5.6034,-5.5962,-5.5926,-5.6124,-5.6161,-5.6013,-5.5535,-5.547,-5.5297,-5.4761,-5.4042,-5.355,-5.3396,-5.1284,-5.0075,-5.078,-4.9948,-4.8719,-4.7109,-4.6939,-4.6242,-4.4685,-4.4572,-4.4553,-4.458,-4.4553,-4.4553,-4.458,-4.3717,-4.3258,-4.322,-4.21,-4.1109,-4.0188,-3.8372,-3.7533,-3.7533,-3.7533,-3.7514,-3.7452,-3.6615,-3.5992,-3.5386,-3.453,-3.4379,-3.4632,-3.4292,-3.3019,-3.1433,0.0,0.0,0.0,0.0,0.0,0.0,0.0,0.0,0.0,0.0,0.0,0.0,0.0,0.0,0.0,0.0,-1.9215,-1.8873,-1.7914,-1.8324,-1.7975,-1.6502,-1.6897,-1.6983,-1.6708,-1.8298,-1.9617,-2.0655,-2.2701,-2.4521,-2.6179,-2.6837,-2.8355,-3.0609,-3.0609,-3.1647,-3.3395,-3.3395,-3.3825,-3.458,-3.4819,-3.4755,-3.4654,-3.5016,-3.4487,-3.3681,0.0,-3.5316,-3.5268,-3.5723,-3.5891,-3.6043,-3.7121,-3.674,-3.5858,-3.5825,-3.6915,-3.8634,-4.0943,-4.418,-4.7592,-5.0127,-5.2886,-5.4898,-5.4782,-5.5451,-5.5962,-5.5438,-5.3892,-5.2856,-5.3483,-5.2635,-5.216,-5.3214,-5.42,-5.5035,-5.561,-5.4917,-5.413,-5.359,-5.1833,-5.0532,-5.0213,-4.8891,-4.7991,-4.7927,-4.69,-4.6026,-4.5496,-4.4921,-4.4682,-4.4919,-4.4153,-4.385,-4.4083,-4.2975,-4.187,-4.0758,-3.9119,-3.8215,-3.7899,-3.7246,-3.7084,-3.7225,-3.7225,-3.7225,-3.715,-3.6371,-3.5918,-3.5694,-3.4849,-3.4593,-3.4674,-3.4572,-3.3435,-3.1864,0.0,0.0,0.0,0.0,0.0,0.0,0.0,0.0,0.0,0.0,0.0,0.0,0.0,0.0,0.0,0.0,0.0,-1.8766,-1.7668,-1.8032,-1.7545,-1.5885,-1.6136,-1.605,-1.556,-1.6994,-1.8208,-1.918,-2.1187,-2.2985,-2.4535,-2.5544,-2.7124,-2.9256,-2.9795,-3.1073,-3.2768,-3.2726,-3.3161,-3.3833,-3.382,-3.3872,-3.396,-3.4082,-3.3485,0.0,-3.2548,-3.3022,-3.3738,-3.3738,-3.3824,-3.4021,-3.4939,-3.5262,-3.5255,-3.4949,-3.6572,-3.9158,-4.1859,-4.4857,-4.7803,-5.0339,-5.2458,-5.3791,-5.3388,-5.4139,-5.4767,-5.4257,-5.2314,-5.0777,-5.1106,-5.0448,-4.9838,-4.9644,-5.131,-5.299,-5.4027,-5.3097,-5.2607,-5.3429,-5.1533,-5.0063,-4.9822,-4.8026,-4.7157,-4.7859,-4.6899,-4.6143,-4.5805,-4.4973,-4.4576,-4.4823,-4.3776,-4.3338,-4.3541,-4.2155,-4.0561,-3.8766,-3.757,-3.6771,-3.6414,-3.6414,-3.6508,-3.6669,-3.6669,-3.6669,-3.6632,-3.6125,-3.5792,-3.5551,-3.504,-3.4908,-3.4981,-3.4889,-3.4016,-3.28,0.0,0.0,0.0,0.0,0.0,0.0,0.0,0.0,0.0,0.0,0.0,0.0,0.0,0.0,0.0,0.0,0.0,0.0,-1.7892,-1.7535,-1.6937,-1.5978,-1.603,-1.6065,-1.6058,-1.6796,-1.7728,-1.8774,-2.0159,-2.1621,-2.3182,-2.4887,-2.6232,-2.7379,-2.8842,-2.9536,-2.9679,-2.9645,-2.9973,-3.0587,-3.0585,-3.1474,-3.2625,-3.1603,-3.2252,-3.3427,-3.1263,-3.1159,-3.2109,-3.2022,-3.2262,-3.2773,-3.3319,-3.4581,-3.5976,-3.6702,-3.7819,-3.9627,-4.2917,-4.459,-4.6122,-4.927,-5.0703,-5.1367,-5.177,-5.2199,-5.2494,-5.2478,-5.0999,-4.9478,0.0,0.0,-4.8814,-4.5331,-4.7338,-4.965,-5.0489,-4.9234,-4.9492,-5.2907,-5.0483,-4.886,-4.9664,-4.7531,-4.6326,-4.6899,-4.6945,-4.6549,-4.5661,-4.4778,-4.4297,-4.4297,-4.347,-4.3028,-4.3028,-4.1258,-3.9394,-3.7432,-3.7394,-3.6844,-3.5864,-3.5864,-3.5864,-3.5885,-3.5885,-3.5885,-3.5885,-3.5885,-3.559,-3.5122,-3.5064,-3.5197,-3.5402,-3.5092,-3.46,-3.389,0.0,0.0,0.0,0.0,0.0,0.0,0.0,0.0,0.0,0.0,0.0,0.0,0.0,0.0,0.0,0.0,0.0,0.0,-1.8607,-1.8341,-1.7319,-1.5327,-1.5236,-1.4872,-1.4198,-1.5335,-1.6304,-1.697,-1.8942,-2.0272,-2.0925,-2.2008,-2.3206,-2.4495,-2.5131,-2.6235,-2.7661,-2.8074,-2.9015,-3.0145,-3.0549,-3.108,-3.171,-3.1855,-3.1762,-3.1401,-3.118,-3.1127,0.0,0.0,0.0,0.0,-3.5283,-3.5958,-3.6413,-3.6799,-3.8405,-4.0292,-4.1272,-4.3412,-4.5856,-4.7738,-4.9003,-4.9862,-4.988,-5.0609,-5.0667,-4.8546,-4.5904,-4.3718,-4.2797,-4.3423,-4.4074,-4.4121,-4.7656,-5.0798,-5.1839,-5.1547,0.0,-5.2128,0.0,-4.8976,-4.8839,-4.7178,-4.6128,-4.6186,-4.6177,-4.6075,-4.5834,-4.4836,-4.4297,-4.4297,-4.2893,-4.2143,-4.2143,-3.9815,-3.7955,-3.6592,-3.6001,-3.5566,-3.5285,-3.5285,-3.541,-3.5595,-3.5595,-3.5595,-3.5595,-3.5595,-3.5511,-3.5326,-3.4688,-3.4466,-3.4449,-3.3722,-3.2987,-3.2282,0.0,0.0,0.0,0.0,0.0,0.0,0.0,0.0,0.0,0.0,0.0,0.0,0.0,0.0,0.0,0.0,0.0,0.0,0.0,-1.906,-1.8129,-1.6342,-1.6057,-1.5456,-1.4368,-1.5227,-1.5903,-1.6224,-1.7668,-1.8746,-1.9511,-2.028,-2.1188,-2.2252,-2.3041,-2.4236,-2.5682,-2.5807,-2.6876,0.0,0.0,-2.9247,-3.0611,-3.0634,-3.0859,-3.1209,0.0,0.0,0.0,0.0,0.0,-3.4888,-3.6182,-3.6746,-3.7017,-3.7484,0.0,-4.0468,-4.1164,-4.2887,-4.4735,-4.5783,-4.6573,-4.6876,-4.6106,-4.6709,-4.6755,-4.4437,-4.2123,-4.0129,-3.8972,-4.0628,-4.1791,0.0,0.0,0.0,-4.9763,-4.9495,-4.9597,0.0,-4.9289,0.0,-4.7662,-4.6332,-4.5596,-4.5878,-4.5948,-4.5956,-4.5851,-4.4566,-4.3797,-4.3778,-4.1777,-4.0335,-3.9565,-3.8142,-3.693,-3.594,-3.55,-3.5273,-3.5273,-3.5273,-3.5354,-3.5488,-3.5103,-3.493,-3.4911,-3.4526,-3.4378,-3.4359,-3.3859,-3.3718,-3.3712,-3.3199,-3.2506,-3.1782,0.0,0.0,0.0,0.0,0.0,0.0,0.0,0.0,0.0,0.0,0.0,0.0,0.0,0.0,0.0,0.0,0.0,0.0,0.0,0.0,0.0,-1.8104,-1.7669,-1.6909,-1.5739,-1.5986,-1.612,-1.6081,-1.6598,-1.7429,-1.8568,-1.915,-1.9768,-2.0446,-2.1593,-2.2613,-2.3467,-2.3157,-2.4259,-2.6167,-2.5529,-2.6937,-2.9383,0.0,0.0,0.0,0.0,0.0,0.0,0.0,-3.462,-3.5625,-3.6685,-3.7329,-3.7819,-3.8435,-3.9225,-4.0223,-4.1449,-4.2299,-4.3062,-4.3772,-4.3925,-4.3536,-4.2008,-4.2246,-4.2297,-4.0366,-3.8994,-3.7691,-3.6299,-3.9017,-4.0359,-3.6932,0.0,-4.4961,-4.6127,-4.5475,-4.5955,-4.8735,-4.7654,-4.6599,-4.6416,-4.5388,-4.4997,-4.5759,-4.583,-4.5782,-4.5655,-4.4097,-4.303,-4.2662,-4.0373,-3.8392,-3.6762,-3.6743,-3.632,-3.5526,-3.5526,-3.5526,-3.5493,-3.5493,-3.5449,-3.5295,-3.4545,-3.4141,-3.3987,-3.3237,-3.2974,-3.3019,-3.2904,-3.294,-3.301,-3.2894,-3.2305,-3.1549,0.0,0.0,0.0,0.0,0.0,0.0,0.0,0.0,0.0,0.0,-2.2685,-2.2555,0.0,0.0,0.0,0.0,0.0,0.0,0.0,0.0,0.0,0.0,-1.8378,-1.7896,-1.7207,-1.7,-1.6618,-1.6112,-1.6798,-1.7433,-1.7953,-1.8013,-1.8368,-1.8959,-1.8772,-1.9257,-2.0321,-2.0689,-2.2146,-2.4348,-2.486,-2.6295,-2.8274,0.0,0.0,0.0,0.0,0.0,0.0,0.0,-3.5254,-3.6594,-3.8009,-3.8492,-3.8583,-3.8753,-3.8916,-3.9172,-3.9432,-4.0069,-4.0981,-4.2246,-4.2544,-4.2253,-4.1157,-4.1161,0.0,0.0,-3.5685,-3.4592,-3.2823,-3.4492,-3.6236,-3.6672,-3.9199,-4.1974,-4.4306,-4.3943,-4.4192,0.0,-4.5466,-4.5114,-4.5861,-4.5176,-4.4897,-4.5356,-4.4864,-4.4645,-4.4889,-4.3923,-4.2381,-4.0281,-3.9084,-3.7988,-3.6959,-3.694,-3.6493,-3.5584,-3.5584,-3.5565,-3.5493,-3.5493,-3.5122,-3.441,-3.4326,-3.3884,-3.3211,-3.316,-3.3141,-3.3089,-3.2367,-3.2105,-3.2035,-3.1331,-3.0496,-2.9744,0.0,0.0,0.0,0.0,0.0,0.0,0.0,-2.3197,-2.364,-2.1932,-2.2572,-2.305,-2.2592,-2.2386,-2.2326,0.0,0.0,0.0,0.0,0.0,0.0,0.0,0.0,0.0,-1.7948,-1.76,-1.7255,-1.6979,0.0,-1.7985,-1.8916,-1.8755,-1.9099,-1.9782,-1.9294,-1.9669,-2.0706,-2.0653,-2.1993,-2.4247,-2.4462,-2.5837,0.0,0.0,0.0,0.0,0.0,0.0,0.0,0.0,-3.404,-3.5612,-3.7642,-3.8259,-3.8184,-3.7673,-3.7924,-3.823,-3.7719,-3.8498,-3.9609,-4.029,-4.078,-4.0603,-3.8582,0.0,0.0,0.0,-3.3379,-3.2736,-3.1661,-3.3303,0.0,-3.4897,-3.7849,-4.0521,-4.1433,-4.2422,-4.3104,-4.3103,-4.2781,-4.2732,-4.3176,-4.2382,-4.2385,-4.354,-4.3202,-4.3431,-4.4543,-4.2929,-4.1056,-3.8977,-3.8067,-3.7207,-3.6317,-3.6317,-3.6095,-3.5659,-3.5656,-3.5416,-3.4979,-3.4979,-3.4499,-3.3659,-3.3237,-3.2817,-3.2406,-3.2,-3.1621,-3.1237,-3.081,-3.0406,-2.9985,-2.9559,-2.9132,-2.8772,0.0,0.0,0.0,0.0,0.0,0.0,0.0,-2.252,-2.3087,-2.0897,-2.2052,-2.2919,-2.2521,-2.2438,-2.257,0.0,0.0,0.0,0.0,0.0,0.0,0.0,0.0,0.0,0.0,0.0,0.0,-1.8278,-1.8289,0.0,0.0,0.0,0.0,0.0,-2.0698,-2.0998,-2.1903,-2.1393,-2.242,0.0,0.0,-2.5676,0.0,0.0,0.0,0.0,0.0,0.0,0.0,0.0,-3.2625,-3.3849,-3.6137,-3.6901,-3.6785,-3.615,-3.6384,-3.681,-3.6291,-3.7207,-3.8404,-3.8619,-3.9262,-3.9092,-3.6122,-3.575,0.0,-3.2629,-3.1638,-3.1259,-3.127,-3.2545,-3.333,0.0,-3.5605,-3.7987,-3.8214,-3.9742,-4.0679,-4.0273,-4.0063,0.0,-4.0488,-3.9665,-3.977,-4.1314,-4.1135,-4.1732,-4.3541,-4.1269,-3.9337,-3.8064,-3.7006,-3.6148,-3.5459,-3.5261,-3.5187,-3.5162,-3.5184,-3.4847,-3.4205,-3.4205,-3.3749,-3.2877,-3.2212,-3.181,-3.1581,-3.0734,-3.003,-2.9505,-2.9322,-2.8855,-2.8301,-2.8301,-2.8184,-2.8027,0.0,0.0,0.0,0.0,0.0,0.0,0.0,-2.217,-2.2402,-2.1189,-2.1261,-2.1655,-2.2332,-2.2782,-2.2958,0.0,0.0,0.0,0.0,0.0,0.0,0.0,0.0,0.0,0.0,0.0,0.0,-1.9807,-2.0088,0.0,0.0,0.0,0.0,0.0,0.0,-2.1574,-2.2302,-2.2175,0.0,0.0,0.0,0.0,0.0,0.0,0.0,0.0,0.0,0.0,0.0,0.0,0.0,-3.1835,-3.3302,-3.3873,-3.4029,-3.4285,0.0,0.0,-3.5096,-3.5967,-3.6852,-3.7716,-3.8469,-3.8171,-3.508,0.0,-3.4523,-3.217,-3.0479,-2.9735,-3.0767,-3.0116,-2.9828,0.0,-3.0862,-3.1785,-3.5114,-3.4329,-3.471,-3.8339,0.0,-3.7413,-3.9458,-3.9007,-3.8753,-3.9267,-3.8581,-3.8937,-4.067,-3.8594,-3.7278,-3.7122,-3.5573,-3.4681,-3.4618,-3.3883,-3.3493,-3.3431,-3.3491,-3.3461,-3.332,-3.332,-3.2834,-3.2016,-3.2004,-3.1533,-3.0758,-2.9994,-2.9647,-2.9507,-2.8726,-2.8377,-2.8301,-2.8301,-2.7793,-2.7129,0.0,0.0,0.0,0.0,0.0,0.0,-2.2021,-2.2656,-2.265,-2.1164,-2.175,-2.2258,-2.2184,-2.2764,-2.3168,-2.3168,0.0,0.0,0.0,0.0,0.0,0.0,0.0,0.0,0.0,0.0,-2.1279,-2.1858,-2.204,0.0,0.0,0.0,0.0,0.0,0.0,-2.319,-2.3531,-2.329,0.0,0.0,0.0,0.0,0.0,0.0,0.0,0.0,0.0,0.0,-3.2033,0.0,0.0,0.0,-3.1902,-3.178,0.0,0.0,-3.2561,-3.3156,-3.2102,-3.3249,-3.4907,-3.5274,-3.5778,-3.5735,-3.3983,0.0,-3.261,-3.1397,-3.0044,-2.9377,-3.012,-2.9187,-2.8329,-2.841,-2.8578,-2.9104,-3.0172,-3.066,-3.1622,-3.3537,-3.331,-3.3506,-3.4885,-3.5171,-3.5486,-3.5826,-3.526,-3.5118,-3.5612,-3.582,-3.5947,-3.6037,-3.4536,-3.3723,-3.3732,-3.3402,-3.3237,-3.3191,-3.3223,-3.2946,-3.242,-3.2453,-3.2006,-3.1145,-3.0745,-3.0342,-2.9917,-2.914,-2.8476,-2.7949,-2.7637,-2.7207,-2.6738,-2.6738,-2.6523,-2.6211,0.0,0.0,0.0,0.0,0.0,-2.2615,-2.2269,-2.266,-2.2544,-2.1253,-2.1917,-2.2449,-2.2282,-2.2761,-2.3281,-2.3721,-2.3406,0.0,0.0,0.0,0.0,0.0,0.0,0.0,0.0,0.0,-2.2749,-2.374,-2.3759,-2.4116,0.0,0.0,-2.4766,-2.5052,0.0,0.0,0.0,0.0,0.0,0.0,0.0,0.0,0.0,0.0,0.0,0.0,0.0,0.0,0.0,0.0,0.0,0.0,0.0,0.0,0.0,0.0,-3.091,-3.1401,-2.9872,-3.0708,-3.2189,-3.2807,-3.3267,-3.3457,0.0,0.0,-3.1267,-3.0855,-2.9735,-2.9008,-2.9514,-2.8716,-2.7628,-2.6678,-2.6993,-2.7237,-2.685,-2.7736,-2.8771,-2.9545,-2.9866,-3.0453,-3.162,-3.2341,-3.2778,-3.2704,-3.2371,-3.2076,-3.1837,-3.3107,-3.4037,-3.4429,-3.3023,-3.2244,-3.2263,-3.1857,-3.167,-3.1654,-3.1674,-3.1363,-3.078,-3.0832,-3.0506,-2.9895,-2.9394,-2.9143,-2.9024,-2.8247,-2.7508,-2.6875,-2.6699,-2.623,-2.5703,-2.5703,-2.5697,-2.5668,0.0,0.0,0.0,0.0,0.0,0.0,-2.2125,-2.1896,-2.1736,-2.1515,-2.1396,-2.1721,-2.2789,-2.2902,-2.3342,-2.4484,-2.3869,0.0,0.0,0.0,0.0,0.0,0.0,0.0,0.0,0.0,-2.3712,-2.5163,-2.5163,-2.5495,-2.6087,-2.5888,-2.5742,-2.5663,0.0,0.0,0.0,0.0,0.0,0.0,0.0,0.0,0.0,0.0,0.0,0.0,0.0,0.0,0.0,0.0,0.0,0.0,0.0,0.0,0.0,0.0,-2.9433,-2.8383,-2.9237,-2.8717,-2.8458,-3.0524,-3.14,-3.1843,0.0,-3.1397,-3.0928,-3.0729,-2.9371,-2.8381,-2.8998,-2.8568,-2.7641,-2.6323,-2.5832,-2.5724,-2.5983,-2.5467,-2.565,-2.7235,-2.7814,-2.8825,-3.0833,-3.1489,-3.1347,-3.0213,-3.0209,-3.0234,-3.0216,-3.0491,-3.1123,-3.2203,-3.0798,-3.0032,-3.0032,-2.8708,-2.806,-2.8041,-2.8121,-2.8151,-2.8132,-2.8142,-2.8131,-2.8126,-2.8196,-2.817,-2.8067,-2.7329,-2.6973,-2.6816,-2.6016,-2.5703,-2.5703,-2.5703,-2.5652,-2.5592,0.0,0.0,0.0,0.0,0.0,0.0,0.0,-2.2503,-2.2332,-2.2146,-2.2075,-2.2187,-2.2508,-2.3249,-2.3885,-2.4286,-2.4219,0.0,0.0,0.0,0.0,0.0,0.0,0.0,0.0,0.0,-2.5145,-2.6236,-2.6336,-2.6488,-2.6708,-2.6607,-2.6471,-2.6367,-2.6214,-2.6127,0.0,0.0,0.0,0.0,0.0,0.0,0.0,0.0,0.0,0.0,0.0,0.0,0.0,0.0,0.0,0.0,0.0,0.0,0.0,0.0,0.0,0.0,-2.7639,-2.7536,-2.7989,-2.8659,-2.8882,-2.8972,-2.9075,-2.8768,-2.8481,-2.8853,-2.8051,-2.7468,-2.8046,-2.7315,-2.6468,-2.5777,-2.5139,-2.4588,-2.4261,-2.4994,-2.5743,-2.6367,-2.8078,-2.9643,-3.0775,-3.0848,-3.0317,-2.9042,-2.9204,-2.926,-2.8963,-2.9036,-2.9711,-3.1046,-2.9713,-2.9038,-2.9193,-2.8198,-2.7807,-2.7918,-2.7948,-2.7948,-2.7958,-2.7997,-2.8039,-2.8006,-2.7477,-2.7217,-2.7078,-2.6294,-2.5933,-2.5866,-2.5697,-2.5625,-2.5624,-2.5639,-2.5619,-2.5582,0.0,0.0,0.0,0.0,0.0,0.0,0.0,-2.2685,-2.2525,-2.2394,-2.2349,-2.2451,-2.2796,-2.3522,-2.4295,-2.5032,-2.5235,0.0,0.0,0.0,0.0,0.0,0.0,0.0,0.0,-2.5778,-2.6013,-2.6808,-2.6909,-2.6959,-2.6942,-2.694,-2.6891,-2.6891,-2.6952,-2.695,0.0,0.0,0.0,0.0,0.0,0.0,-3.1462,0.0,0.0,0.0,0.0,0.0,0.0,0.0,0.0,0.0,0.0,0.0,0.0,0.0,-2.9309,-2.8743,0.0,-2.6399,-2.655,-2.7013,-2.6909,0.0,0.0,-2.7514,-2.7238,-2.7853,-2.7504,-2.7072,-2.7105,-2.6449,-2.5825,-2.5326,-2.4734,-2.4379,-2.4481,-2.5414,-2.6415,-2.742,-2.8778,-2.9839,-3.0516,-3.0503,-2.9766,-2.8132,-2.8723,-2.8767,-2.7826,-2.8215,-2.8739,-2.9338,-2.8427,-2.7848,-2.7747,-2.6993,-2.6718,-2.6928,-2.6928,-2.6928,-2.6928,-2.6958,-2.6977,-2.6939,-2.6487,-2.6237,0.0,-2.5688,-2.5465,-2.541,-2.5513,-2.5551,-2.5564,-2.5557,-2.555,-2.5524,0.0,0.0,0.0,0.0,0.0,0.0,0.0,-2.2542,-2.2377,-2.231,-2.2265,-2.2564,-2.3425,-2.3738,-2.4639,-2.6437,0.0,0.0,0.0,0.0,0.0,0.0,0.0,0.0,-2.699,-2.6402,-2.6402,-2.7007,-2.6956,-2.6956,-2.6959,-2.6923,-2.7036,-2.7276,-2.7426,-2.7683,0.0,0.0,0.0,0.0,0.0,0.0,0.0,0.0,0.0,0.0,0.0,0.0,0.0,0.0,0.0,0.0,0.0,0.0,0.0,0.0,0.0,0.0,0.0,-2.5482,-2.4537,-2.5581,-2.5563,-2.579,0.0,0.0,0.0,0.0,-2.7514,-2.7053,-2.6255,-2.594,-2.5563,-2.4888,-2.4513,-2.476,-2.6069,-2.6481,-2.7524,-2.9853,-2.9694,-2.9551,-2.9931,-3.0243,-2.9554,-2.7511,-2.8504,-2.8542,-2.6916,-2.7896,-2.8109,-2.7251,-2.6972,-2.6577,-2.6038,-2.5329,-2.5099,-2.5274,-2.5284,-2.5284,-2.5274,-2.5284,-2.5303,-2.5303,-2.5313,-2.5313,-2.5303,-2.537,-2.537,-2.5313,-2.539,-2.5368,-2.5323,-2.5381,-2.5381,-2.5332,0.0,0.0,0.0,0.0,0.0,0.0,0.0,0.0,0.0,0.0,-2.2405,-2.2705,-2.342,-2.4315,-2.5314,0.0,0.0,0.0,0.0,0.0,0.0,0.0,0.0,0.0,-2.7166,-2.6884,-2.6852,-2.707,-2.663,-2.674,-2.7417,-2.7133,-2.7366,-2.8045,-2.8352,-2.9217,0.0,0.0,0.0,0.0,0.0,0.0,0.0,0.0,0.0,0.0,-3.4286,-3.4288,0.0,0.0,0.0,0.0,0.0,0.0,0.0,0.0,-2.8528,-2.6758,-2.6332,0.0,-2.5436,-2.5246,-2.5401,-2.5729,0.0,0.0,0.0,0.0,0.0,0.0,0.0,-2.54,-2.4736,-2.4446,-2.3939,-2.4017,-2.5348,-2.71,-2.881,-3.0315,-3.0451,-2.9719,-2.7866,-2.8843,-2.88,-2.693,-2.7376,-2.7555,-2.7201,-2.7443,-2.7243,-2.6476,-2.6403,-2.6312,-2.6227,-2.5412,-2.5022,-2.5077,-2.5224,-2.5214,-2.5077,-2.5224,-2.5303,-2.5264,-2.4659,-2.4755,-2.5245,-2.4659,-2.4418,-2.4418,-2.4476,-2.4098,-2.3593,-2.4265,-2.451,-2.4572,0.0,0.0,0.0,0.0,0.0,0.0,0.0,0.0,0.0,0.0,0.0,-2.3403,-2.4543,-2.5317,0.0,0.0,0.0,0.0,0.0,0.0,0.0,0.0,0.0,-2.7461,-2.743,-2.7386,-2.7182,-2.6831,-2.6563,-2.6667,-2.7087,-2.6904,-2.7362,-2.837,-2.924,-3.0383,0.0,0.0,0.0,0.0,-3.5142,0.0,0.0,0.0,0.0,0.0,-3.5652,-3.5252,0.0,-3.5042,-3.4014,-3.2942,0.0,0.0,0.0,0.0,-2.9199,-2.7315,-2.6175,-2.5638,-2.5224,-2.4676,-2.49,-2.5275,-2.5679,0.0,0.0,0.0,0.0,0.0,0.0,0.0,-2.5027,-2.3884,-2.4448,-2.537,-2.6431,-2.8096,-2.9584,-3.0562,-2.9882,-2.8977,-2.8091,-2.8114,-2.7636,-2.6247,-2.6871,-2.7041,-2.6374,-2.6682,-2.6573,-2.5906,-2.5842,-2.5803,-2.5748,-2.5285,-2.508,-2.5141,-2.5253,-2.5234,-2.5152,-2.5253,-2.5303,-2.5264,-2.4734,-2.461,-2.4716,-2.4177,-2.3784,-2.3514,-2.3533,-2.3274,-2.2919,-2.337,-2.3552,-2.361,0.0,0.0,0.0,0.0,0.0,0.0,0.0,0.0,0.0,0.0,0.0,0.0,0.0,0.0,0.0,0.0,0.0,0.0,0.0,0.0,0.0,0.0,0.0,-2.7818,-2.776,-2.7771,-2.7454,-2.6729,-2.6745,-2.6772,-2.6795,-2.6772,-2.7477,-2.8821,-3.0339,-3.1516,0.0,0.0,0.0,0.0,-3.5181,0.0,0.0,0.0,0.0,0.0,0.0,0.0,0.0,-3.5332,-3.412,-3.2775,-3.3982,0.0,0.0,0.0,0.0,0.0,-2.6358,-2.5266,-2.4619,-2.4178,-2.4313,-2.4714,-2.5341,0.0,0.0,0.0,0.0,0.0,0.0,-2.5329,0.0,-2.3653,-2.5069,-2.6525,-2.6987,-2.8138,-2.9117,-2.9563,-2.8291,-2.7585,-2.8167,-2.7268,-2.6308,-2.5517,-2.6485,-2.6568,-2.529,-2.589,-2.6023,-2.5537,-2.5478,-2.5343,-2.5172,-2.5151,-2.518,-2.5264,-2.5293,-2.5274,-2.5264,-2.5293,-2.5303,-2.5284,-2.4843,-2.4443,-2.4062,-2.3637,-2.3111,-2.2601,-2.2601,-2.2524,-2.2427,-2.2562,-2.2601,-2.262,0.0,0.0,0.0,0.0,0.0,0.0,0.0,0.0,0.0,0.0,0.0,0.0,0.0,0.0,0.0,0.0,0.0,0.0,0.0,0.0,0.0,-2.8345,-2.8154,-2.8007,-2.7971,-2.7897,-2.7844,-2.7776,-2.7156,-2.7326,-2.8178,-2.7677,-2.8498,-3.0432,-3.2189,-3.3105,-3.3412,-3.4377,-3.5325,-3.6197,-3.6045,0.0,0.0,0.0,0.0,0.0,0.0,0.0,0.0,-3.5049,-3.4251,-3.3384,-3.3808,0.0,0.0,0.0,0.0,0.0,-2.6879,-2.5736,-2.4751,-2.4313,-2.4338,-2.4484,-2.4418,0.0,0.0,0.0,0.0,0.0,0.0,-2.4572,-2.3544,-2.4901,-2.4183,-2.3164,-2.2381,-2.4099,-2.5186,-2.4384,-2.5439,-2.5474,-2.3569,-2.4648,-2.5248,-2.4782,-2.5139,-2.5387,-2.5367,-2.5531,-2.5628,-2.5595,-2.5623,-2.5574,-2.5434,-2.5378,-2.525,-2.5046,-2.5214,-2.5214,-2.5046,-2.5224,-2.5303,-2.5226,-2.3775,-2.3495,-2.3975,-2.2468,-2.1795,-2.1696,-2.1696,-2.1273,-2.0773,-2.1446,-2.1696,-2.1812,0.0,0.0,0.0,0.0,0.0,0.0,0.0,0.0,0.0,0.0,0.0,0.0,0.0,0.0,0.0,0.0,0.0,0.0,0.0,0.0,-2.851,-2.851,-2.8458,-2.8362,-2.8228,-2.8264,-2.8076,-2.7619,-2.733,-2.7648,-2.8576,-2.9381,-3.035,-3.1456,-3.2856,-3.3524,-3.3696,-3.4604,-3.5742,-3.6901,0.0,0.0,0.0,0.0,0.0,0.0,0.0,0.0,0.0,0.0,-3.3875,-3.319,-3.3225,0.0,0.0,0.0,0.0,0.0,-2.8065,-2.6881,-2.5969,-2.5191,-2.4734,-2.468,-2.5333,0.0,0.0,0.0,0.0,0.0,0.0,0.0,-2.5119,-2.4551,-2.1616,-1.9457,-1.9617,-2.1023,-2.2221,-2.2607,-2.3353,-2.3585,-2.2914,-2.3617,-2.4094,-2.4008,-2.446,-2.4884,-2.5209,-2.5271,-2.5382,-2.5582,-2.5581,-2.5559,-2.5493,-2.5331,-2.5206,-2.5163,-2.5152,-2.5152,-2.5163,-2.5152,-2.5203,-2.5226,-2.3796,-2.3231,-2.3179,-2.1711,-2.091,-2.0584,-2.0584,-2.0394,-2.019,-2.0672,-2.085,-2.0966,0.0,0.0,0.0,0.0,0.0,0.0,0.0,0.0,0.0,0.0,0.0,0.0,0.0,0.0,0.0,0.0,0.0,0.0,0.0,0.0,-2.8612,-2.8637,-2.8687,-2.8619,-2.8484,-2.8587,-2.8214,-2.7375,-2.758,-2.8039,-2.8724,-3.0954,-3.1991,-3.2035,-3.3252,-3.3865,-3.3999,-3.4717,-3.5761,-3.6882,0.0,0.0,0.0,0.0,0.0,0.0,0.0,0.0,0.0,0.0,0.0,0.0,0.0,0.0,0.0,-3.211,-3.1554,-3.07,-2.9074,-2.7898,-2.6942,-2.6018,-2.5064,-2.4606,-2.5528,0.0,0.0,0.0,0.0,0.0,0.0,-2.6374,-2.5571,-2.2039,-1.8316,-1.5919,-1.6149,-1.7369,-1.8907,-2.0622,-2.1293,-2.1965,-2.2858,-2.3142,-2.3392,-2.3775,-2.4316,-2.4804,-2.5143,-2.5177,-2.5302,-2.5546,-2.5512,-2.5473,-2.5402,-2.5201,-2.5049,-2.4946,-2.4946,-2.4934,-2.4875,-2.4724,-2.4736,-2.4807,-2.3499,-2.2684,-2.2152,-2.1035,-2.0251,-1.979,-1.979,-1.9869,-1.9973,-2.0125,-2.0188,-2.031,0.0,0.0,0.0,0.0,0.0,0.0,0.0,0.0,0.0,0.0,0.0,0.0,0.0,0.0,0.0,0.0,0.0,0.0,0.0,0.0,-2.8662,-2.8785,-2.8737,-2.8694,-2.8669,-2.8761,-2.8385,-2.7583,-2.8282,-2.8688,-2.8942,-3.1823,-3.2767,-3.2094,-3.3896,-3.4715,-3.4737,-3.5001,-3.5169,-3.5264,-3.5343,0.0,0.0,0.0,0.0,0.0,0.0,0.0,0.0,0.0,0.0,0.0,0.0,0.0,-3.1714,-3.1865,-3.1177,-3.0221,-2.9523,-2.822,-2.6855,-2.6233,-2.504,0.0,-2.3286,-2.4261,0.0,-2.4497,0.0,0.0,0.0,-2.5662,-2.1991,-1.6098,-1.4439,-1.2929,-1.0217,-1.2128,-1.4426,-1.6154,-1.8758,-2.0803,-2.1799,-2.2864,-2.3795,-2.4564,-2.4894,-2.5156,-2.5375,-2.5432,-2.5446,-2.5427,-2.5478,-2.5388,-2.512,-2.512,-2.4707,-2.3919,-2.4517,-2.4398,-2.3631,-2.3617,-2.3617,-2.3555,-2.1972,-2.1254,-2.114,-2.0243,-1.9835,-1.979,-1.979,-1.9821,-1.9832,-1.9843,-1.9912,-2.0022,0.0,0.0,0.0,0.0,0.0,0.0,0.0,0.0,0.0,0.0,0.0,0.0,0.0,0.0,0.0,0.0,0.0,0.0,0.0,-2.8669,-2.8785,-2.8737,-2.8791,-2.8785,-2.8694,-2.8718,-2.8318,-2.7495,-2.8245,-2.9022,-2.9769,-3.1964,-3.2933,-3.2866,-3.4011,-3.4604,-3.4689,-3.485,-3.5211,-3.5684,-3.5835,-3.6844,0.0,0.0,0.0,0.0,0.0,0.0,0.0,0.0,-3.4179,-3.3928,-3.3496,-3.3239,-3.2948,-3.2235,-3.1657,-3.102,-2.9687,-2.8523,-2.7472,-2.6516,-2.4901,0.0,0.0,-2.5447,-2.6156,-2.4063,-2.6008,0.0,0.0,-2.4094,-1.9814,-1.5662,-1.2256,-0.9439,-0.7623,-0.9883,-1.2729,-1.5335,-1.83,-2.0655,-2.2119,-2.3336,-2.4244,-2.4657,-2.4954,-2.5128,-2.5214,-2.5242,-2.5205,-2.5089,-2.5075,-2.5019,-2.4896,-2.4791,-2.4207,-2.3198,-2.4161,-2.4216,-2.3501,-2.3408,-2.3408,-2.3388,-2.1674,-2.0921,-2.0832,-1.9875,-1.949,-1.9504,-1.963,-1.9669,-1.9738,-2.0327,-2.0259,-1.9955,0.0,0.0,0.0,0.0,0.0,0.0,0.0,0.0,0.0,0.0,0.0,0.0,0.0,0.0,0.0,0.0,0.0,0.0,-2.8543,-2.8743,-2.8834,-2.8767,-2.8834,-2.8834,-2.8718,-2.8669,-2.8221,-2.7381,-2.8153,-2.8923,-2.9747,-3.1789,-3.2617,-3.244,-3.3459,-3.4057,-3.425,-3.4315,-3.4848,-3.5681,-3.5856,-3.6824,0.0,0.0,0.0,0.0,0.0,0.0,0.0,0.0,-3.4173,-3.4203,-3.3884,-3.3534,-3.3135,-3.2492,-3.1883,-3.1111,-2.9611,-2.8601,-2.7694,-2.6672,0.0,0.0,-2.1202,-2.3869,-2.6076,-2.446,-2.5915,-2.7117,-2.5907,-2.1696,-1.7388,-1.4275,-1.0156,-0.6868,-0.5534,-0.787,-1.103,-1.453,-1.763,-2.0337,-2.2529,-2.3731,-2.4473,-2.4681,-2.4818,-2.4885,-2.4877,-2.4782,-2.4764,-2.4875,-2.4729,-2.4601,-2.4552,-2.4408,-2.3621,-2.2206,-2.3142,-2.3307,-2.2794,-2.2724,-2.2609,-2.2361,-2.0788,-2.0154,-2.0181,-1.9478,-1.9227,-1.9305,-1.9456,-1.9513,-1.9583,-2.0228,-2.0157,-1.9832,0.0,0.0,0.0,0.0,0.0,0.0,0.0,0.0,0.0,0.0,0.0,0.0,0.0,0.0,0.0,0.0,0.0,0.0,-2.8669,-2.8761,-2.8834,-2.8905,-2.8834,-2.8804,-2.8785,-2.8594,-2.8113,-2.7301,-2.8044,-2.8466,-2.8667,-3.1338,-3.1814,-3.0475,-3.2136,-3.3109,-3.3502,-3.3368,-3.3919,-3.4927,-3.5035,-3.5932,-3.7014,0.0,0.0,0.0,0.0,0.0,0.0,0.0,-3.4363,-3.4221,-3.4363,-3.3106,-3.174,-3.2483,-3.1602,-3.0194,-2.9245,-2.8305,-2.7411,0.0,0.0,0.0,-1.4079,-1.8659,-2.4292,-2.5565,-2.5248,-2.4167,-2.2287,-1.8392,-1.4361,-1.0991,-0.7983,-0.5401,-0.3537,-0.571,-0.9055,-1.3281,-1.6545,-1.9691,-2.2901,-2.3918,-2.4472,-2.4682,-2.4497,-2.4378,-2.4376,-2.4073,-2.4167,-2.476,-2.446,-2.4188,-2.3988,-2.3988,-2.2951,-2.0905,-2.1353,-2.1494,-2.1291,-2.1348,-2.0951,-2.0138,-1.9054,-1.8752,-1.9002,-1.9002,-1.9101,-1.9289,-1.9289,-1.9289,-1.9289,-1.9308,-1.9427,-1.9601,0.0,0.0,0.0,0.0,0.0,0.0,0.0,0.0,0.0,0.0,0.0,0.0,0.0,0.0,0.0,0.0,0.0,0.0,-2.8406,-2.8619,-2.8743,-2.8743,-2.9436,-2.9472,-2.8804,-2.8637,-2.8435,-2.8131,-2.8417,-2.8644,-2.887,-3.0937,-3.1304,-3.0304,-3.1561,-3.2474,-3.3086,-3.3302,-3.3915,-3.4769,-3.4908,-3.5533,-3.6245,0.0,0.0,0.0,0.0,0.0,0.0,0.0,0.0,0.0,-3.3867,-3.2798,-3.1685,-3.1377,-3.0391,-2.9237,-2.8436,-2.7818,0.0,-2.6619,0.0,0.0,0.0,-1.5658,0.0,0.0,-1.9607,-1.9222,-1.8529,-1.5266,-1.1719,-0.8804,-0.48,-0.1992,-0.1811,-0.44,-0.8096,-1.2736,-1.7204,-2.0898,-2.3508,-2.3689,-2.3763,-2.4106,-2.329,-2.2951,-2.3307,-2.3249,-2.3226,-2.3263,-2.3444,-2.3498,-2.3428,-2.2912,-2.2114,-2.1032,-2.1113,-2.0841,-2.0232,-2.002,-1.9934,-1.9877,-1.8979,-1.8659,-1.8715,-1.8715,-1.8753,-1.8825,-1.8825,-1.8913,-1.9157,-1.9719,-1.9705,-1.9472,0.0,0.0,0.0,0.0,0.0,0.0,0.0,0.0,0.0,0.0,0.0,0.0,0.0,0.0,0.0,0.0,0.0,0.0,0.0,-2.8518,-2.8669,-2.8694,-2.9631,-3.0027,-2.9758,-2.9664,-2.9468,-2.9141,-2.8739,-2.8833,-2.9375,-3.0467,-3.0674,-3.0191,-3.0783,-3.1381,-3.196,-3.2113,-3.2729,-3.3646,-3.377,-3.4469,-3.5331,0.0,0.0,0.0,0.0,0.0,0.0,0.0,0.0,0.0,-3.3667,-3.2718,-3.1771,-3.0992,-2.9884,-2.8778,-2.824,-2.6997,0.0,-2.2552,-1.5744,-0.8718,-0.496,0.0,0.0,0.0,-1.2837,-1.4272,-1.4254,-1.1859,-0.9061,-0.6484,-0.2085,0.0613,-0.0498,-0.3822,-0.7863,-1.2625,-1.7773,-2.1481,-2.284,-2.2694,-2.2554,-2.2675,-2.1742,-2.1541,-2.2315,-2.2219,-2.22,-2.2314,-2.2444,-2.2505,-2.2505,-2.1831,-2.1045,-2.0217,-1.9773,-1.9235,-1.8618,-1.9109,-1.9279,-1.914,-1.8643,-1.845,-1.845,-1.8547,-1.8585,-1.8585,-1.8585,-1.8697,-1.8914,-1.9507,-1.9433,-1.9104,0.0,0.0,0.0,0.0,0.0,0.0,0.0,0.0,0.0,0.0,0.0,0.0,0.0,0.0,0.0,0.0,0.0,0.0,0.0,0.0,-2.8576,-2.8669,-2.9582,-3.046,-3.1188,-3.1232,-3.0892,-3.021,-2.9305,-2.9243,-2.991,-3.0081,-3.0088,-2.9966,-2.9892,-3.0075,-3.0469,-3.036,-3.0976,-3.1998,-3.2143,-3.3026,-3.4217,-3.3529,0.0,0.0,0.0,0.0,0.0,0.0,0.0,0.0,-3.3592,-3.263,-3.1729,-3.1017,-2.977,-2.8555,-2.8179,0.0,0.0,-1.6232,-1.0635,0.0,0.7792,0.5172,0.0113,-0.0673,-0.4963,-0.8665,-0.8955,-0.7668,-0.5867,-0.3878,0.0521,0.2901,0.0726,-0.3169,-0.765,-1.2785,-1.806,-2.1279,-2.1219,-2.1086,-2.0881,-2.06,-1.989,-1.9989,-2.1168,-2.0878,-2.0938,-2.1523,-2.1361,-2.1199,-2.107,-2.0537,-1.9727,-1.8636,-1.7754,-1.7153,-1.6805,-1.842,-1.8806,-1.8166,-1.8166,-1.8166,-1.8187,-1.843,-1.8528,-1.8528,-1.8528,-1.8547,-1.8585,-1.8843,-1.8789,-1.8623,0.0,0.0,0.0,0.0,0.0,0.0,0.0,0.0,0.0,0.0,0.0,0.0,0.0,0.0,0.0,0.0,0.0,0.0,0.0,0.0,-2.8228,-2.8448,-2.9514,-3.046,-3.1188,-3.1359,-3.1366,-3.1201,-3.1485,-3.0826,-2.9338,-3.0683,-3.0515,-2.8998,-2.9301,-2.972,-3.0202,-3.0383,-3.1021,-3.1936,-3.2002,-3.2231,-3.2533,-3.2425,-3.2989,0.0,0.0,0.0,0.0,0.0,0.0,0.0,-3.2747,-3.1353,-3.0057,-2.9983,-2.9139,-2.7859,-2.6111,-2.6346,0.0,0.0,-0.274,0.9958,2.0277,2.0279,1.6332,1.0097,0.4988,0.1355,0.0423,0.0048,0.0104,0.0692,0.4534,0.6505,0.3775,0.086,-0.4211,-1.2896,-1.693,-1.9233,-1.9772,-1.9106,-1.8715,-1.8898,-1.7624,-1.7507,-1.914,-1.8419,-1.8197,-1.8733,-1.9045,-1.882,-1.7987,-1.8392,-1.796,-1.6621,-1.6818,-1.6749,-1.6436,-1.7071,-1.7565,-1.79,-1.79,-1.79,-1.7883,-1.7949,-1.7971,-1.7971,-1.7971,-1.8103,-1.829,-1.8351,-1.8469,-1.8604,0.0,0.0,0.0,0.0,0.0,0.0,0.0,0.0,0.0,0.0,0.0,0.0,0.0,0.0,0.0,0.0,0.0,0.0,0.0,0.0,-2.8195,-2.8981,-2.9639,-3.0574,-3.184,-3.1978,-3.2078,-3.217,-3.2914,-3.2312,-3.045,-3.0483,-3.0153,-2.9512,-2.9255,-2.9329,-2.9627,-2.9738,-3.0091,-3.0568,-3.0674,-3.0921,-3.1219,-3.1238,-3.1763,-3.2493,-3.2445,0.0,0.0,0.0,0.0,0.0,0.0,0.0,-3.0075,-2.9813,-2.8989,-2.7564,-2.4943,0.0,0.0,-0.5601,0.0,1.7997,2.3237,2.4233,2.2805,1.8476,1.2466,0.7662,0.6724,0.5949,0.5834,0.7076,0.9939,1.0998,0.8156,0.3427,-0.2551,-1.0139,-1.4768,-1.7295,-1.718,-1.6692,-1.6486,-1.6617,-1.5882,-1.6064,-1.7514,-1.7087,-1.6941,-1.722,-1.7464,-1.733,-1.6757,-1.6822,-1.6498,-1.5766,-1.5728,-1.5779,-1.5976,-1.6523,-1.6993,-1.7313,-1.7313,-1.7313,-1.7337,-1.7502,-1.7549,-1.7572,-1.7743,-1.79,-1.8035,-1.8146,-1.8208,-1.8229,0.0,0.0,0.0,0.0,0.0,0.0,0.0,0.0,0.0,0.0,0.0,0.0,0.0,0.0,0.0,0.0,0.0,0.0,0.0,0.0,0.0,-2.9602,-2.995,-3.0797,-3.2331,-3.2676,-3.2852,-3.2895,-3.3456,-3.3078,-3.1871,-3.0361,-2.9832,-3.0083,-2.9338,-2.8998,-2.9021,-2.9017,-2.904,-2.9108,-2.9218,-2.9625,-3.013,-3.0083,-3.0586,-3.1315,-3.1195,-3.1407,-3.1834,-3.2521,0.0,0.0,0.0,0.0,-3.043,-2.9889,-2.9083,-2.7735,-2.4735,0.0,-0.898,0.5961,1.577,0.0,2.1972,2.3078,2.3915,2.3342,1.7698,1.2566,1.1531,1.0495,1.0412,1.2238,1.4042,1.4265,1.1581,0.5471,-0.1016,-0.7199,-1.2253,-1.495,-1.4267,-1.4254,-1.428,-1.4297,-1.4306,-1.4756,-1.5864,-1.576,-1.5725,-1.582,-1.5833,-1.5743,-1.555,-1.5325,-1.5162,-1.4972,-1.4672,-1.4833,-1.5447,-1.6169,-1.6617,-1.6789,-1.6789,-1.6789,-1.6815,-1.7101,-1.7224,-1.7248,-1.7572,-1.7681,-1.7681,-1.7997,-1.7954,-1.7749,0.0,0.0,0.0,0.0,0.0,0.0,0.0,0.0,0.0,0.0,0.0,0.0,0.0,0.0,0.0,0.0,0.0,0.0,0.0,0.0,0.0,-2.939,-3.0387,-3.1073,-3.1389,-3.2985,-3.3524,-3.2895,-3.2372,0.0,0.0,0.0,-3.0586,-2.9015,-2.8994,-2.891,-2.8743,-2.8881,-2.8975,-2.9089,-2.913,-2.9118,-2.9099,-2.9075,-2.9564,-3.0216,-3.0265,-3.0779,-3.1483,-3.1713,-3.1279,0.0,0.0,0.0,-2.9421,-2.9451,-2.9316,-2.8644,0.0,0.0,-0.1097,0.0,1.7529,2.071,0.0,0.0,2.202,2.0702,1.9597,1.8164,1.5903,1.3531,1.1699,1.1095,1.2276,1.249,1.0249,0.7913,0.2625,-0.7621,-1.0003,-1.1182,-1.2112,-1.2207,-1.2336,-1.2686,-1.2376,-1.2636,-1.3606,-1.2889,-1.2619,-1.3112,-1.3123,-1.2663,-1.1733,-1.3374,-1.3745,-1.2838,-1.3954,-1.455,-1.4676,-1.5106,-1.5866,-1.6789,-1.6789,-1.6789,-1.6815,-1.6841,-1.6866,-1.6917,-1.7248,-1.7175,-1.7018,-1.7635,-1.7641,-1.7415,0.0,0.0,0.0,0.0,0.0,0.0,0.0,0.0,0.0,0.0,0.0,0.0,0.0,0.0,0.0,0.0,0.0,0.0,0.0,0.0,0.0,-2.9456,-2.9593,-3.0166,-3.1283,-3.2107,-3.2441,-3.2228,0.0,0.0,0.0,-3.0983,-3.005,0.0,-2.8978,-2.8876,-2.8426,-2.8815,-2.8975,-2.904,-2.8998,-2.9048,-2.9097,-2.8839,-2.8766,-2.8819,-2.8693,-2.8888,-2.9326,-2.9926,-2.9945,-2.981,-3.0339,0.0,0.0,0.0,-2.9328,-2.7971,-2.2036,-1.1986,-0.0647,0.0,1.5129,1.8228,1.9885,2.0567,2.0422,1.8727,1.8697,1.891,1.8789,1.7195,1.5657,1.497,1.5799,1.4638,0.9181,0.6782,0.243,-0.6196,-0.7849,-0.8643,-0.9479,-1.0092,-1.0597,-1.0941,-1.1411,-1.1828,-1.2185,-1.2141,-1.2155,-1.2137,-1.2137,-1.1912,-1.1431,-1.2334,-1.265,-1.2461,-1.363,-1.4149,-1.4181,-1.4596,-1.5166,-1.5866,-1.612,-1.6246,-1.6215,-1.6041,-1.6182,-1.6523,-1.6475,-1.6596,-1.6841,-1.7142,-1.7167,-1.7027,0.0,0.0,0.0,0.0,0.0,0.0,0.0,0.0,0.0,0.0,0.0,0.0,0.0,0.0,0.0,0.0,0.0,0.0,0.0,0.0,0.0,-3.0132,-2.9539,-2.9857,-3.1391,-3.1409,-3.1391,-3.1395,0.0,0.0,-3.0105,-3.0019,-2.9092,0.0,-2.8426,-2.8492,-2.8017,0.0,0.0,-2.8663,-2.8709,-2.8975,-2.9267,-2.8533,-2.8154,-2.7996,-2.7515,-2.7319,-2.7488,-2.8393,-2.878,-2.8993,-2.9872,-2.9731,0.0,0.0,0.0,-2.7866,0.0,0.0,-0.4501,0.5658,1.0889,1.4573,0.0,1.9266,1.8963,1.7486,1.7679,1.8418,1.9421,1.8654,1.7636,1.6834,1.6683,1.4295,0.7416,0.4025,0.0364,-0.4625,-0.5903,-0.6681,-0.7507,-0.8398,-0.9105,-0.9563,-1.0512,-1.0979,-1.083,-1.1297,-1.1381,-1.1008,-1.1159,-1.1207,-1.1207,-1.1468,-1.1847,-1.2318,-1.3148,-1.3555,-1.3555,-1.4117,-1.4564,-1.4968,-1.5418,-1.561,-1.5594,-1.5308,-1.5483,-1.591,-1.5837,-1.6063,-1.6473,-1.6903,-1.7018,-1.6942,0.0,0.0,0.0,0.0,0.0,0.0,0.0,0.0,0.0,0.0,0.0,0.0,0.0,-2.6367,-2.6572,-2.6942,0.0,0.0,0.0,0.0,0.0,-3.1815,-3.1292,0.0,-3.1495,-3.1427,-3.1114,0.0,0.0,0.0,-2.9081,-2.9262,-2.7927,-2.5415,-2.6872,-2.7429,-2.7363,0.0,0.0,-2.7798,-2.8118,-2.8723,-2.9333,-2.784,-2.7772,-2.8318,-2.7232,-2.689,-2.703,-2.7735,-2.7917,-2.8043,-2.9126,-2.9349,-2.927,0.0,0.0,0.0,0.0,-2.213,0.0,-0.0495,0.5158,0.9351,1.554,1.7516,1.7822,1.7247,1.7655,1.7786,1.6809,1.6083,1.5061,1.3277,1.0894,0.8006,0.4393,-0.019,-0.3319,-0.3678,-0.4178,-0.5201,-0.6862,-0.7321,-0.7938,-0.9074,-0.9428,-0.9514,-0.922,-0.9247,-0.9165,-0.8886,-0.935,-0.9637,-0.9637,-1.0552,-1.1319,-1.1847,-1.2354,-1.2567,-1.2603,-1.3522,-1.4149,-1.4564,-1.4968,-1.5134,-1.5121,-1.4898,-1.4839,-1.4935,-1.5548,-1.5613,-1.5581,-1.716,-1.7549,-1.7256,0.0,0.0,0.0,0.0,0.0,0.0,0.0,0.0,0.0,0.0,0.0,0.0,0.0,-2.642,-2.6892,-2.7103,-2.782,0.0,0.0,0.0,0.0,-3.2058,-3.1474,-3.1488,-3.2324,-3.1709,-3.112,0.0,0.0,-2.995,-2.9134,-2.903,-2.8164,-2.6695,-2.7435,-2.7394,-2.6781,-2.7415,0.0,-2.8484,-2.8755,-2.8856,-2.8834,-2.8671,-2.7979,-2.7063,-2.6919,-2.6578,-2.6227,-2.6521,-2.6987,-2.7568,-2.8427,-2.8727,-2.8858,-2.9439,-2.9664,-2.9382,0.0,0.0,0.0,-0.8745,-0.2832,0.2674,0.9059,1.1438,1.1805,0.9904,0.9108,0.8172,0.6342,1.12,1.4597,1.1865,0.9368,0.6775,0.3802,0.0254,-0.2476,-0.3654,-0.4367,-0.517,-0.6239,-0.6777,-0.7446,-0.8421,-0.8663,-0.8545,-0.8029,-0.856,-0.8639,-0.8268,-0.8733,-0.8999,-0.8999,-0.964,-1.0253,-1.0799,-1.1608,-1.2187,-1.2508,-1.3173,-1.3514,-1.3682,-1.4149,-1.4783,-1.5462,-1.4248,-1.418,-1.4761,-1.4302,-1.4608,-1.5386,-1.6177,-1.6686,-1.6977,0.0,0.0,0.0,0.0,0.0,0.0,0.0,0.0,0.0,0.0,0.0,0.0,0.0,0.0,-2.7287,-2.7888,-2.8652,-2.939,-3.0101,-3.083,-3.165,-3.2674,-3.2046,-3.1916,-3.244,-3.1525,-3.0738,0.0,0.0,0.0,0.0,-2.8805,-2.8208,-2.7012,-2.7618,-2.7101,0.0,0.0,-2.7664,-2.8031,-2.8639,-2.8874,-2.8794,-2.888,-2.8,-2.6757,-2.6939,-2.6526,-2.5936,-2.6125,-2.6629,-2.7255,-2.7777,-2.8051,-2.8398,-2.9465,-2.9614,-2.9187,-2.789,0.0,0.0,0.0,-1.0097,-0.5296,0.1884,0.3615,0.3351,0.2002,0.091,-0.01,-0.1183,0.4923,0.9751,0.8714,0.8378,0.7209,0.4078,0.1111,-0.1253,-0.2822,-0.4139,-0.5247,-0.5926,-0.6428,-0.7116,-0.8101,-0.7903,-0.7467,-0.6817,-0.7442,-0.7662,-0.7392,-0.7847,-0.8156,-0.8278,-0.8865,-0.937,-0.982,-1.0733,-1.1498,-1.2018,-1.2685,-1.3035,-1.3195,-1.3535,-1.4214,-1.5092,-1.3954,-1.3919,-1.4527,-1.4078,-1.4545,-1.5515,-1.5783,-1.6403,-1.7085,0.0,0.0,0.0,0.0,0.0,0.0,0.0,0.0,0.0,-2.6225,0.0,0.0,0.0,0.0,0.0,-2.9233,-2.9464,-3.0286,-3.2053,-3.232,-3.2821,-3.3662,0.0,0.0,0.0,-3.0882,-3.0001,-2.9237,-2.914,-2.8581,0.0,0.0,-2.7971,-2.6075,-2.712,-2.6459,-2.4699,0.0,-2.6648,-2.6272,-2.7698,-2.8695,-2.923,-2.8286,-2.7795,-2.7578,-2.7329,-2.6757,-2.6188,-2.6676,-2.6933,-2.7058,-2.714,-2.7373,-2.7921,-2.9594,-2.9451,-2.8916,0.0,0.0,0.0,-1.8083,-1.6356,-1.4397,-0.5761,-0.574,-0.7169,-0.5915,-0.6335,-0.6509,-0.5213,-0.2791,0.0041,0.3329,0.7355,0.8784,0.5089,0.2148,-0.0052,-0.111,-0.3527,-0.5354,-0.5946,-0.6238,-0.6905,-0.8076,-0.7195,-0.6297,-0.5628,-0.579,-0.5992,-0.6058,-0.6645,-0.7093,-0.7325,-0.8199,-0.8731,-0.8939,-0.9744,-1.0397,-1.0998,-1.1984,-1.2624,-1.3023,-1.311,-1.3408,-1.3854,-1.402,-1.407,-1.414,-1.4943,-1.5452,-1.5758,-1.6063,-1.6853,-1.7631,0.0,0.0,0.0,0.0,0.0,0.0,-2.6118,-2.5974,-2.603,0.0,0.0,0.0,-2.6975,-2.7279,-2.7747,-2.8467,-2.9651,-3.0635,-3.1292,-3.2593,-3.3488,-3.3842,-3.3827,-3.352,-3.2901,-3.2414,-3.1611,-3.0428,-3.0728,-3.0185,-2.8861,-2.9586,-2.8887,0.0,-2.7033,-2.6161,-2.4801,-2.5901,-2.6579,-2.6995,-2.731,-2.7612,-2.7948,-2.8538,-2.8278,-2.7679,-2.8225,-2.7487,-2.6383,-2.7292,-2.6836,-2.5965,-2.6468,-2.7132,-2.7931,-2.8935,-2.8649,-2.83,-2.9699,0.0,0.0,0.0,0.0,0.0,-1.4847,-1.536,-1.6508,-1.4164,-1.7811,-2.0288,-1.661,-1.3095,-0.9399,-0.5343,0.1703,0.6689,0.6609,0.3278,0.0324,-0.1258,-0.3788,-0.5659,-0.635,-0.6511,-0.6668,-0.702,-0.6475,-0.5701,-0.4861,-0.4594,-0.4678,-0.5074,-0.5548,-0.5817,-0.587,-0.6114,-0.669,-0.7555,-0.7921,-0.8758,-1.0013,-1.0437,-1.0852,-1.1213,-1.1496,-1.1907,-1.2448,-1.3314,-1.3586,-1.3476,-1.3691,-1.3996,-1.4374,-1.5168,-1.6108,-1.705,0.0,0.0,0.0,0.0,0.0,-2.5738,-2.6383,-2.6208,-2.6262,0.0,0.0,0.0,-2.7338,-2.773,-2.8215,-2.8829,-3.0125,-3.1129,-3.1619,-3.3038,-3.3921,-3.4023,-3.4269,-3.408,-3.3402,-3.3197,-3.2518,-3.1369,-3.1582,-3.1209,-3.0305,-3.03,-2.9654,-2.8488,0.0,0.0,0.0,-2.5619,-2.587,-2.6434,-2.7279,-2.7431,-2.7207,-2.8209,-2.7956,-2.7168,-2.7979,-2.7415,-2.6346,-2.6929,-2.6268,-2.5364,-2.6178,-2.6592,-2.6976,-2.8077,-2.8064,0.0,0.0,0.0,0.0,-2.8493,0.0,0.0,-2.1565,-2.2251,-2.3097,-2.0588,-2.3241,-2.4923,-2.1245,-1.7396,-1.3529,-0.9784,-0.2241,0.4019,0.6449,0.3509,0.0489,-0.1156,-0.4348,-0.6578,-0.702,-0.6804,-0.6593,-0.6608,-0.5214,-0.3811,-0.2625,-0.2596,-0.2891,-0.3379,-0.4199,-0.4651,-0.4744,-0.5082,-0.5603,-0.6368,-0.6719,-0.7486,-0.8559,-0.9261,-0.9701,-0.9961,-1.055,-1.1054,-1.154,-1.239,-1.2975,-1.3318,-1.3272,-1.3597,-1.4133,-1.431,-1.5357,-1.6695,0.0,0.0,-2.5811,-2.5954,-2.5901,-2.6049,-2.6708,-2.6488,-2.6471,0.0,-2.7112,-2.7326,-2.7897,-2.8264,-2.8807,-2.9616,-3.0527,-3.1441,-3.2302,-3.3278,-3.3926,-3.4091,-3.4386,-3.4256,-3.354,-3.354,-3.3066,-3.204,-3.2083,-3.1939,-3.1593,-3.0826,-3.0299,-2.9899,0.0,0.0,0.0,-2.5452,-2.4523,-2.4172,-2.6892,-2.733,-2.6449,-2.7371,-2.7038,-2.6188,-2.709,-2.69,-2.6208,-2.6003,-2.5581,-2.5288,-2.6092,-2.5862,-2.5581,-2.7089,-2.7491,0.0,0.0,0.0,0.0,-2.8207,-2.8945,0.0,-2.6313,-2.6728,-2.724,-2.5365,-2.4903,-2.4083,-2.1787,-1.8209,-1.467,-1.1781,-0.5487,0.0489,0.4556,0.2661,0.0214,-0.157,-0.5445,-0.7871,-0.7824,-0.7122,-0.6701,-0.6608,-0.3424,-0.0819,0.0583,-0.0247,-0.0996,-0.1515,-0.2858,-0.3706,-0.3946,-0.4573,-0.5055,-0.5354,-0.5823,-0.637,-0.6997,-0.8185,-0.8799,-0.8931,-0.9798,-1.0424,-1.0813,-1.1248,-1.2157,-1.3253,-1.3186,-1.3679,-1.4288,-1.3564,-1.4627,-1.6311,0.0,0.0,-2.6139,-2.6487,-2.659,-2.6774,-2.7352,-2.721,-2.7192,-2.7595,-2.7695,-2.788,-2.8344,-2.8362,-2.8513,-2.8961,-2.9708,-3.0362,-3.0788,-3.1681,-3.2539,-3.3374,-3.3607,-3.3693,-3.3582,-3.4144,-3.3767,-3.2317,-3.3435,-3.2935,-3.097,-3.1406,-3.0746,-2.9145,-2.7382,0.0,0.0,-2.533,-2.1953,-1.7741,-2.3208,-2.4648,-2.373,-2.589,-2.5782,-2.479,-2.6826,-2.7115,-2.6434,-2.5745,-2.5746,-2.598,-2.5525,-2.5335,-2.546,-2.6266,-2.6148,-2.6092,-2.756,-2.7638,-2.7576,-2.8637,-2.8604,0.0,-2.894,-2.8551,-2.81,-2.8045,-2.7645,-2.6653,-2.4521,-2.1503,-1.8548,-1.6067,-1.0656,-0.5089,-0.0372,-0.0212,-0.1953,-0.5667,-0.8023,-0.9082,-0.858,-0.7829,-0.7154,-0.6663,-0.0497,0.335,0.366,0.1446,-0.0198,-0.0988,-0.2684,-0.3605,-0.3665,-0.3658,-0.3939,-0.4463,-0.4576,-0.5098,-0.5992,-0.6368,-0.6882,-0.7528,-0.8019,-0.8712,-0.9497,-0.9749,-1.0575,-1.1709,-1.2258,-1.242,-1.2429,-1.3628,-1.4309,-1.4791,0.0,-2.5313,-2.647,-2.6725,-2.6758,-2.6939,-2.7491,-2.7504,-2.7547,-2.7858,-2.8129,-2.8258,-2.816,-2.8512,-2.8627,-2.8324,-2.9338,-3.01,-3.0374,-3.1201,-3.1968,-3.258,-3.3199,-3.3582,-3.3658,-3.4453,-3.4452,-3.3658,-3.4334,-3.4009,-3.2767,-3.2252,-3.1222,-2.9767,-2.8032,-2.6749,0.0,-2.5537,-2.3303,-2.003,-2.0551,-1.8691,-1.595,-1.9042,-1.9988,-2.0131,-2.3804,-2.541,-2.5755,-2.5449,-2.5552,-2.5732,-2.5326,-2.5547,-2.5912,-2.5723,-2.6346,-2.7086,-2.7108,-2.7739,-2.8439,-2.857,-2.885,0.0,0.0,-2.7975,-2.7503,-2.6644,-2.6127,-2.534,-2.3842,-2.1642,-1.9586,-1.7897,-1.3559,-1.0414,-1.0622,-0.7614,-0.6509,-0.9604,-1.063,-1.0826,-1.0225,-0.8553,-0.6152,-0.2846,0.2261,0.5152,0.5022,0.3387,0.1833,0.05,-0.0898,-0.2232,-0.3588,-0.3403,-0.3406,-0.3595,-0.3716,-0.414,-0.4877,-0.5342,-0.5898,-0.654,-0.7148,-0.7773,-0.8447,-0.8917,-0.9566,-1.0362,-1.1073,-1.1479,-1.1796,-1.2524,-1.3274,-1.4063,0.0,0.0,-2.6335,-2.6587,-2.6604,-2.6817,-2.7522,-2.7659,-2.7771,-2.8129,-2.8099,-2.7894,-2.7531,-2.7952,-2.7959,-2.7191,-2.839,-2.938,-2.9807,-3.0576,-3.118,-3.1524,-3.2524,-3.3223,-3.3443,-3.4299,-3.4794,-3.4926,-3.485,-3.4756,-3.4586,-3.29,-3.1536,-3.0375,-2.8179,-2.6587,0.0,-2.5101,-2.3558,-2.1087,-1.7042,-1.3669,-1.1408,-1.431,-1.5241,-1.5697,-2.0994,-2.3824,-2.5061,-2.4985,-2.507,-2.5193,-2.5039,-2.5629,-2.6191,-2.5293,-2.653,-2.7918,-2.6549,-2.7663,-2.8969,-2.7942,-2.8646,-2.9047,0.0,0.0,0.0,-2.5085,-2.4664,-2.4309,-2.3336,-2.1812,-2.0494,-1.9832,-1.6467,-1.5636,-2.0468,-1.5969,-1.2432,-1.321,-1.2763,-1.1957,-1.0869,-0.8372,-0.4389,0.153,0.4027,0.5437,0.5697,0.4937,0.3682,0.1854,0.0869,-0.0789,-0.3233,-0.3083,-0.3021,-0.3014,-0.3232,-0.3616,-0.4145,-0.496,-0.5619,-0.616,-0.6811,-0.7325,-0.7744,-0.8512,-0.8981,-0.9369,-1.0097,-1.0861,-1.1535,-1.1516,-1.2305,-1.3516,-2.3511,-2.4171,0.0,-2.5848,-2.609,-2.6541,-2.7625,-2.7789,-2.8037,-2.87,-2.6927,-2.5803,-2.6327,-2.5466,-2.4807,0.0,-2.5467,-2.6463,-2.7748,-2.8302,-2.8982,-2.9846,-3.0784,-3.1686,-3.2535,-3.3344,-3.4169,-3.4983,-3.4927,-3.4548,-3.3881,-3.2732,-3.128,-2.9472,-2.5641,-2.4627,0.0,-2.2628,-1.6991,-1.0096,-1.032,-1.4419,-2.0379,-2.0519,-1.7911,-1.5056,-2.1657,-2.4564,-2.5101,-2.4068,-2.4267,-2.481,-2.412,-2.4644,-2.5428,-2.4897,-2.5205,-2.5622,-2.52,-2.5323,-2.5749,-2.6427,-2.66,-2.6688,-2.7036,0.0,-2.7875,-2.738,0.0,-2.7869,-2.6736,0.0,0.0,-2.43,-2.1821,-2.0854,-2.3871,-2.2105,-1.929,-1.5939,-1.3347,-1.0748,-0.8056,-0.594,-0.2295,0.3536,0.3509,0.4178,0.6377,0.5194,0.3682,0.1854,0.0869,-0.0372,-0.201,-0.1968,-0.2312,-0.3014,-0.3332,-0.3861,-0.4573,-0.5439,-0.6244,-0.6969,-0.705,-0.7334,-0.7754,-0.8484,-0.8816,-0.8969,-1.0008,-1.0653,-1.1094,-1.188,-1.2268,-1.2613,-2.3465,-2.4134,0.0,0.0,-2.5833,-2.6266,-2.6384,-2.6677,-2.7073,-2.7645,-2.6897,-2.632,-2.6332,-2.6662,-2.6275,0.0,-2.5892,-2.6903,-2.7298,-2.7724,-2.8541,-2.9785,-3.0687,-3.1385,-3.18,-3.2988,-3.3828,-3.4299,-3.4225,-3.4091,-3.3834,-3.2348,-3.0742,-2.8927,-2.5228,-2.2574,-2.0678,-1.7922,-1.5586,-1.3553,-1.1526,-1.4587,-1.9715,-1.4075,-1.4105,-1.7619,-2.1255,-2.3488,-2.4669,-2.4271,-2.4212,-2.437,-2.4645,-2.491,-2.5095,-2.4969,-2.5664,-2.6209,-2.5144,-2.5512,-2.6255,-2.6408,-2.7044,-2.7575,-2.7456,-2.8329,-2.8969,-2.8296,0.0,0.0,0.0,0.0,0.0,0.0,-2.398,-2.3071,-2.3865,-2.2379,-2.0731,-1.9416,-1.6786,-1.1924,-0.3845,-0.138,0.1715,0.6474,0.6678,0.6905,0.777,0.6876,0.5414,0.3405,0.2293,0.0913,-0.0741,-0.0995,-0.1405,-0.2032,-0.2944,-0.3802,-0.4636,-0.5466,-0.6287,-0.7052,-0.7345,-0.7647,-0.8021,-0.8584,-0.8926,-0.9209,-0.9855,-1.031,-1.0656,-1.1048,-1.1646,-1.2371,-2.3567,0.0,0.0,0.0,-2.5114,-2.5651,-2.5862,-2.6146,-2.662,-2.7286,-2.6839,-2.6397,-2.6238,-2.6194,-2.5585,-2.4036,-2.4782,-2.5461,-2.574,-2.6757,-2.767,-2.8357,-3.0067,-3.0841,-3.0516,-3.2176,-3.3196,-3.3496,-3.3456,-3.3503,-3.3597,-3.21,-3.0487,-2.8738,-2.5369,-2.1463,-1.723,-1.4646,-1.3515,-1.3172,-1.0214,-1.1398,-1.4493,-1.0693,-1.317,-1.8981,-2.0949,-2.2825,-2.4353,-2.4114,-2.4099,-2.4277,-2.4855,-2.502,-2.503,-2.5052,-2.5831,-2.6402,-2.5146,-2.559,-2.6362,-2.6124,-2.7026,-2.7855,-2.7376,-2.846,-2.9363,-2.8608,-2.9008,0.0,0.0,0.0,-2.7414,-2.642,0.0,-2.4439,-2.3884,-2.2587,-2.1528,-2.1107,-1.7786,-1.166,-0.1831,0.0113,0.2569,0.7052,0.8153,0.8831,0.9231,0.8593,0.7298,0.5344,0.3929,0.2471,0.0988,0.0043,-0.068,-0.1131,-0.274,-0.393,-0.4783,-0.5607,-0.649,-0.7366,-0.7734,-0.805,-0.8396,-0.8805,-0.9128,-0.9422,-0.9764,-1.0084,-1.0396,-1.0508,-1.1156,-1.2062,-2.384,-2.3127,0.0,0.0,-2.3688,-2.453,-2.6808,-2.694,-2.721,-2.8389,-2.6403,-2.5097,-2.5661,-2.2064,-2.0145,-2.1498,-2.0236,-2.0129,-2.1944,-2.4689,-2.5658,-2.4343,-2.81,-2.9638,-2.8339,-3.0449,-3.1957,-3.2749,-3.2793,-3.2865,-3.2916,-3.2004,-3.0702,-2.8942,-2.5717,-2.183,-1.7487,-1.4291,-0.8979,-0.2692,-0.2785,-0.3312,-0.5247,-1.5736,-1.8652,-1.7612,-2.1037,-2.327,-2.4392,-2.3021,-2.3578,-2.4754,-2.4062,-2.4514,-2.5256,-2.5054,-2.5039,-2.5024,-2.4858,-2.4745,-2.4722,-2.4915,-2.5579,-2.6223,-2.6403,-2.7637,-2.8666,-2.846,-2.8932,-2.9249,-2.8791,-2.8084,-2.7572,-2.7461,-2.6573,0.0,0.0,-2.4465,-2.3106,-1.9845,-1.4122,-0.8475,-0.3553,-0.3789,-0.1947,0.3711,0.6048,0.8201,1.0531,1.0015,0.8861,0.7285,0.5399,0.4136,0.3504,0.1169,-0.0213,-0.066,-0.2914,-0.439,-0.5204,-0.6067,-0.7139,-0.8251,-0.828,-0.8467,-0.8816,-0.9209,-0.9381,-0.9422,-0.9764,-1.0084,-1.0434,-1.0763,-1.1085,-1.1456,0.0,0.0,0.0,0.0,0.0,-2.4425,-2.574,-2.6095,-2.5392,-2.314,-2.258,-2.162,-1.957,-1.8909,-1.8542,-1.8345,-1.9734,-2.0733,-2.1009,-2.4097,-2.5926,-2.5898,-2.8786,-2.9977,-2.9082,-3.0657,-3.1648,-3.1966,-3.1987,-3.2035,-3.2066,-3.0623,-2.9409,-2.8272,-2.4319,-1.8549,-1.1477,-0.7674,-0.3941,-0.0633,-0.2603,-0.4378,-0.6284,-1.0187,-1.3493,-1.6409,-1.9131,-2.1579,-2.3495,-2.35,-2.3778,-2.418,-2.4541,-2.4475,-2.4352,-2.4891,-2.4881,-2.4667,-2.4664,-2.4492,-2.4425,-2.4817,-2.5863,-2.6758,-2.6461,-2.7622,-2.8719,-2.8512,-2.8576,-2.8723,-2.8879,-2.8453,-2.7929,-2.75,-2.664,-2.5815,0.0,-2.396,-2.2309,-2.0132,-1.4702,-1.0231,-0.7749,-0.4582,-0.1305,0.2133,0.4822,0.8462,1.3332,1.2147,1.1378,1.1599,0.9681,0.7531,0.5133,0.3741,0.2642,0.1817,-0.1893,-0.4204,-0.5235,-0.661,-0.7733,-0.8634,-0.891,-0.9209,-0.9528,-0.9422,-0.954,-0.9764,-1.011,-1.031,-1.0474,-1.1012,-1.1552,-1.2183,-2.4102,0.0,0.0,-2.3903,-2.4078,-2.4462,-2.5458,-2.6184,-2.5122,-2.1011,-2.1232,-2.0417,-1.6909,-1.6635,-1.6753,-1.687,-1.8362,-1.9609,-2.0343,-2.3001,-2.5026,-2.6086,-2.8271,-2.9138,-2.8443,-3.0025,-3.0668,-3.0288,-3.0955,-3.1091,-3.0728,-2.9717,-2.8856,-2.7998,-2.4918,-1.7499,-0.7113,-0.435,0.0145,0.5041,0.155,-0.1303,-0.3723,-0.5801,-1.1133,-1.7689,-1.8747,-2.0868,-2.3258,-2.376,-2.3941,-2.4129,-2.4918,-2.471,-2.4291,-2.4963,-2.4907,-2.4619,-2.4659,-2.4501,-2.4428,-2.4785,-2.5683,-2.6521,-2.668,-2.7491,-2.8273,-2.8373,-2.8445,-2.8461,-2.8351,-2.8278,-2.7976,-2.7174,-2.6572,-2.598,0.0,-2.3917,-2.2433,-2.0766,-1.6616,-1.3369,-1.1942,-0.7731,-0.3981,-0.1135,0.3382,0.8115,1.3044,1.3435,1.4081,1.5352,1.3136,1.0661,0.8074,0.6234,0.4331,0.2347,-0.1065,-0.3524,-0.51,-0.638,-0.7502,-0.8445,-0.8953,-0.9396,-0.9724,-0.9619,-0.9698,-0.9931,-1.0135,-1.036,-1.0635,-1.1162,-1.1696,-1.2341,-2.4366,-2.4091,-2.3876,-2.4367,-2.4326,-2.466,-2.5951,-2.6981,-2.6076,-2.1745,-2.1854,-2.0908,-1.7169,-1.4839,-1.444,-1.6712,-1.6026,-1.6702,-1.9641,-2.1372,-2.306,-2.47,-2.6532,-2.721,-2.6536,-2.8584,-2.9119,-2.8017,-2.9815,-3.0129,-2.9068,-2.9331,-2.8973,-2.815,-2.7171,-1.8548,-0.4724,-0.4251,0.3065,1.3991,0.9279,0.556,0.2125,-0.3263,-1.183,-2.0828,-1.9671,-2.1147,-2.3678,-2.3781,-2.4136,-2.4604,-2.5118,-2.5163,-2.5046,-2.5234,-2.508,-2.4803,-2.4807,-2.471,-2.4624,-2.4729,-2.5,-2.5595,-2.6845,-2.7149,-2.7355,-2.7979,-2.8464,-2.8437,-2.7331,-2.764,-2.7741,-2.6691,-2.6538,-2.6139,-2.4958,-2.4425,-2.3514,-2.1683,-1.9585,-1.7588,-1.5785,-1.2967,-0.9717,-0.601,0.1284,0.6949,1.0164,1.396,1.675,1.8353,1.562,1.35,1.2136,0.8581,0.4896,0.1233,-0.0552,-0.2583,-0.4785,-0.5497,-0.6507,-0.7744,-0.8501,-0.9046,-0.9434,-0.9764,-0.9905,-0.9905,-0.9931,-1.0373,-1.0991,-1.1242,-1.1578,-1.2089,-2.4787,-2.5142,-2.5207,-2.4898,-2.4676,-2.4766,-2.538,-2.4563,-2.2165,-1.7373,-1.6107,-1.4037,-0.9793,-0.973,-1.0664,-1.2305,-1.4216,-1.5879,-1.7182,-2.0519,-2.2579,-2.2801,-2.5262,-2.6727,-2.6934,-2.8418,-2.9293,-2.9547,-3.0269,-3.0449,-3.0095,-2.8922,-2.8218,-2.7815,-2.5689,-1.707,-0.4043,-0.2751,0.4622,1.4967,0.9825,0.4825,-0.0046,-0.3862,-1.0587,-1.8023,-1.8242,-2.039,-2.32,-2.3759,-2.4358,-2.4898,-2.5022,-2.5152,-2.5224,-2.5274,-2.513,-2.4948,-2.4943,-2.4847,-2.4633,-2.4109,-2.5059,-2.5867,-2.5046,-2.5793,-2.6693,-2.6842,-2.6847,-2.6998,-2.7603,-2.7709,-2.7824,-2.8122,-2.7556,-2.657,-2.51,-2.4952,-2.4445,-2.2935,-2.2279,-2.0355,-1.6265,-1.3588,-1.1189,-0.8984,-0.4389,0.2819,1.2964,1.5131,1.7177,1.9656,1.8206,1.6739,1.5409,1.1185,0.7187,0.3509,-0.0671,-0.3205,-0.4261,-0.5621,-0.6789,-0.7772,-0.8805,-0.9316,-0.9434,-0.9764,-0.9905,-0.9957,-1.0447,-1.1024,-1.1571,-1.1659,-1.2365,-1.3346,-2.4595,-2.5123,-2.5405,-2.524,-2.4516,-2.3848,-2.3533,-2.4012,-2.2306,-1.6361,-1.4986,-1.3128,-0.9313,-0.8506,-0.9023,-1.1032,-1.3299,-1.5532,-1.7777,-1.9787,-2.1598,-2.3265,-2.437,-2.5329,-2.6149,-2.7393,-2.7994,-2.7905,-2.8974,-2.9225,-2.8637,-2.7769,-2.7287,-2.7103,-2.5243,-1.8078,-0.6969,0.0312,0.6444,1.1194,1.0234,0.6811,0.0,-0.2644,-0.8593,-1.4877,-1.7185,-2.0095,-2.2962,-2.3246,-2.4041,-2.4886,-2.4667,-2.4864,-2.5192,-2.5274,-2.5163,-2.4922,-2.4619,-2.4714,-2.4739,-2.4028,-2.4924,-2.5821,-2.5116,-2.5687,-2.6354,-2.6322,-2.6435,-2.6602,-2.6817,-2.7317,-2.7753,-2.7975,-2.7807,-2.7164,-2.579,-2.6089,-2.5828,-2.4117,-2.3342,-2.1291,-1.7207,-1.5665,-1.3496,-1.0094,-0.6082,0.0213,0.9438,1.3693,1.6692,1.863,1.8084,1.7116,1.5684,1.1859,0.7931,0.3959,0.0198,-0.2266,-0.3612,-0.5183,-0.6241,-0.6964,-0.8479,-0.9143,-0.917,-0.9686,-0.9905,-0.997,-1.0632,-1.1108,-1.1437,-1.1703,-1.2284,-1.2972,-2.4115,-2.4606,-2.5108,-2.545,-2.4075,-2.2476,-2.1086,-2.34,-2.2943,-1.6369,-1.5413,-1.421,-1.1358,-0.9071,-0.8743,-1.1247,-1.2801,-1.5338,-1.9252,-1.912,-2.0581,-2.4293,-2.3611,-2.3716,-2.4993,-2.6135,-2.6274,-2.5376,-2.7173,-2.7565,-2.6637,-2.6519,-2.6485,-2.6472,-2.526,-1.9632,-1.0201,0.3325,0.7947,0.6453,1.0156,0.9095,0.4632,-0.1358,-0.7028,-1.2443,-1.6603,-2.017,-2.2883,-2.2644,-2.3473,-2.4479,-2.408,-2.4319,-2.4759,-2.4955,-2.4875,-2.4602,-2.3957,-2.4278,-2.4664,-2.3999,-2.4588,-2.5434,-2.5844,-2.6034,-2.6112,-2.6119,-2.653,-2.6631,-2.5783,-2.6809,-2.7605,-2.6931,-2.7553,-2.7706,-2.6553,-2.7246,-2.7145,-2.5118,-2.3741,0.0,-1.8442,-1.7931,-1.5707,-1.0684,-0.6123,-0.1354,0.361,1.0806,1.5311,1.652,1.6606,1.6036,1.4756,1.1737,0.8082,0.3911,0.182,-0.0417,-0.2838,-0.4307,-0.529,-0.5891,-0.7828,-0.8679,-0.8789,-0.9516,-0.988,-1.0021,-1.0594,-1.0897,-1.1015,-1.1549,-1.1747,-1.1895,-2.389,-2.478,-2.5498,-2.5566,-2.3928,-2.1732,-1.9144,-1.7677,-1.5636,-1.2292,-1.0806,-0.9235,-0.6864,-0.7783,-0.8967,-0.9987,-1.2196,-1.4496,-1.6808,-1.8512,-2.0252,-2.2003,-2.249,-2.3485,-2.5132,-2.5866,-2.6424,-2.6828,-2.7522,-2.8036,-2.8327,-2.6915,-2.6569,-2.7032,0.0,-1.7252,-0.5787,0.2308,0.7215,0.9423,0.8002,0.5213,0.1316,-0.4224,-0.9221,-1.3829,-1.7435,-2.0578,-2.2994,-2.2997,-2.3109,-2.3217,-2.3199,-2.3265,-2.337,-2.339,-2.338,-2.3304,-2.314,-2.3182,-2.3244,-2.3059,-2.3723,-2.4443,-2.4527,-2.5111,-2.5644,-2.5698,-2.5751,-2.5873,-2.6197,-2.7134,-2.7438,-2.6136,-2.7293,-2.7752,-2.6095,-2.6961,-2.7084,-2.5144,-2.5297,-2.4002,-1.9885,-1.7476,-1.5457,-1.369,-0.8753,-0.2865,0.4021,0.8472,1.2347,1.5774,1.6204,1.6284,1.6062,1.33,0.9971,0.6216,0.419,0.1446,-0.1821,-0.3172,-0.4534,-0.5868,-0.7268,-0.8088,-0.8449,-0.9182,-0.9803,-1.0335,-1.0434,-1.0784,-1.1227,-1.1355,-1.1557,-1.1895,-2.4684,-2.4779,-2.4746,-2.4503,-2.2516,-2.0069,-1.7401,-1.4999,-1.3158,-1.2113,-1.0714,-0.9449,-0.8388,-0.7907,-0.8218,-0.9541,-1.1762,-1.4069,-1.6399,-1.8337,-2.0131,-2.1732,-2.2546,-2.3472,-2.4557,-2.5277,-2.572,-2.5898,-2.6301,-2.6578,-2.6715,-2.6303,-2.6065,-2.5895,0.0,-1.9129,-1.2726,-0.4822,-0.0641,0.0838,0.3144,0.1954,-0.1632,-0.6192,-1.0499,-1.4552,-1.8158,-2.0619,-2.2147,-2.2021,-2.2386,-2.2888,-2.2462,-2.261,-2.295,-2.295,-2.2926,-2.2805,-2.2347,-2.2556,-2.2786,-2.2335,-2.2863,-2.3469,-2.3463,-2.4121,-2.4575,-2.4088,-2.4794,-2.5641,-2.6115,-2.6352,-2.6303,-2.5727,-2.6579,-2.7,-2.6186,-2.6973,-2.7114,-2.5696,-2.5726,-2.4357,-2.0432,-1.8553,-1.6307,-1.3254,-0.9662,-0.5053,0.0747,0.6298,1.0822,1.4158,1.577,1.6567,1.655,1.3353,1.0112,0.6884,0.4714,0.2224,-0.0594,-0.2784,-0.4236,-0.5179,-0.6934,-0.7801,-0.807,-0.9008,-0.9539,-0.9784,-1.0204,-1.0592,-1.0879,-1.1182,-1.14,-1.1601,-2.4941,-2.4467,-2.3888,-2.3201,-2.0999,-1.8609,-1.6455,-1.4025,-1.2371,-1.2148,-1.0976,-1.0078,-0.9989,-0.8111,-0.7564,-0.946,-1.1634,-1.4002,-1.665,-1.8528,-2.0352,-2.2177,-2.3038,-2.3707,-2.4227,-2.4858,-2.5081,-2.4822,-2.5134,-2.5215,-2.508,-2.5728,-2.5579,-2.4759,-2.2998,-2.1316,-1.9334,-1.2097,-0.8814,-0.8,-0.2551,-0.2225,-0.5469,-0.9013,-1.2465,-1.5801,-1.9139,-2.0751,-2.1243,-2.0916,-2.154,-2.2321,-2.1647,-2.187,-2.2362,-2.2332,-2.2314,-2.2143,-2.1453,-2.1808,-2.2189,-2.1509,-2.1914,-2.2471,-2.2445,-2.3069,-2.3433,-2.264,-2.3861,-2.5158,-2.5305,-2.5226,-2.5168,-2.5316,-2.5864,-2.624,-2.6206,-2.6845,-2.6976,-2.6038,-2.5616,-2.4212,-2.1191,-2.0348,-1.7955,-1.316,-1.0632,-0.7286,-0.2632,0.35,0.8294,1.1416,1.4472,1.5969,1.5848,1.3235,1.0498,0.7591,0.536,0.2921,0.0293,-0.2438,-0.3975,-0.4555,-0.6567,-0.7618,-0.7993,-0.8899,-0.9286,-0.9338,-1.0042,-1.0322,-1.047,-1.0926,-1.1136,-1.1265,-2.3303,-2.3583,-2.3667,-2.228,-2.0247,-1.8313,-1.7015,-1.4522,-1.1873,-0.9413,-0.8456,-0.7753,-0.7095,-0.7359,-0.8171,-0.957,-1.1985,-1.4417,-1.6741,-1.9181,-2.1233,-2.274,-2.3542,-2.4279,-2.4977,-2.5125,-2.5217,-2.5234,-2.522,-2.5465,-2.5978,-2.6048,-2.5663,-2.4851,-2.4005,-2.0974,-1.6457,-1.498,-1.2206,-0.8697,-0.797,-0.9096,-1.1497,-1.4465,-1.6805,-1.8752,-2.0746,-2.1234,-2.0907,-2.0563,-2.0523,-2.0625,-2.0555,-2.0568,-2.0603,-2.0479,-2.0525,-2.0569,-2.0305,-2.0395,-2.0481,-2.0221,-2.0823,-2.1401,-2.1297,-2.1871,-2.2457,-2.2429,-2.3152,-2.3652,-2.3266,-2.4078,-2.4779,-2.4551,-2.5424,-2.5976,-2.555,-2.619,-2.6334,-2.5389,-2.5194,-2.4505,-2.2892,-2.257,-2.0783,-1.6688,-1.3133,-0.8853,-0.3643,-0.0877,0.2546,0.689,1.1315,1.3432,1.2984,1.3898,1.2782,0.9618,0.7571,0.4433,0.0344,-0.1763,-0.3395,-0.4662,-0.6006,-0.7394,-0.8706,-0.8816,-0.9242,-0.983,-0.9906,-1.0135,-1.0396,-1.047,-1.0678,-1.0991,-2.3304,-2.2933,-2.2446,-2.1211,-1.9593,-1.8149,-1.7215,-1.4929,-1.2753,-1.1202,-0.9409,-0.7853,-0.675,-0.7109,-0.8286,-1.0344,-1.2151,-1.4666,-1.8151,-2.0114,-2.1848,-2.3482,-2.4278,-2.4808,-2.5095,-2.5286,-2.5327,-2.5236,-2.5166,-2.5201,-2.533,-2.5761,-2.594,-2.5765,-2.3537,-2.1437,-1.9409,-1.7188,-1.5264,-1.3654,-1.2788,-1.3558,-1.5477,-1.7607,-1.8685,-1.9339,-2.1269,-2.1327,-2.0458,-2.0276,-2.0296,-2.039,-2.03,-2.0241,-2.0186,-2.007,-2.0025,-2.0029,-1.9936,-1.9969,-1.9991,-1.9901,-1.995,-2.0041,-1.9973,-2.0606,-2.1053,-2.0467,-2.1589,-2.275,-2.3089,-2.383,-2.4369,-2.4284,-2.4737,-2.5076,-2.5038,-2.5565,-2.5767,-2.5301,-2.5196,-2.4714,-2.3518,-2.3585,-2.2214,-1.8611,-1.6053,-1.1771,-0.524,-0.0373,0.4268,0.8727,1.3982,1.6586,1.6311,1.5408,1.387,1.1729,0.7191,0.3403,0.031,-0.2436,-0.4445,-0.576,-0.6267,-0.7051,-0.8005,-0.8557,-0.8904,-0.9119,-0.9691,-0.997,-1.011,-1.0335,-1.047,-1.0678,-2.3364,-2.2775,-2.1982,-2.058,-1.9484,-1.8421,-1.733,-1.5632,-1.4025,-1.278,-1.0904,-0.9045,-0.7336,-0.7269,-0.8525,-1.1306,-1.2979,-1.5555,-1.9515,-2.1217,-2.2691,-2.4102,-2.4759,-2.5118,-2.5186,-2.5369,-2.541,-2.5292,-2.5195,-2.5083,-2.496,-2.542,-2.5775,-2.5918,-2.3345,-2.2081,-2.1782,-1.9434,-1.847,-1.8375,-1.7283,-1.7627,-1.8951,-2.0333,-2.0412,-2.0012,-2.1659,-2.1289,-1.9934,-1.9571,-1.9589,-1.9783,-2.0009,-1.9896,-1.9633,-1.9495,-1.9287,-1.9084,-1.9058,-1.9062,-1.9073,-1.8974,-1.8818,-1.8672,-1.8578,-1.9194,-1.9629,-1.9004,-2.0186,-2.1572,-2.2268,-2.2903,-2.3382,-2.36,-2.3682,-2.388,-2.4431,-2.4759,-2.4986,-2.5137,-2.5031,-2.4745,-2.419,-2.4547,-2.3502,-2.0381,-1.9567,-1.5954,-0.8457,-0.3366,0.1348,0.5831,1.1515,1.4747,1.5261,1.3435,1.1889,1.0626,0.5247,0.1484,-0.0844,-0.3428,-0.5327,-0.6518,-0.6592,-0.6966,-0.7555,-0.8426,-0.879,-0.8834,-0.9487,-0.9828,-0.9919,-1.016,-1.026,-1.0335,-2.3148,-2.316,-2.2723,-2.0575,-2.0097,-1.9321,-1.741,-1.6671,-1.5516,-1.309,-1.2346,-1.1098,-0.8664,-0.7931,-0.899,-1.2389,-1.4689,-1.732,-2.0488,-2.2562,-2.3952,-2.4572,-2.4919,-2.5191,-2.539,-2.5391,-2.5428,-2.5495,-2.5361,-2.5308,-2.5297,-2.5097,-2.4985,-2.4877,-2.3824,-2.286,-2.2017,-2.1954,-2.1937,-2.1905,-2.157,-2.172,-2.222,-2.3062,-2.2444,-2.1274,-2.2105,-2.1147,-1.9353,-1.8278,-1.8072,-1.8416,-1.9461,-1.9254,-1.8591,-1.8459,-1.7941,-1.7405,-1.7274,-1.7342,-1.7356,-1.7015,-1.7231,-1.7428,-1.7093,-1.7607,-1.8223,-1.8529,-1.9263,-1.9911,-2.0192,-2.0897,-2.1642,-2.2224,-2.2158,-2.2439,-2.3655,-2.3691,-2.3914,-2.4711,-2.458,-2.4608,-2.5139,-2.5665,-2.4909,-2.2363,-2.3864,-2.1516,-1.3729,-1.2241,-0.9489,-0.487,0.0883,0.4868,0.6918,0.6592,0.6001,0.5169,0.1687,-0.1198,-0.3487,-0.4648,-0.5674,-0.6518,-0.6866,-0.7249,-0.7763,-0.8501,-0.9035,-0.9396,-0.9396,-0.9607,-0.9905,-0.9905,-0.9893,-0.9944,-2.2894,-2.2588,-2.2217,-2.1236,-2.0342,-1.9637,-1.9337,-1.7556,-1.5838,-1.4712,-1.288,-1.133,-1.0426,-0.989,-1.1025,-1.4568,-1.6036,-1.8361,-2.2149,-2.3064,-2.3763,-2.45,-2.4586,-2.4748,-2.4981,-2.4992,-2.5027,-2.5095,-2.505,-2.505,-2.509,-2.4758,-2.4852,-2.528,-2.469,-2.4545,-2.469,-2.389,-2.3568,-2.3508,-2.2937,-2.2915,-2.3222,-2.3415,-2.2783,-2.1785,-2.1528,-2.0504,-1.9219,-1.8677,-1.8086,-1.7654,-1.8099,-1.7868,-1.7436,-1.7391,-1.7055,-1.6739,-1.6785,-1.6753,-1.6762,-1.6935,-1.6921,-1.693,-1.7103,-1.7317,-1.7558,-1.7864,-1.8739,-1.9503,-1.9585,-2.0441,-2.1254,-2.1641,-2.1758,-2.1977,-2.2492,-2.2337,-2.2644,-2.396,-2.372,-2.3941,-2.5145,-2.5994,-2.5838,-2.4291,-2.511,-2.2526,-1.529,-1.2388,-0.9544,-0.6553,-0.2687,0.0533,0.3027,0.2755,0.2221,0.1382,-0.3087,-0.5272,-0.5474,-0.5554,-0.609,-0.6901,-0.7011,-0.7462,-0.8127,-0.8595,-0.9035,-0.9422,-0.9633,-0.9802,-0.9905,-0.9905,-0.9905,-0.9944,-2.3276,-2.3047,-2.2825,-2.2248,-2.1141,-2.0258,-2.0097,-1.8165,-1.6366,-1.544,-1.3861,-1.2735,-1.2366,-1.251,-1.3532,-1.5899,-1.7196,-1.9361,-2.2748,-2.3152,-2.3497,-2.399,-2.4136,-2.4138,-2.3948,-2.4267,-2.4369,-2.4273,-2.4559,-2.4822,-2.5038,-2.4706,-2.4821,-2.5294,-2.4991,-2.5133,-2.5498,-2.4778,-2.4497,-2.4449,-2.3929,-2.3899,-2.4143,-2.3638,-2.2874,-2.1944,-2.1088,-1.976,-1.8305,-1.7663,-1.6882,-1.6141,-1.5976,-1.5735,-1.5648,-1.6183,-1.5919,-1.5493,-1.567,-1.5565,-1.5491,-1.5592,-1.5491,-1.5572,-1.6169,-1.6346,-1.6546,-1.7188,-1.7749,-1.8198,-1.8461,-1.9217,-1.9847,-2.0168,-2.0444,-2.0759,-2.1184,-2.1078,-2.1443,-2.2808,-2.2932,-2.3413,-2.4629,-2.5552,-2.5844,-2.5228,-2.5505,-2.372,-1.9231,-1.6046,-1.3132,-1.0437,-0.8228,-0.6127,-0.4084,-0.3659,-0.3652,-0.4069,-0.6596,-0.7644,-0.7324,-0.6626,-0.6674,-0.7325,-0.7325,-0.7676,-0.8287,-0.8523,-0.8816,-0.9182,-0.9262,-0.9475,-0.9712,-0.9712,-0.9802,-0.9919,-2.4173,-2.43,-2.421,-2.333,-2.2242,-2.1113,-1.9919,-1.8501,-1.7019,-1.5564,-1.5236,-1.4908,-1.4406,-1.541,-1.6173,-1.6398,-1.8188,-2.0184,-2.2225,-2.2767,-2.3,-2.3006,-2.3379,-2.3163,-2.2312,-2.3076,-2.3367,-2.3106,-2.391,-2.4549,-2.4999,-2.4842,-2.4827,-2.4952,-2.4856,-2.4799,-2.4808,-2.4808,-2.481,-2.4771,-2.448,-2.4561,-2.4768,-2.3649,-2.2669,-2.1725,-2.0588,-1.8828,-1.6848,-1.5594,-1.4724,-1.405,-1.3466,-1.3227,-1.3464,-1.4881,-1.4592,-1.3885,-1.4078,-1.3983,-1.3739,-1.3379,-1.3342,-1.3621,-1.4515,-1.4831,-1.5242,-1.6401,-1.6358,-1.6322,-1.6971,-1.7386,-1.7735,-1.8188,-1.8521,-1.8985,-1.9759,-1.9867,-2.0261,-2.137,-2.2207,-2.2993,-2.3764,-2.4615,-2.5167,-2.5287,-2.523,-2.505,-2.4668,-2.2357,-1.9539,-1.6213,-1.546,-1.4508,-1.3279,-1.188,-1.0856,-1.0176,-0.8911,-0.8499,-0.8869,-0.7733,-0.7413,-0.7744,-0.7772,-0.7982,-0.8273,-0.8354,-0.8578,-0.8844,-0.8523,-0.8828,-0.9422,-0.9422,-0.9633,-0.9905,-2.4655,-2.4482,-2.4038,-2.3068,-2.2225,-2.1301,-2.0254,-1.8917,-1.7848,-1.7321,-1.6124,-1.548,-1.5911,-1.5956,-1.6142,-1.6654,-1.8437,-1.9634,-1.9913,-2.0601,-2.0998,-2.1044,-2.0537,-2.0242,-2.0224,-2.0404,-2.1114,-2.2369,-2.2958,-2.3563,-2.4182,-2.4331,-2.4466,-2.4559,-2.4719,-2.4805,-2.4796,-2.4796,-2.4793,-2.4746,-2.4059,-2.3758,-2.3537,-2.1998,-2.1084,-2.0391,-1.8656,-1.7339,-1.6254,-1.5184,-1.3937,-1.2869,-1.2895,-1.2525,-1.236,-1.3833,-1.3754,-1.3261,-1.3459,-1.3227,-1.2971,-1.3166,-1.3275,-1.3432,-1.3841,-1.3982,-1.4192,-1.49,-1.5168,-1.5432,-1.5884,-1.628,-1.6847,-1.7696,-1.7902,-1.8097,-1.8496,-1.8553,-1.9045,-2.0354,-2.1287,-2.2413,-2.395,-2.4896,-2.5388,-2.5312,-2.5235,-2.5154,-2.5071,-2.4107,-2.2816,-2.1233,-2.1725,-2.0069,-1.5935,-1.5942,-1.4,-1.0123,-0.9542,-0.9119,-0.8816,-0.8516,-0.8315,-0.8166,-0.8428,-0.875,-0.9116,-0.9128,-0.9343,-0.9633,-0.9555,-0.9633,-0.979,-0.979,-0.9816,-0.9905,-2.4989,-2.448,-2.3898,-2.3244,-2.2043,-2.0949,-2.0263,-1.9083,-1.8172,-1.8014,-1.7281,-1.6745,-1.6657,-1.6361,-1.5745,-1.4705,-1.6897,-1.8238,-1.7925,-1.799,-1.8104,-1.8197,-1.7724,-1.7448,-1.7427,-1.8025,-1.9108,-2.0692,-2.1502,-2.2186,-2.2767,-2.3381,-2.3721,-2.3857,-2.4009,-2.4186,-2.4358,-2.3947,-2.3746,-2.3594,-2.2938,-2.2318,-2.1587,-2.0288,-1.942,-1.8688,-1.703,-1.5973,-1.52,-1.4059,-1.3041,-1.2211,-1.215,-1.1837,-1.1692,-1.2586,-1.2829,-1.2818,-1.2881,-1.2644,-1.2343,-1.2142,-1.2234,-1.2456,-1.2908,-1.3055,-1.3373,-1.4314,-1.4505,-1.4634,-1.5018,-1.5563,-1.6092,-1.6655,-1.6998,-1.7205,-1.7228,-1.7559,-1.8297,-1.9595,-2.0982,-2.2448,-2.4053,-2.502,-2.5498,-2.535,-2.5332,-2.5325,-2.5282,-2.5015,-2.4409,-2.3386,-2.3507,-2.1704,-1.7791,-1.619,-1.3727,-1.04,-0.9839,-0.9387,-0.9062,-0.8899,-0.8789,-0.88,-0.8634,-0.8981,-0.9593,-0.9101,-0.9209,-0.9672,-0.9463,-0.9528,-0.9659,-0.9659,-0.9776,-0.9905,-2.4969,-2.4284,-2.3599,-2.3236,-2.1809,-2.0568,-2.0144,-1.9168,-1.8449,-1.8301,-1.8268,-1.7858,-1.684,-1.6182,-1.4755,-1.21,-1.4162,-1.5529,-1.5389,-1.4956,-1.4787,-1.4883,-1.4866,-1.4686,-1.4399,-1.5618,-1.695,-1.8376,-1.952,-2.0346,-2.0872,-2.178,-2.2289,-2.2434,-2.2495,-2.274,-2.3073,-2.2317,-2.1922,-2.1697,-2.1184,-2.0377,-1.9378,-1.8525,-1.7696,-1.6817,-1.5496,-1.4602,-1.3843,-1.2566,-1.1945,-1.1658,-1.1319,-1.1206,-1.1263,-1.1514,-1.196,-1.2338,-1.225,-1.2091,-1.1728,-1.094,-1.0959,-1.1373,-1.1979,-1.2268,-1.2749,-1.4028,-1.4019,-1.3934,-1.4342,-1.4927,-1.5404,-1.5653,-1.6128,-1.6467,-1.6456,-1.7133,-1.8011,-1.9074,-2.1039,-2.2756,-2.393,-2.4993,-2.5576,-2.5454,-2.5489,-2.5494,-2.5417,-2.5297,-2.4749,-2.3735,-2.3045,-2.1341,-1.8539,-1.4679,-1.2094,-1.0779,-0.9913,-0.9471,-0.9381,-0.9046,-0.9074,-0.9369,-0.88,-0.9062,-0.9816,-0.891,-0.891,-0.9449,-0.9089,-0.917,-0.9475,-0.9475,-0.9672,-0.9905,-2.4269,-2.3556,-2.2684,-2.18,-2.144,-2.0974,-2.0075,-1.9628,-1.9333,-1.913,-1.8206,-1.7255,-1.6448,-1.4192,-1.2295,-1.1315,-1.0258,-0.9823,-1.0296,-1.113,-1.1622,-1.163,-1.1662,-1.1665,-1.1598,-1.2689,-1.3964,-1.5459,-1.6543,-1.7492,-1.8376,-1.8741,-1.8949,-1.9,-1.926,-1.9427,-1.9495,-1.9368,-1.9299,-1.9207,-1.844,-1.7906,-1.745,-1.6632,-1.5837,-1.5023,-1.3673,-1.2871,-1.2247,-1.0911,-1.0454,-1.045,-1.078,-1.0786,-1.0833,-1.1436,-1.1439,-1.1285,-1.1436,-1.129,-1.0987,-1.0567,-1.0832,-1.1292,-1.1627,-1.2077,-1.26,-1.3276,-1.3357,-1.3459,-1.3901,-1.4084,-1.4594,-1.591,-1.5906,-1.6185,-1.7448,-1.7956,-1.8428,-1.9104,-2.1283,-2.2867,-2.3226,-2.4732,-2.5683,-2.566,-2.5618,-2.5556,-2.5486,-2.484,-2.3965,-2.2849,-2.3003,-2.1067,-1.6827,-1.3861,-1.1838,-1.0779,-0.9913,-0.9471,-0.9396,-0.9343,-0.9343,-0.9396,-0.9581,-0.9738,-0.988,-0.9712,-0.9712,-0.9828,-0.9764,-0.9764,-0.9816,-0.9816,-0.9854,-0.9905,-2.3032,-2.2328,-2.1617,-2.1243,-2.0702,-2.0176,-1.9706,-1.936,-1.9037,-1.864,-1.752,-1.6133,-1.4549,-1.2178,-1.0066,-0.8479,-0.7021,-0.6188,-0.6171,-0.8048,-0.9142,-0.9241,-0.8973,-0.9064,-0.9595,-1.0428,-1.146,-1.2718,-1.4082,-1.5011,-1.5457,-1.6374,-1.679,-1.6822,-1.6942,-1.7149,-1.738,-1.6924,-1.6654,-1.6502,-1.5883,-1.5037,-1.41,-1.3717,-1.3044,-1.2128,-1.1267,-1.0978,-1.0856,-0.9721,-0.9688,-1.0088,-1.0111,-1.0216,-1.0378,-1.0696,-1.0936,-1.1057,-1.0873,-1.0565,-1.0234,-0.9945,-0.9872,-1.0027,-1.0439,-1.0701,-1.1053,-1.1634,-1.1907,-1.2177,-1.2693,-1.289,-1.3537,-1.5276,-1.5772,-1.6246,-1.7167,-1.8356,-1.937,-2.0076,-2.1741,-2.322,-2.4296,-2.5191,-2.5662,-2.5601,-2.5155,-2.478,-2.4493,-2.3474,-2.2364,-2.1186,-2.0982,-1.9251,-1.5836,-1.4055,-1.2257,-1.0469,-0.9947,-0.9607,-0.9408,-0.9581,-0.9659,-0.9672,-0.9646,-0.9738,-0.988,-0.9698,-0.9738,-0.9905,-0.9905,-0.9905,-0.9905,-0.9905,-0.9905,-0.9905,-2.1424,-2.067,-2.0055,-2.0204,-1.9446,-1.8762,-1.8641,-1.8378,-1.7876,-1.6976,-1.5875,-1.4444,-1.2444,-1.0262,-0.82,-0.6361,-0.4976,-0.4056,-0.3626,-0.5533,-0.6762,-0.7002,-0.6765,-0.6953,-0.7673,-0.8288,-0.9139,-1.0169,-1.1439,-1.2269,-1.2631,-1.3518,-1.3998,-1.4145,-1.3998,-1.4187,-1.462,-1.3951,-1.3656,-1.3588,-1.3227,-1.2361,-1.1246,-1.1114,-1.0494,-0.9655,-0.9124,-0.9166,-0.9374,-0.8639,-0.8969,-0.9631,-0.9515,-0.9611,-0.9825,-1.0198,-1.063,-1.086,-1.0199,-0.9805,-0.952,-0.9304,-0.906,-0.8989,-0.9484,-0.9563,-0.971,-1.0355,-1.0645,-1.0908,-1.1385,-1.1833,-1.2671,-1.4393,-1.5431,-1.6302,-1.7087,-1.8566,-1.9977,-2.1017,-2.2144,-2.3385,-2.4788,-2.5191,-2.5258,-2.4938,-2.4263,-2.3696,-2.3321,-2.202,-2.0643,-1.9207,-1.869,-1.7337,-1.5074,-1.4114,-1.2528,-1.0326,-0.9944,-0.9698,-0.9528,-0.9686,-0.9828,-0.988,-0.9646,-0.9659,-0.988,-0.9607,-0.9672,-0.9905,-0.9905,-0.9905,-0.9905,-0.9995,-1.0021,-1.0034,-1.9416,-1.8501,-1.766,-1.7663,-1.7292,-1.6841,-1.6411,-1.638,-1.5698,-1.3717,-1.2722,-1.1841,-1.0849,-0.8496,-0.6956,-0.6841,-0.4882,-0.364,-0.3595,-0.3803,-0.414,-0.4644,-0.5168,-0.5437,-0.5539,-0.6064,-0.6848,-0.7934,-0.8036,-0.8879,-1.034,-0.9367,-0.9223,-0.9752,-0.9175,-0.9253,-0.982,-0.9762,-0.9983,-1.0434,-1.0406,-1.0319,-1.0165,-0.9647,-0.9133,-0.8525,-0.7741,-0.7502,-0.7602,-0.7502,-0.7861,-0.8468,-0.9199,-0.9138,-0.9055,-1.0439,-1.0625,-1.0151,-0.9176,-0.8887,-0.886,-0.8844,-0.8901,-0.9109,-0.9504,-0.9476,-0.9551,-1.0348,-1.023,-1.0122,-1.0512,-1.1258,-1.2251,-1.352,-1.4694,-1.6133,-1.8085,-1.8717,-1.9601,-2.1355,-2.2348,-2.2959,-2.3178,-2.3922,-2.4059,-2.3248,-2.2767,-2.2505,-2.2395,-2.0886,-1.9122,-1.7096,-1.7044,-1.6159,-1.4304,-1.3356,-1.2116,-1.0653,-0.9836,-0.9581,-0.9854,-0.9567,-0.9607,-0.9905,-0.988,-0.988,-0.9905,-0.988,-0.988,-0.9905,-0.9905,-0.9905,-0.9944,-1.026,-1.0347,-1.05,-1.6727,-1.6378,-1.6071,-1.62,-1.5452,-1.4754,-1.4582,-1.3887,-1.3213,-1.2888,-1.141,-1.0088,-0.9341,-0.6548,-0.4461,-0.3781,-0.299,-0.2504,-0.2504,-0.2499,-0.3208,-0.4882,-0.4951,-0.4709,-0.4248,-0.4765,-0.5444,-0.6204,-0.6552,-0.7031,-0.7606,-0.7536,-0.7603,-0.778,-0.7562,-0.7603,-0.782,-0.782,-0.7949,-0.8126,-0.8126,-0.7931,-0.7606,-0.7394,-0.6922,-0.634,-0.604,-0.5936,-0.5972,-0.5935,-0.6595,-0.7506,-0.7775,-0.8084,-0.8442,-0.8747,-0.8848,-0.8718,-0.8097,-0.8396,-0.8842,-0.8766,-0.8484,-0.8194,-0.7966,-0.7725,-0.7651,-0.795,-0.8298,-0.8684,-0.9182,-1.0125,-1.1406,-1.33,-1.4946,-1.6522,-1.8151,-1.9246,-2.0463,-2.2029,-2.2113,-2.2429,-2.3454,-2.3435,-2.3112,-2.2486,-2.1793,-2.1117,-2.0409,-1.8382,-1.663,-1.5292,-1.48,-1.4136,-1.3288,-1.2599,-1.1454,-0.9885,-0.9758,-0.9672,-0.9593,-0.9659,-0.9776,-0.9905,-0.9905,-0.9905,-0.9905,-0.9905,-0.9905,-0.9905,-0.9905,-0.9905,-0.9944,-1.0285,-1.0396,-1.0538,-1.3982,-1.3921,-1.3849,-1.4007,-1.3165,-1.2402,-1.2033,-1.1525,-1.1017,-1.0596,-0.9103,-0.7529,-0.593,-0.3752,-0.1954,-0.0757,-0.0668,-0.0668,-0.0668,-0.0668,-0.1736,-0.4079,-0.3932,-0.3741,-0.3605,-0.3961,-0.4326,-0.4678,-0.5124,-0.5551,-0.5948,-0.5874,-0.5981,-0.6193,-0.5975,-0.597,-0.6138,-0.6193,-0.6367,-0.659,-0.6458,-0.6168,-0.5851,-0.5862,-0.5555,-0.5111,-0.4659,-0.4464,-0.4442,-0.4566,-0.5339,-0.6212,-0.6236,-0.6944,-0.7671,-0.7289,-0.7448,-0.7709,-0.7599,-0.7813,-0.8127,-0.825,-0.7868,-0.7425,-0.7138,-0.6624,-0.6316,-0.6591,-0.7107,-0.7609,-0.7996,-0.9395,-1.0985,-1.2561,-1.451,-1.6266,-1.7492,-1.8807,-2.0132,-2.155,-2.143,-2.1687,-2.2785,-2.2438,-2.1896,-2.1302,-2.0409,-1.936,-1.8137,-1.6099,-1.4643,-1.3897,-1.2807,-1.2251,-1.2359,-1.1816,-1.0886,-0.9555,-0.9802,-0.9776,-0.9567,-0.979,-0.9905,-0.9905,-0.9905,-0.9905,-0.9905,-0.9905,-0.9905,-0.9905,-1.0021,-1.0072,-1.011,-1.0519,-1.0688,-1.0845,-1.1273,-1.1064,-1.0777,-1.0777,-1.0391,-0.9703,-0.8654,-0.9453,-0.9086,-0.613,-0.5341,-0.3745,-0.0356,0.0044,0.049,0.1695,0.183,0.183,0.183,0.183,0.0757,-0.165,-0.1784,-0.2324,-0.3551,-0.3595,-0.3503,-0.3276,-0.3503,-0.4293,-0.5525,-0.4215,-0.3991,-0.4644,-0.3935,-0.388,-0.4387,-0.4587,-0.513,-0.5804,-0.5397,-0.5266,-0.5271,-0.5257,-0.5267,-0.5081,-0.3617,-0.3025,-0.3072,-0.362,-0.4051,-0.4434,-0.4809,-0.5754,-0.6692,-0.6307,-0.6665,-0.7282,-0.7773,-0.709,-0.6471,-0.7207,-0.7093,-0.6905,-0.7281,-0.6525,-0.5909,-0.6719,-0.6983,-0.7102,-0.711,-0.9275,-1.1079,-1.1081,-1.3168,-1.5138,-1.6152,-1.7087,-1.8185,-1.9613,-2.0314,-2.0676,-2.0695,-2.0695,-2.0326,-1.9465,-1.8449,-1.7215,-1.5675,-1.4325,-1.3433,-1.3002,-1.124,-1.072,-1.1588,-1.1058,-1.0489,-0.9905,-0.9905,-0.9905,-0.9905,-0.9905,-0.9905,-0.9905,-0.9905,-0.9905,-0.9905,-0.9905,-0.9905,-0.9931,-1.0285,-1.0396,-1.047,-1.1066,-1.131,-1.1543,-0.8764,-0.8703,-0.8641,-0.8641,-0.7893,-0.7314,-0.7433,-0.6823,-0.5508,-0.3215,-0.2117,-0.0797,0.1068,0.201,0.2684,0.3049,0.3049,0.3049,0.3049,0.3049,0.2732,0.201,0.0889,0.0133,-0.0222,-0.134,-0.1889,-0.1825,-0.2799,-0.315,-0.2924,-0.2529,-0.2455,-0.2674,-0.3315,-0.3125,-0.234,-0.2277,-0.2132,-0.1903,-0.1659,-0.1591,-0.1591,-0.1594,-0.1509,-0.1442,-0.154,-0.1541,-0.1692,-0.2707,-0.3199,-0.3572,-0.4427,-0.5098,-0.5579,-0.5343,-0.5547,-0.5882,-0.6052,-0.5837,-0.5836,-0.6875,-0.6567,-0.5932,-0.5527,-0.5443,-0.5456,-0.56,-0.6305,-0.6893,-0.6896,-0.8625,-1.0126,-1.0408,-1.2148,-1.3862,-1.502,-1.5633,-1.6556,-1.8193,-1.8522,-1.8824,-1.9379,-1.9394,-1.914,-1.8609,-1.7406,-1.6255,-1.5228,-1.431,-1.3409,-1.2532,-1.1435,-1.0775,-1.055,-1.0064,-1.003,-1.0456,-1.0081,-0.9905,-0.9905,-0.9905,-0.9905,-0.9905,-0.9905,-0.9905,-0.9905,-0.9905,-0.9905,-0.9931,-1.0285,-1.0396,-1.0523,-1.1607,-1.2005,-1.2241,-0.6761,-0.6761,-0.6706,-0.6562,-0.6108,-0.5679,-0.5368,-0.4287,-0.2923,-0.1238,0.0399,0.1695,0.241,0.3179,0.3592,0.3592,0.3592,0.3592,0.3592,0.3592,0.3592,0.3592,0.2674,0.2135,0.2138,0.1067,0.0296,-0.013,-0.0955,-0.1208,-0.0955,-0.0683,-0.0641,-0.0781,-0.158,-0.1625,-0.1055,-0.0667,-0.0207,0.0325,0.1107,0.1432,0.1388,0.1258,0.1365,0.1489,0.103,0.0346,-0.0487,-0.1237,-0.2096,-0.2997,-0.3725,-0.4268,-0.4674,-0.4684,-0.4815,-0.5,-0.5216,-0.4961,-0.4808,-0.5686,-0.567,-0.5352,-0.4909,-0.4936,-0.5059,-0.524,-0.6026,-0.6714,-0.6775,-0.8299,-0.9561,-0.9629,-1.1036,-1.243,-1.3343,-1.3967,-1.4834,-1.6258,-1.6589,-1.6984,-1.7658,-1.7826,-1.7684,-1.7195,-1.6265,-1.5286,-1.4282,-1.3491,-1.267,-1.1775,-1.0932,-1.0467,-1.041,-0.9973,-1.0084,-1.0746,-1.0638,-1.0445,-1.0232,-1.0232,-1.0232,-1.0207,-0.9993,-1.0018,-1.0207,-0.9993,-0.9905,-0.9957,-1.0409,-1.0753,-1.1121,-1.2125,-1.2663,-1.3094,-0.4854,-0.4902,-0.4849,-0.4378,-0.4661,-0.4395,-0.2726,-0.1894,-0.1016,0.0177,0.2228,0.3592,0.3581,0.3581,0.3581,0.3581,0.3581,0.3622,0.3667,0.3667,0.3711,0.3755,0.3755,0.3714,0.3681,0.3321,0.2655,0.168,0.1569,0.1164,0.0542,0.1208,0.1374,0.1083,0.0878,0.0467,-0.0039,0.0585,0.0936,0.1249,0.2897,0.3608,0.3574,0.3243,0.3278,0.3562,0.3558,0.2312,0.0616,0.0433,-0.0944,-0.259,-0.2895,-0.3409,-0.3982,-0.4248,-0.4347,-0.4434,-0.5005,-0.4391,-0.3655,-0.4049,-0.45,-0.4908,-0.4908,-0.4719,-0.4719,-0.5254,-0.5918,-0.6467,-0.6707,-0.8027,-0.9015,-0.8758,-0.9772,-1.0829,-1.1402,-1.2142,-1.2998,-1.3979,-1.4628,-1.516,-1.5598,-1.6035,-1.6033,-1.5417,-1.502,-1.4282,-1.306,-1.2235,-1.1525,-1.0917,-1.0139,-1.0103,-1.0836,-1.0509,-1.0525,-1.0892,-1.1375,-1.1312,-1.0769,-1.0769,-1.0769,-1.0744,-1.027,-1.0334,-1.0712,-1.0182,-1.002,-1.0148,-1.0748,-1.1413,-1.2108,-1.2784,-1.3395,-1.404,-0.1327,-0.1908,-0.2222,-0.1192,-0.1592,-0.177,-0.075,0.0088,0.1107,0.2627,0.3262,0.3585,0.3581,0.3581,0.3581,0.3581,0.3581,0.3796,0.4176,0.422,0.4439,0.4918,0.4918,0.47,0.4224,0.3736,0.3295,0.2906,0.3046,0.2791,0.2187,0.2805,0.293,0.261,0.2372,0.2268,0.2268,0.2601,0.2668,0.2662,0.3212,0.3517,0.3557,0.3229,0.3209,0.3361,0.3369,0.3053,0.2418,0.0655,-0.052,-0.1474,-0.2463,-0.3026,-0.3354,-0.3698,-0.3796,-0.3796,-0.3928,-0.3662,-0.3392,-0.3479,-0.3445,-0.3368,-0.3368,-0.3914,-0.4435,-0.4331,-0.4994,-0.5725,-0.6222,-0.6604,-0.71,-0.7954,-0.8286,-0.8936,-1.0329,-1.0661,-1.1174,-1.22,-1.2977,-1.3434,-1.3544,-1.4193,-1.4298,-1.3532,-1.3396,-1.2994,-1.2139,-1.1909,-1.1535,-1.101,-1.0797,-1.061,-1.0432,-1.0704,-1.1072,-1.1512,-1.156,-1.1525,-1.1399,-1.1399,-1.1399,-1.1399,-1.1274,-1.1194,-1.1041,-1.0693,-1.0885,-1.1474,-1.1626,-1.2218,-1.3153,-1.4313,-1.4684,-1.4731,0.0844,0.0801,0.0712,0.0576,0.0843,0.1022,0.0886,0.1687,0.2627,0.349,0.3581,0.3581,0.3581,0.3581,0.3707,0.3965,0.4228,0.453,0.4826,0.4822,0.4957,0.5303,0.5303,0.5173,0.4826,0.4568,0.4101,0.3442,0.3403,0.3286,0.3123,0.3207,0.3262,0.3233,0.2933,0.2907,0.3056,0.345,0.3589,0.3556,0.4048,0.4049,0.3794,0.3801,0.3605,0.332,0.3483,0.3448,0.3107,0.1874,0.0916,0.0038,-0.1073,-0.1726,-0.2158,-0.2602,-0.3132,-0.3588,-0.3588,-0.3527,-0.3407,-0.3333,-0.3208,-0.307,-0.3005,-0.3421,-0.3857,-0.4041,-0.449,-0.5043,-0.5653,-0.5728,-0.5925,-0.6537,-0.7071,-0.7662,-0.8322,-0.8914,-0.9498,-1.0149,-1.0926,-1.1757,-1.2572,-1.3023,-1.3111,-1.27,-1.2665,-1.2283,-1.1457,-1.1431,-1.1084,-1.0321,-1.0534,-1.0418,-0.9922,-1.0639,-1.1263,-1.1745,-1.1919,-1.1992,-1.1977,-1.1977,-1.1977,-1.1964,-1.1701,-1.1776,-1.2047,-1.1585,-1.1601,-1.1925,-1.2385,-1.2879,-1.3449,-1.4645,-1.5365,-1.5821,0.2324,0.2912,0.3182,0.1821,0.2724,0.3271,0.2268,0.2943,0.3581,0.3581,0.3667,0.3751,0.3751,0.384,0.4056,0.4522,0.5,0.5351,0.5437,0.5437,0.548,0.5604,0.5604,0.5561,0.5437,0.5351,0.4787,0.3751,0.3444,0.3436,0.3705,0.3275,0.3306,0.3663,0.3327,0.3283,0.3466,0.397,0.4141,0.4161,0.4759,0.4646,0.4109,0.4445,0.4142,0.3534,0.3754,0.3605,0.3262,0.3181,0.2517,0.1628,0.0858,-0.0,-0.085,-0.1357,-0.2222,-0.3049,-0.3233,-0.3306,-0.3259,-0.3101,-0.3177,-0.3229,-0.3136,-0.3142,-0.3349,-0.3939,-0.4142,-0.4434,-0.5043,-0.5087,-0.5077,-0.5252,-0.5958,-0.648,-0.6396,-0.725,-0.7965,-0.8243,-0.9014,-1.0138,-1.1748,-1.1902,-1.1902,-1.1902,-1.1985,-1.167,-1.0781,-1.0743,-1.036,-0.9518,-0.9922,-0.9961,-0.9518,-1.0408,-1.1169,-1.1811,-1.2174,-1.2421,-1.2554,-1.2554,-1.2554,-1.2529,-1.2065,-1.2319,-1.3054,-1.2529,-1.2305,-1.2364,-1.3097,-1.3462,-1.3716,-1.4629,-1.5767,-1.6789,0.3401,0.3499,0.3547,0.3309,0.3445,0.3537,0.3398,0.349,0.3581,0.3581,0.4008,0.4303,0.4303,0.4744,0.5091,0.5173,0.526,0.5524,0.605,0.6093,0.6301,0.6768,0.6768,0.6556,0.6093,0.5567,0.4957,0.4303,0.4254,0.418,0.4123,0.3923,0.423,0.4838,0.451,0.4524,0.4843,0.4924,0.4773,0.4522,0.4628,0.4552,0.4361,0.4397,0.4421,0.4371,0.4085,0.3598,0.3151,0.3222,0.3109,0.2909,0.3056,0.1632,-0.0133,-0.0213,-0.0347,-0.0715,-0.1741,-0.2047,-0.2031,-0.2019,-0.2585,-0.3115,-0.3118,-0.3305,-0.353,-0.3455,-0.3555,-0.388,-0.4434,-0.414,-0.4136,-0.5004,-0.4815,-0.4853,-0.5682,-0.6233,-0.6731,-0.7237,-0.7948,-0.88,-0.9808,-0.9884,-0.9884,-0.9884,-1.0321,-1.0341,-0.9746,-0.9716,-0.9637,-0.9518,-0.9558,-0.9558,-0.9518,-1.0079,-1.0878,-1.1811,-1.1847,-1.233,-1.3085,-1.3085,-1.3085,-1.3085,-1.301,-1.3149,-1.3411,-1.3044,-1.3236,-1.3784,-1.3699,-1.4153,-1.4919,-1.5475,-1.6142,-1.6789,0.3595,0.3649,0.368,0.3595,0.3646,0.3673,0.3592,0.3581,0.3581,0.3581,0.3792,0.4049,0.4347,0.526,0.5787,0.5787,0.6081,0.638,0.6647,0.6641,0.6768,0.6979,0.6979,0.6894,0.6647,0.638,0.599,0.5394,0.4739,0.4349,0.4316,0.4537,0.483,0.5188,0.4959,0.4984,0.524,0.558,0.5644,0.5503,0.582,0.5653,0.5247,0.5523,0.5088,0.4333,0.3918,0.3625,0.3378,0.3427,0.3432,0.3304,0.2771,0.1866,0.0891,0.0219,0.0,-0.0134,-0.0672,-0.0796,-0.096,-0.1613,-0.2454,-0.2992,-0.2473,-0.2471,-0.2755,-0.336,-0.3531,-0.3667,-0.3921,-0.3677,-0.3595,-0.4012,-0.4164,-0.4302,-0.459,-0.5159,-0.5817,-0.668,-0.7044,-0.7741,-0.8916,-0.9187,-0.9265,-0.9265,-0.9514,-0.9514,-0.9307,-0.9151,-0.8918,-0.8594,-0.9199,-0.9359,-0.9039,-1.0108,-1.1024,-1.1767,-1.1977,-1.248,-1.3198,-1.3198,-1.3198,-1.3198,-1.3198,-1.3539,-1.4039,-1.3663,-1.3744,-1.4084,-1.4144,-1.439,-1.4783,-1.5013,-1.5521,-1.6126]}]]